Darstellungsparameter: Aktuell verwendete Einstellungen:
Skalierung der Graphiken ... ?
xyx+y,   Skalierungsfaktor:      Skalierung: Modus: x, Faktor: 1
Darstellungszeitraum ... ?
Vom - - bis: - -   Zeitraum: 17.07.2020 - 31.12.2020
Min/Max/Avg-Anzeige ... ?
Zeige MMA aktuell
Zeige MMA Monat
Zeige MMA alles
Zeige --A aktuell
Zeige --A Monat
Zeige --A alles
Keine MMA-Anzeige
MMA:
Average (ber die Originaldaten)
MMA-Basis: 23.02.2003 - 03.08.2020
Quicknavigation für Darstellung... ?
Tage:      1T, 2T, 3T, 5T -1T -2T -3T -5T +1T +2T +3T +5T
Wochen: 1W, 2W, 3W -1W -2W -3W +1W +2W +3W
Monate: 1M, 3M, 6M -1M -3M -6M +1M +3M +6M
Jahre:    1J, 3J, 5J, 10J -1J -3J -5J -10J +1J +3J +5J +10J
Nutze für die Darstellung ... ?
Originaldaten oder ...
Mittelwerte Minima Maxima auf...
Stundenbasis Tagesbasis Wochenbasis
Monatsbasis Jahresbasis      Datenbasis: Mittelwerte auf Stundenbasis
Darstellen als:
Statistik (Auto) Statistik J:M      Darstellung:
Zur Graphik,    zurück zur Übersicht aller Sensoren.
 
Tabellarische Datenbersicht: ?
 
Sensor: Nr:Datum:Temp:Abs-Feuchte:Windchill:Wind:
Aussen-T/F 1 17-07-2020 00:00:00 15.14167 C 12.29 g/m*3 15.14 C 1.73333 km/h
2 17-07-2020 01:00:00 15.1 C 12.32 g/m*3 15.1 C 0.8 km/h
3 17-07-2020 02:00:00 15.125 C 12.4 g/m*3 15.13 C 0.53333 km/h
4 17-07-2020 03:00:00 15.16667 C 12.44 g/m*3 15.17 C 1.33333 km/h
5 17-07-2020 04:00:00 15.2 C 12.46 g/m*3 15.2 C 0 km/h
6 17-07-2020 05:00:00 15.2 C 12.46 g/m*3 15.2 C 0 km/h
7 17-07-2020 06:00:00 15.225 C 12.48 g/m*3 15.23 C 1.06667 km/h
8 17-07-2020 07:00:00 15.34167 C 12.57 g/m*3 15.34 C 0.26667 km/h
9 17-07-2020 08:00:00 15.575 C 12.83 g/m*3 15.58 C 0.53333 km/h
10 17-07-2020 09:00:00 15.84167 C 12.96 g/m*3 15.84 C 4.00833 km/h
11 17-07-2020 10:00:00 16.775 C 13.41 g/m*3 16.77 C 7.39167 km/h
12 17-07-2020 11:00:00 18.16667 C 13.46 g/m*3 18.17 C 5.76667 km/h
13 17-07-2020 12:00:00 19.275 C 13.31 g/m*3 19.27 C 3.2 km/h
14 17-07-2020 13:00:00 20.54167 C 12.9 g/m*3 20.54 C 5.35 km/h
15 17-07-2020 14:00:00 21.6 C 12.44 g/m*3 21.6 C 8.33333 km/h
16 17-07-2020 15:00:00 22.95833 C 12.05 g/m*3 22.96 C 7.50833 km/h
17 17-07-2020 16:00:00 23.825 C 12.78 g/m*3 23.83 C 4.83333 km/h
18 17-07-2020 17:00:00 23.89167 C 11.28 g/m*3 23.89 C 9.93333 km/h
19 17-07-2020 18:00:00 24.35833 C 11.32 g/m*3 24.36 C 10.75833 km/h
20 17-07-2020 19:00:00 24.3 C 11.78 g/m*3 24.3 C 10.225 km/h
21 17-07-2020 20:00:00 22.58333 C 11.82 g/m*3 22.58 C 6.56667 km/h
22 17-07-2020 21:00:00 20.50833 C 12.11 g/m*3 20.51 C 3.2 km/h
23 17-07-2020 22:00:00 17.84167 C 12.2 g/m*3 17.84 C 3.73333 km/h
24 17-07-2020 23:00:00 16.525 C 12.06 g/m*3 16.52 C 4 km/h
25 18-07-2020 00:00:00 15.45833 C 11.67 g/m*3 15.46 C 0.8 km/h
Sensor: Nr:Datum:Temp:Abs-Feuchte:Windchill:Wind:
Aussen-T/F 26 18-07-2020 01:00:00 14.375 C 11.27 g/m*3 14.38 C 0 km/h
27 18-07-2020 02:00:00 13.75 C 11.08 g/m*3 13.75 C 0 km/h
28 18-07-2020 03:00:00 13.20833 C 10.8 g/m*3 13.21 C 0 km/h
29 18-07-2020 04:00:00 12.84167 C 10.63 g/m*3 12.84 C 0 km/h
30 18-07-2020 05:00:00 13.10833 C 10.86 g/m*3 13.11 C 0 km/h
31 18-07-2020 06:00:00 13.475 C 11.21 g/m*3 13.48 C 0 km/h
32 18-07-2020 07:00:00 13.8 C 11.37 g/m*3 13.8 C 0 km/h
33 18-07-2020 08:00:00 14.09167 C 11.58 g/m*3 14.09 C 0 km/h
34 18-07-2020 09:00:00 15.55 C 12.56 g/m*3 15.55 C 0 km/h
35 18-07-2020 10:00:00 18.28333 C 13.65 g/m*3 18.28 C 0 km/h
36 18-07-2020 11:00:00 21.925 C 13.09 g/m*3 21.93 C 2.96667 km/h
37 18-07-2020 12:00:00 23 C 12.35 g/m*3 23 C 4.26667 km/h
38 18-07-2020 13:00:00 23.84167 C 12.27 g/m*3 23.84 C 5.225 km/h
39 18-07-2020 14:00:00 24.11667 C 12.96 g/m*3 24.12 C 3.60833 km/h
40 18-07-2020 15:00:00 24.15 C 13.48 g/m*3 24.15 C 1.33333 km/h
41 18-07-2020 16:00:00 26.45833 C 11.97 g/m*3 26.46 C 5.35 km/h
42 18-07-2020 17:00:00 26.11667 C 11.88 g/m*3 26.12 C 4.81667 km/h
43 18-07-2020 18:00:00 26.73333 C 11.86 g/m*3 26.73 C 4.96667 km/h
44 18-07-2020 19:00:00 27.91667 C 11.62 g/m*3 27.92 C 6.04167 km/h
45 18-07-2020 20:00:00 26.54167 C 12.65 g/m*3 26.54 C 3.6 km/h
46 18-07-2020 21:00:00 21.56667 C 12.52 g/m*3 21.57 C 7.25 km/h
47 18-07-2020 22:00:00 19.65833 C 12.31 g/m*3 19.66 C 6.425 km/h
48 18-07-2020 23:00:00 18.5 C 12.22 g/m*3 18.5 C 2 km/h
49 19-07-2020 00:00:00 17 C 11.96 g/m*3 17 C 0 km/h
50 19-07-2020 01:00:00 15.85 C 11.53 g/m*3 15.85 C 0 km/h
Sensor: Nr:Datum:Temp:Abs-Feuchte:Windchill:Wind:
Aussen-T/F 51 19-07-2020 02:00:00 14.975 C 11.18 g/m*3 14.98 C 0 km/h
52 19-07-2020 03:00:00 14.45 C 11.1 g/m*3 14.45 C 0 km/h
53 19-07-2020 04:00:00 14.6 C 11.26 g/m*3 14.6 C 0 km/h
54 19-07-2020 05:00:00 14.76667 C 11.45 g/m*3 14.77 C 0 km/h
55 19-07-2020 06:00:00 15.23333 C 11.74 g/m*3 15.23 C 0 km/h
56 19-07-2020 07:00:00 15.89167 C 12.13 g/m*3 15.89 C 0 km/h
57 19-07-2020 08:00:00 16.66667 C 12.61 g/m*3 16.67 C 0 km/h
58 19-07-2020 09:00:00 18.80833 C 13.66 g/m*3 18.81 C 0 km/h
59 19-07-2020 10:00:00 21.39167 C 13.77 g/m*3 21.39 C 0.53333 km/h
60 19-07-2020 11:00:00 25.28333 C 12.06 g/m*3 25.28 C 8.31667 km/h
61 19-07-2020 12:00:00 26.88333 C 11.49 g/m*3 26.88 C 11.69167 km/h
62 19-07-2020 13:00:00 27.80833 C 11.44 g/m*3 27.81 C 10.225 km/h
63 19-07-2020 14:00:00 28.33333 C 10.78 g/m*3 28.33 C 12.9 km/h
64 19-07-2020 15:00:00 29.80833 C 10.23 g/m*3 29.81 C 10.35833 km/h
65 19-07-2020 16:00:00 29.775 C 10.68 g/m*3 29.78 C 9.025 km/h
66 19-07-2020 17:00:00 31.25 C 10.14 g/m*3 31.25 C 11.41667 km/h
67 19-07-2020 18:00:00 30.59167 C 10.41 g/m*3 30.59 C 5.75833 km/h
68 19-07-2020 19:00:00 29.16667 C 12.66 g/m*3 29.17 C 2.8 km/h
69 19-07-2020 20:00:00 27.55 C 11.89 g/m*3 27.55 C 5.75833 km/h
70 19-07-2020 21:00:00 24.98333 C 11.92 g/m*3 24.98 C 3.875 km/h
71 19-07-2020 22:00:00 22.81667 C 10.93 g/m*3 22.82 C 5.075 km/h
72 19-07-2020 23:00:00 21.425 C 10.26 g/m*3 21.43 C 4.95 km/h
73 20-07-2020 00:00:00 19.93333 C 10.13 g/m*3 19.93 C 3.2 km/h
74 20-07-2020 01:00:00 18.44167 C 10.38 g/m*3 18.44 C 3.2 km/h
75 20-07-2020 02:00:00 18.2 C 11.2 g/m*3 18.2 C 3.875 km/h
Sensor: Nr:Datum:Temp:Abs-Feuchte:Windchill:Wind:
Aussen-T/F 76 20-07-2020 03:00:00 17.625 C 11.77 g/m*3 17.63 C 1.86667 km/h
77 20-07-2020 04:00:00 16.45833 C 11.84 g/m*3 16.46 C 0 km/h
78 20-07-2020 05:00:00 15.90833 C 11.97 g/m*3 15.91 C 0.66667 km/h
79 20-07-2020 06:00:00 16.38333 C 12.78 g/m*3 16.38 C 2.8 km/h
80 20-07-2020 07:00:00 17.33333 C 13.37 g/m*3 17.33 C 0.66667 km/h
81 20-07-2020 08:00:00 17.94167 C 13.44 g/m*3 17.94 C 6.58333 km/h
82 20-07-2020 09:00:00 17.74167 C 13.31 g/m*3 17.74 C 5.09167 km/h
83 20-07-2020 10:00:00 17.80833 C 13.08 g/m*3 17.81 C 1.46667 km/h
84 20-07-2020 11:00:00 19.15 C 13.21 g/m*3 19.15 C 6.975 km/h
85 20-07-2020 12:00:00 20.01667 C 12.84 g/m*3 20.02 C 11.43333 km/h
86 20-07-2020 13:00:00 20.975 C 12.77 g/m*3 20.98 C 9.425 km/h
87 20-07-2020 14:00:00 21.65833 C 12.62 g/m*3 21.66 C 12.1 km/h
88 20-07-2020 15:00:00 22.53333 C 12.42 g/m*3 22.53 C 11.83333 km/h
89 20-07-2020 16:00:00 23.25833 C 12.29 g/m*3 23.26 C 11.83333 km/h
90 20-07-2020 17:00:00 23.925 C 11.83 g/m*3 23.93 C 12.5 km/h
91 20-07-2020 18:00:00 23.83333 C 11.35 g/m*3 23.83 C 13.03333 km/h
92 20-07-2020 19:00:00 22.625 C 10.8 g/m*3 22.63 C 10.89167 km/h
93 20-07-2020 20:00:00 21.40833 C 10.1 g/m*3 21.41 C 8.74167 km/h
94 20-07-2020 21:00:00 19.76667 C 10.11 g/m*3 19.77 C 1.33333 km/h
95 20-07-2020 22:00:00 17.24167 C 10.01 g/m*3 17.24 C 3.2 km/h
96 20-07-2020 23:00:00 16.08333 C 9.96 g/m*3 16.08 C 0.93333 km/h
97 21-07-2020 00:00:00 14.75 C 9.53 g/m*3 14.75 C 3.33333 km/h
98 21-07-2020 01:00:00 13.58333 C 9.3 g/m*3 13.58 C 2.26667 km/h
99 21-07-2020 02:00:00 13.45833 C 9.18 g/m*3 13.46 C 3.33333 km/h
100 21-07-2020 03:00:00 13.15833 C 9.16 g/m*3 13.16 C 3.46667 km/h
Sensor: Nr:Datum:Temp:Abs-Feuchte:Windchill:Wind:
Aussen-T/F 101 21-07-2020 04:00:00 12.81667 C 9.09 g/m*3 12.82 C 1.46667 km/h
102 21-07-2020 05:00:00 12.65833 C 8.99 g/m*3 12.66 C 2.8 km/h
103 21-07-2020 06:00:00 11.625 C 8.75 g/m*3 11.63 C 2.4 km/h
104 21-07-2020 07:00:00 11.675 C 8.99 g/m*3 11.68 C 2.66667 km/h
105 21-07-2020 08:00:00 13.38333 C 9.45 g/m*3 13.38 C 3.2 km/h
106 21-07-2020 09:00:00 14.85833 C 9.92 g/m*3 14.86 C 4.13333 km/h
107 21-07-2020 10:00:00 17.225 C 10.3 g/m*3 17.23 C 5.35 km/h
108 21-07-2020 11:00:00 19.325 C 9.8 g/m*3 19.33 C 11.025 km/h
109 21-07-2020 12:00:00 20.26667 C 9.7 g/m*3 20.27 C 11.69167 km/h
110 21-07-2020 13:00:00 20.68333 C 8.92 g/m*3 20.68 C 12.23333 km/h
111 21-07-2020 14:00:00 21.51667 C 8.76 g/m*3 21.52 C 12.625 km/h
112 21-07-2020 15:00:00 23.01667 C 8.8 g/m*3 23.02 C 13.83333 km/h
113 21-07-2020 16:00:00 24.40833 C 8.72 g/m*3 24.41 C 13.16667 km/h
114 21-07-2020 17:00:00 24.85833 C 8.32 g/m*3 24.86 C 12.9 km/h
115 21-07-2020 18:00:00 24.80833 C 8.24 g/m*3 24.81 C 12.1 km/h
116 21-07-2020 19:00:00 23.59167 C 7.85 g/m*3 23.59 C 10.89167 km/h
117 21-07-2020 20:00:00 22.09167 C 7.61 g/m*3 22.09 C 7.675 km/h
118 21-07-2020 21:00:00 18.99167 C 8.14 g/m*3 18.99 C 2.8 km/h
119 21-07-2020 22:00:00 15.925 C 8.23 g/m*3 15.93 C 5.475 km/h
120 21-07-2020 23:00:00 14.85833 C 8.48 g/m*3 14.86 C 3.06667 km/h
121 22-07-2020 00:00:00 13.425 C 8.52 g/m*3 13.43 C 0 km/h
122 22-07-2020 01:00:00 12.00833 C 8.33 g/m*3 12.01 C 0 km/h
123 22-07-2020 02:00:00 11.025 C 8.15 g/m*3 11.03 C 0 km/h
124 22-07-2020 03:00:00 10.30833 C 8.07 g/m*3 10.31 C 0 km/h
125 22-07-2020 04:00:00 9.65833 C 7.99 g/m*3 9.66 C 0 km/h
Sensor: Nr:Datum:Temp:Abs-Feuchte:Windchill:Wind:
Aussen-T/F 126 22-07-2020 05:00:00 9.24167 C 7.95 g/m*3 9.24 C 0 km/h
127 22-07-2020 06:00:00 9.14167 C 8.08 g/m*3 9.14 C 0 km/h
128 22-07-2020 07:00:00 9.525 C 8.4 g/m*3 9.53 C 0 km/h
129 22-07-2020 08:00:00 10.925 C 9.25 g/m*3 10.93 C 0 km/h
130 22-07-2020 09:00:00 12.79167 C 9.83 g/m*3 12.79 C 1.06667 km/h
131 22-07-2020 10:00:00 16.1 C 9.95 g/m*3 16.1 C 3.2 km/h
132 22-07-2020 11:00:00 19.21667 C 9.06 g/m*3 19.22 C 4.41667 km/h
133 22-07-2020 12:00:00 20.78333 C 8.05 g/m*3 20.78 C 7.38333 km/h
134 22-07-2020 13:00:00 21.925 C 7.7 g/m*3 21.93 C 8.74167 km/h
135 22-07-2020 14:00:00 23.10833 C 7.67 g/m*3 23.11 C 8.325 km/h
136 22-07-2020 15:00:00 24.5 C 8.04 g/m*3 24.5 C 10.75 km/h
137 22-07-2020 16:00:00 25.99167 C 8.72 g/m*3 25.99 C 12.1 km/h
138 22-07-2020 17:00:00 25.66667 C 8.58 g/m*3 25.67 C 12.76667 km/h
139 22-07-2020 18:00:00 24.83333 C 8.7 g/m*3 24.83 C 12.36667 km/h
140 22-07-2020 19:00:00 23.825 C 8.92 g/m*3 23.83 C 11.7 km/h
141 22-07-2020 20:00:00 22.64167 C 8.96 g/m*3 22.64 C 10.08333 km/h
142 22-07-2020 21:00:00 20.56667 C 9.07 g/m*3 20.57 C 3.61667 km/h
143 22-07-2020 22:00:00 17.64167 C 9.01 g/m*3 17.64 C 4.13333 km/h
144 22-07-2020 23:00:00 16.33333 C 8.93 g/m*3 16.33 C 2.8 km/h
145 23-07-2020 00:00:00 15.325 C 8.99 g/m*3 15.33 C 2 km/h
146 23-07-2020 01:00:00 14.78333 C 9.05 g/m*3 14.78 C 2.66667 km/h
147 23-07-2020 02:00:00 13.79167 C 8.96 g/m*3 13.79 C 1.2 km/h
148 23-07-2020 03:00:00 13.33333 C 8.9 g/m*3 13.33 C 0.53333 km/h
149 23-07-2020 04:00:00 12.30833 C 8.7 g/m*3 12.31 C 0 km/h
150 23-07-2020 05:00:00 11.1 C 8.48 g/m*3 11.1 C 0 km/h
Sensor: Nr:Datum:Temp:Abs-Feuchte:Windchill:Wind:
Aussen-T/F 151 23-07-2020 06:00:00 10.625 C 8.53 g/m*3 10.63 C 0.13333 km/h
152 23-07-2020 07:00:00 10.725 C 8.75 g/m*3 10.73 C 0 km/h
153 23-07-2020 08:00:00 11.66667 C 9.29 g/m*3 11.67 C 0 km/h
154 23-07-2020 09:00:00 13.79167 C 9.81 g/m*3 13.79 C 0.66667 km/h
155 23-07-2020 10:00:00 17.15833 C 9.63 g/m*3 17.16 C 3.2 km/h
156 23-07-2020 11:00:00 20.01667 C 9.08 g/m*3 20.02 C 7.24167 km/h
157 23-07-2020 12:00:00 21.24167 C 8.61 g/m*3 21.24 C 9.525 km/h
158 23-07-2020 13:00:00 22.33333 C 8.28 g/m*3 22.33 C 9.26667 km/h
159 23-07-2020 14:00:00 23.6 C 8.29 g/m*3 23.6 C 9.26667 km/h
160 23-07-2020 15:00:00 25.15833 C 8.48 g/m*3 25.16 C 9.275 km/h
161 23-07-2020 16:00:00 26.99167 C 8.68 g/m*3 26.99 C 7.93333 km/h
162 23-07-2020 17:00:00 27.95 C 8.81 g/m*3 27.95 C 7.23333 km/h
163 23-07-2020 18:00:00 27.975 C 8.8 g/m*3 27.98 C 6.44167 km/h
164 23-07-2020 19:00:00 27.025 C 9.02 g/m*3 27.03 C 3.2 km/h
165 23-07-2020 20:00:00 23.73333 C 10.18 g/m*3 23.73 C 3.2 km/h
166 23-07-2020 21:00:00 21.56667 C 9.91 g/m*3 21.57 C 4.53333 km/h
167 23-07-2020 22:00:00 20.65 C 10.4 g/m*3 20.65 C 2.13333 km/h
168 23-07-2020 23:00:00 19.45833 C 10.51 g/m*3 19.46 C 0 km/h
169 24-07-2020 00:00:00 18.75 C 10.5 g/m*3 18.75 C 0 km/h
170 24-07-2020 01:00:00 18.225 C 10.36 g/m*3 18.23 C 1.6 km/h
171 24-07-2020 02:00:00 17.46667 C 10.17 g/m*3 17.47 C 0.66667 km/h
172 24-07-2020 03:00:00 16.41667 C 10.05 g/m*3 16.42 C 0.4 km/h
173 24-07-2020 04:00:00 16.34167 C 10.22 g/m*3 16.34 C 2.54167 km/h
174 24-07-2020 05:00:00 16.44167 C 10.42 g/m*3 16.44 C 1.06667 km/h
175 24-07-2020 06:00:00 15.79167 C 10.38 g/m*3 15.79 C 0.13333 km/h
Sensor: Nr:Datum:Temp:Abs-Feuchte:Windchill:Wind:
Aussen-T/F 176 24-07-2020 07:00:00 17.04167 C 10.84 g/m*3 17.04 C 4.13333 km/h
177 24-07-2020 08:00:00 18.43333 C 10.98 g/m*3 18.43 C 8.05833 km/h
178 24-07-2020 09:00:00 20.34167 C 10.95 g/m*3 20.34 C 4.53333 km/h
179 24-07-2020 10:00:00 22.28333 C 10.55 g/m*3 22.28 C 2.66667 km/h
180 24-07-2020 11:00:00 23.28333 C 10.37 g/m*3 23.28 C 6.56667 km/h
181 24-07-2020 12:00:00 24.59167 C 10.01 g/m*3 24.59 C 14.75833 km/h
182 24-07-2020 13:00:00 25.65 C 9.63 g/m*3 25.65 C 12.35833 km/h
183 24-07-2020 14:00:00 25.55833 C 9.82 g/m*3 25.56 C 10.09167 km/h
184 24-07-2020 15:00:00 24.875 C 10.1 g/m*3 24.88 C 9.54167 km/h
185 24-07-2020 16:00:00 24.85 C 10.46 g/m*3 24.85 C 8.6 km/h
186 24-07-2020 17:00:00 25.76667 C 10.49 g/m*3 25.77 C 7.65833 km/h
187 24-07-2020 18:00:00 25.575 C 10.94 g/m*3 25.58 C 9.69167 km/h
188 24-07-2020 19:00:00 24.25 C 11.68 g/m*3 24.25 C 9.26667 km/h
189 24-07-2020 20:00:00 23.95 C 11.99 g/m*3 23.95 C 3.46667 km/h
190 24-07-2020 21:00:00 21.13333 C 11.89 g/m*3 21.13 C 5.74167 km/h
191 24-07-2020 22:00:00 20.85 C 12.15 g/m*3 20.85 C 2.93333 km/h
192 24-07-2020 23:00:00 21.175 C 12.71 g/m*3 21.18 C 6.56667 km/h
193 25-07-2020 00:00:00 19.96667 C 12.98 g/m*3 19.97 C 0.66667 km/h
194 25-07-2020 01:00:00 18.9 C 12.78 g/m*3 18.9 C 2.26667 km/h
195 25-07-2020 02:00:00 17.68333 C 12.4 g/m*3 17.68 C 3.73333 km/h
196 25-07-2020 03:00:00 16.475 C 11.88 g/m*3 16.48 C 3.2 km/h
197 25-07-2020 04:00:00 15.28333 C 11.37 g/m*3 15.28 C 0.66667 km/h
198 25-07-2020 05:00:00 14.55 C 11.19 g/m*3 14.55 C 1.46667 km/h
199 25-07-2020 06:00:00 14.675 C 11.45 g/m*3 14.68 C 1.2 km/h
200 25-07-2020 07:00:00 15.84167 C 12.17 g/m*3 15.84 C 1.86667 km/h
Sensor: Nr:Datum:Temp:Abs-Feuchte:Windchill:Wind:
Aussen-T/F 201 25-07-2020 08:00:00 17.48333 C 12.64 g/m*3 17.48 C 2.13333 km/h
202 25-07-2020 09:00:00 18.63333 C 13.04 g/m*3 18.63 C 2.53333 km/h
203 25-07-2020 10:00:00 20.68333 C 13.2 g/m*3 20.68 C 8.75833 km/h
204 25-07-2020 11:00:00 22.55833 C 12.68 g/m*3 22.56 C 12.63333 km/h
205 25-07-2020 12:00:00 24.20833 C 12.25 g/m*3 24.21 C 13.15833 km/h
206 25-07-2020 13:00:00 25.34167 C 11.99 g/m*3 25.34 C 14.49167 km/h
207 25-07-2020 14:00:00 25.33333 C 11.57 g/m*3 25.33 C 15.16667 km/h
208 25-07-2020 15:00:00 25.84167 C 11.54 g/m*3 25.84 C 12.35833 km/h
209 25-07-2020 16:00:00 26.85 C 11.04 g/m*3 26.85 C 10.9 km/h
210 25-07-2020 17:00:00 25.85 C 11 g/m*3 25.85 C 8.2 km/h
211 25-07-2020 18:00:00 25.63333 C 11.79 g/m*3 25.63 C 3.875 km/h
212 25-07-2020 19:00:00 26.1 C 11.87 g/m*3 26.1 C 5.36667 km/h
213 25-07-2020 20:00:00 24.28333 C 12.51 g/m*3 24.28 C 4.66667 km/h
214 25-07-2020 21:00:00 22.00833 C 12.14 g/m*3 22.01 C 6.00833 km/h
215 25-07-2020 22:00:00 20.53333 C 11.9 g/m*3 20.53 C 4.4 km/h
216 25-07-2020 23:00:00 19.65833 C 12.21 g/m*3 19.66 C 0.8 km/h
217 26-07-2020 00:00:00 19.16667 C 12.43 g/m*3 19.17 C 0 km/h
218 26-07-2020 01:00:00 19.60833 C 12.78 g/m*3 19.61 C 5.24167 km/h
219 26-07-2020 02:00:00 19.34167 C 13.84 g/m*3 19.34 C 7.64167 km/h
220 26-07-2020 03:00:00 18.2 C 13.96 g/m*3 18.2 C 4.00833 km/h
221 26-07-2020 04:00:00 17.60833 C 13.83 g/m*3 17.61 C 3.06667 km/h
222 26-07-2020 05:00:00 17.21667 C 13.71 g/m*3 17.22 C 2.4 km/h
223 26-07-2020 06:00:00 17.13333 C 13.71 g/m*3 17.13 C 2.4 km/h
224 26-07-2020 07:00:00 18.36667 C 13.98 g/m*3 18.37 C 7.93333 km/h
225 26-07-2020 08:00:00 19.59167 C 13.79 g/m*3 19.59 C 13.15833 km/h
Sensor: Nr:Datum:Temp:Abs-Feuchte:Windchill:Wind:
Aussen-T/F 226 26-07-2020 09:00:00 20.6 C 13.98 g/m*3 20.6 C 11.95833 km/h
227 26-07-2020 10:00:00 21.18333 C 13.56 g/m*3 21.18 C 15.03333 km/h
228 26-07-2020 11:00:00 22.11667 C 13.76 g/m*3 22.12 C 12.5 km/h
229 26-07-2020 12:00:00 21.15833 C 14.04 g/m*3 21.16 C 14.08333 km/h
230 26-07-2020 13:00:00 20.85 C 13.77 g/m*3 20.85 C 11.025 km/h
231 26-07-2020 14:00:00 23.59167 C 11.51 g/m*3 23.59 C 14.76667 km/h
232 26-07-2020 15:00:00 24.50833 C 11.16 g/m*3 24.51 C 15.43333 km/h
233 26-07-2020 16:00:00 25.625 C 10.67 g/m*3 25.63 C 13.56667 km/h
234 26-07-2020 17:00:00 26.3 C 10.25 g/m*3 26.3 C 13.96667 km/h
235 26-07-2020 18:00:00 26.1 C 10.24 g/m*3 26.1 C 13.56667 km/h
236 26-07-2020 19:00:00 23.94167 C 10.52 g/m*3 23.94 C 13.43333 km/h
237 26-07-2020 20:00:00 22.14167 C 10.96 g/m*3 22.14 C 3.88333 km/h
238 26-07-2020 21:00:00 20.58333 C 11.41 g/m*3 20.58 C 1.33333 km/h
239 26-07-2020 22:00:00 18.76667 C 11.16 g/m*3 18.77 C 3.86667 km/h
240 26-07-2020 23:00:00 17.34167 C 11.16 g/m*3 17.34 C 1.06667 km/h
241 27-07-2020 00:00:00 16.64167 C 11.32 g/m*3 16.64 C 0 km/h
242 27-07-2020 01:00:00 15.41667 C 10.75 g/m*3 15.42 C 0 km/h
243 27-07-2020 02:00:00 14.35833 C 10.49 g/m*3 14.36 C 0 km/h
244 27-07-2020 03:00:00 13.5 C 10.23 g/m*3 13.5 C 0 km/h
245 27-07-2020 04:00:00 12.85 C 10.05 g/m*3 12.85 C 0 km/h
246 27-07-2020 05:00:00 12.78333 C 10.29 g/m*3 12.78 C 0 km/h
247 27-07-2020 06:00:00 12.86667 C 10.38 g/m*3 12.87 C 0 km/h
248 27-07-2020 07:00:00 13.64167 C 10.91 g/m*3 13.64 C 0.4 km/h
249 27-07-2020 08:00:00 15.39167 C 11.63 g/m*3 15.39 C 0.13333 km/h
250 27-07-2020 09:00:00 17.2 C 12.08 g/m*3 17.2 C 1.2 km/h
Sensor: Nr:Datum:Temp:Abs-Feuchte:Windchill:Wind:
Aussen-T/F 251 27-07-2020 10:00:00 19.9 C 13.07 g/m*3 19.9 C 1.86667 km/h
252 27-07-2020 11:00:00 22.79167 C 13.15 g/m*3 22.79 C 2.93333 km/h
253 27-07-2020 12:00:00 24.79167 C 12.29 g/m*3 24.79 C 8.85833 km/h
254 27-07-2020 13:00:00 26.49167 C 10.93 g/m*3 26.49 C 11.425 km/h
255 27-07-2020 14:00:00 27.43333 C 11.86 g/m*3 27.43 C 10.75 km/h
256 27-07-2020 15:00:00 29.06667 C 11.53 g/m*3 29.07 C 9.95 km/h
257 27-07-2020 16:00:00 28.9 C 10.69 g/m*3 28.9 C 8.85833 km/h
258 27-07-2020 17:00:00 31.65 C 10.11 g/m*3 31.65 C 14.625 km/h
259 27-07-2020 18:00:00 31.275 C 10.1 g/m*3 31.28 C 10.48333 km/h
260 27-07-2020 19:00:00 30.54167 C 11.81 g/m*3 30.54 C 2.66667 km/h
261 27-07-2020 20:00:00 28.575 C 12.44 g/m*3 28.58 C 5.475 km/h
262 27-07-2020 21:00:00 26.09167 C 11.87 g/m*3 26.09 C 6.54167 km/h
263 27-07-2020 22:00:00 24.54167 C 11.7 g/m*3 24.54 C 3.20833 km/h
264 27-07-2020 23:00:00 23.19167 C 11.97 g/m*3 23.19 C 0 km/h
265 28-07-2020 00:00:00 21.54167 C 11.58 g/m*3 21.54 C 0 km/h
266 28-07-2020 01:00:00 21.90833 C 11.74 g/m*3 21.91 C 0 km/h
267 28-07-2020 02:00:00 22.19167 C 11.76 g/m*3 22.19 C 2.26667 km/h
268 28-07-2020 03:00:00 21.16667 C 11.56 g/m*3 21.17 C 1.33333 km/h
269 28-07-2020 04:00:00 20.19167 C 11.49 g/m*3 20.19 C 4.54167 km/h
270 28-07-2020 05:00:00 20.075 C 11.17 g/m*3 20.08 C 2.55 km/h
271 28-07-2020 06:00:00 19.7 C 11.65 g/m*3 19.7 C 0.26667 km/h
272 28-07-2020 07:00:00 20.35 C 12.1 g/m*3 20.35 C 2.94167 km/h
273 28-07-2020 08:00:00 21.71667 C 12.89 g/m*3 21.72 C 8.18333 km/h
274 28-07-2020 09:00:00 22.54167 C 13.35 g/m*3 22.54 C 12.9 km/h
275 28-07-2020 10:00:00 23.03333 C 12.6 g/m*3 23.03 C 16.1 km/h
Sensor: Nr:Datum:Temp:Abs-Feuchte:Windchill:Wind:
Aussen-T/F 276 28-07-2020 11:00:00 23.83333 C 12.19 g/m*3 23.83 C 15.83333 km/h
277 28-07-2020 12:00:00 24.425 C 11.83 g/m*3 24.43 C 16.1 km/h
278 28-07-2020 13:00:00 25.56667 C 11.07 g/m*3 25.57 C 17.96667 km/h
279 28-07-2020 14:00:00 25.93333 C 10.63 g/m*3 25.93 C 15.43333 km/h
280 28-07-2020 15:00:00 26.26667 C 10.11 g/m*3 26.27 C 13.95833 km/h
281 28-07-2020 16:00:00 27.025 C 10.14 g/m*3 27.03 C 13.96667 km/h
282 28-07-2020 17:00:00 27.4 C 9.71 g/m*3 27.4 C 15.96667 km/h
283 28-07-2020 18:00:00 27.275 C 9.56 g/m*3 27.28 C 13.56667 km/h
284 28-07-2020 19:00:00 25.625 C 9.24 g/m*3 25.63 C 15.7 km/h
285 28-07-2020 20:00:00 23.18333 C 8.9 g/m*3 23.18 C 11.56667 km/h
286 28-07-2020 21:00:00 21.01667 C 8.95 g/m*3 21.02 C 5.89167 km/h
287 28-07-2020 22:00:00 19.30833 C 9.04 g/m*3 19.31 C 4.69167 km/h
288 28-07-2020 23:00:00 18.66667 C 9.28 g/m*3 18.67 C 3.21667 km/h
289 29-07-2020 00:00:00 16.475 C 9.3 g/m*3 16.48 C 1.86667 km/h
290 29-07-2020 01:00:00 15.94167 C 9.93 g/m*3 15.94 C 3.875 km/h
291 29-07-2020 02:00:00 15.18333 C 9.85 g/m*3 15.18 C 3.6 km/h
292 29-07-2020 03:00:00 13.625 C 9.5 g/m*3 13.63 C 0 km/h
293 29-07-2020 04:00:00 12.425 C 9.33 g/m*3 12.43 C 1.33333 km/h
294 29-07-2020 05:00:00 11.70833 C 9.16 g/m*3 11.71 C 0.13333 km/h
295 29-07-2020 06:00:00 11.7 C 9.23 g/m*3 11.7 C 1.86667 km/h
296 29-07-2020 07:00:00 12.03333 C 9.37 g/m*3 12.03 C 3.46667 km/h
297 29-07-2020 08:00:00 13.1 C 9.79 g/m*3 13.1 C 2.53333 km/h
298 29-07-2020 09:00:00 15.5 C 10.13 g/m*3 15.5 C 3.86667 km/h
299 29-07-2020 10:00:00 18.125 C 10.03 g/m*3 18.13 C 4.95 km/h
300 29-07-2020 11:00:00 20.34167 C 9.99 g/m*3 20.34 C 8.85833 km/h
Sensor: Nr:Datum:Temp:Abs-Feuchte:Windchill:Wind:
Aussen-T/F 301 29-07-2020 12:00:00 21.3 C 9.69 g/m*3 21.3 C 10.225 km/h
302 29-07-2020 13:00:00 22.13333 C 9.24 g/m*3 22.13 C 9.54167 km/h
303 29-07-2020 14:00:00 23.725 C 8.96 g/m*3 23.73 C 8.46667 km/h
304 29-07-2020 15:00:00 25.4 C 8.95 g/m*3 25.4 C 8.875 km/h
305 29-07-2020 16:00:00 26.7 C 9.13 g/m*3 26.7 C 11.83333 km/h
306 29-07-2020 17:00:00 26.99167 C 9.11 g/m*3 26.99 C 10.9 km/h
307 29-07-2020 18:00:00 26.90833 C 9.22 g/m*3 26.91 C 11.03333 km/h
308 29-07-2020 19:00:00 25.675 C 9.44 g/m*3 25.68 C 10.49167 km/h
309 29-07-2020 20:00:00 23.55 C 9.46 g/m*3 23.55 C 10.89167 km/h
310 29-07-2020 21:00:00 21.25 C 9.57 g/m*3 21.25 C 2.54167 km/h
311 29-07-2020 22:00:00 18.10833 C 9.44 g/m*3 18.11 C 0.13333 km/h
312 29-07-2020 23:00:00 16.8 C 9.5 g/m*3 16.8 C 0 km/h
313 30-07-2020 00:00:00 15.30833 C 9.46 g/m*3 15.31 C 0 km/h
314 30-07-2020 01:00:00 14.05833 C 9.33 g/m*3 14.06 C 0 km/h
315 30-07-2020 02:00:00 13.23333 C 9.21 g/m*3 13.23 C 0 km/h
316 30-07-2020 03:00:00 12.50833 C 9.11 g/m*3 12.51 C 0 km/h
317 30-07-2020 04:00:00 11.88333 C 9 g/m*3 11.88 C 0 km/h
318 30-07-2020 05:00:00 11.425 C 8.94 g/m*3 11.43 C 0 km/h
319 30-07-2020 06:00:00 11.18333 C 8.96 g/m*3 11.18 C 0 km/h
320 30-07-2020 07:00:00 11.65833 C 9.34 g/m*3 11.66 C 0 km/h
321 30-07-2020 08:00:00 12.58333 C 9.83 g/m*3 12.58 C 0 km/h
322 30-07-2020 09:00:00 14.55833 C 10.57 g/m*3 14.56 C 0.13333 km/h
323 30-07-2020 10:00:00 18.74167 C 10.87 g/m*3 18.74 C 3.74167 km/h
324 30-07-2020 11:00:00 22.01667 C 10.68 g/m*3 22.02 C 4.80833 km/h
325 30-07-2020 12:00:00 23.54167 C 10.4 g/m*3 23.54 C 7.38333 km/h
Sensor: Nr:Datum:Temp:Abs-Feuchte:Windchill:Wind:
Aussen-T/F 326 30-07-2020 13:00:00 24.925 C 9.78 g/m*3 24.93 C 8.05 km/h
327 30-07-2020 14:00:00 26.43333 C 9.56 g/m*3 26.43 C 8.86667 km/h
328 30-07-2020 15:00:00 28.15833 C 9.58 g/m*3 28.16 C 9.95 km/h
329 30-07-2020 16:00:00 30.00833 C 8.9 g/m*3 30.01 C 8.475 km/h
330 30-07-2020 17:00:00 31.15833 C 8.77 g/m*3 31.16 C 6.95833 km/h
331 30-07-2020 18:00:00 31.74167 C 8.69 g/m*3 31.74 C 7.79167 km/h
332 30-07-2020 19:00:00 30.46667 C 8.63 g/m*3 30.47 C 8.61667 km/h
333 30-07-2020 20:00:00 28.75 C 9.52 g/m*3 28.75 C 3.60833 km/h
334 30-07-2020 21:00:00 24.4 C 9.9 g/m*3 24.4 C 4.26667 km/h
335 30-07-2020 22:00:00 21.8 C 9.59 g/m*3 21.8 C 2.8 km/h
336 30-07-2020 23:00:00 19.8 C 9.76 g/m*3 19.8 C 0.4 km/h
337 31-07-2020 00:00:00 18.05833 C 9.58 g/m*3 18.06 C 0 km/h
338 31-07-2020 01:00:00 16.85833 C 9.48 g/m*3 16.86 C 0 km/h
339 31-07-2020 02:00:00 15.76667 C 9.46 g/m*3 15.77 C 0 km/h
340 31-07-2020 03:00:00 14.99167 C 9.52 g/m*3 14.99 C 0 km/h
341 31-07-2020 04:00:00 14.15 C 9.54 g/m*3 14.15 C 0 km/h
342 31-07-2020 05:00:00 13.54167 C 9.54 g/m*3 13.54 C 0 km/h
343 31-07-2020 06:00:00 13.23333 C 9.63 g/m*3 13.23 C 0.13333 km/h
344 31-07-2020 07:00:00 13.45833 C 9.9 g/m*3 13.46 C 0 km/h
345 31-07-2020 08:00:00 14.39167 C 10.42 g/m*3 14.39 C 0.13333 km/h
346 31-07-2020 09:00:00 16.38333 C 11.11 g/m*3 16.38 C 0.4 km/h
347 31-07-2020 10:00:00 20.825 C 11.3 g/m*3 20.83 C 2.13333 km/h
348 31-07-2020 11:00:00 25.40833 C 11.05 g/m*3 25.41 C 5.90833 km/h
349 31-07-2020 12:00:00 29.4 C 10.23 g/m*3 29.4 C 14.76667 km/h
350 31-07-2020 13:00:00 30.825 C 10.49 g/m*3 30.83 C 10.1 km/h
Sensor: Nr:Datum:Temp:Abs-Feuchte:Windchill:Wind:
Aussen-T/F 351 31-07-2020 14:00:00 32.25833 C 10.58 g/m*3 32.26 C 8.34167 km/h
352 31-07-2020 15:00:00 34.3 C 10.32 g/m*3 34.3 C 8.46667 km/h
353 31-07-2020 16:00:00 36.68333 C 10.35 g/m*3 36.68 C 7.51667 km/h
354 31-07-2020 17:00:00 37.475 C 10.25 g/m*3 37.48 C 8.06667 km/h
355 31-07-2020 18:00:00 37.51667 C 9.71 g/m*3 37.52 C 8.2 km/h
356 31-07-2020 19:00:00 36.10833 C 10.05 g/m*3 36.11 C 5.35 km/h
357 31-07-2020 20:00:00 33.38333 C 11.38 g/m*3 33.38 C 3.73333 km/h
358 31-07-2020 21:00:00 27.14167 C 11.22 g/m*3 27.14 C 7.39167 km/h
359 31-07-2020 22:00:00 24.775 C 11.02 g/m*3 24.78 C 3.74167 km/h
360 31-07-2020 23:00:00 22.90833 C 11.18 g/m*3 22.91 C 1.73333 km/h
361 01-08-2020 00:00:00 21.03333 C 11.26 g/m*3 21.03 C 0.13333 km/h
362 01-08-2020 01:00:00 19.66667 C 11.48 g/m*3 19.67 C 0 km/h
363 01-08-2020 02:00:00 18.95 C 11.44 g/m*3 18.95 C 0.8 km/h
364 01-08-2020 03:00:00 18.31667 C 11.36 g/m*3 18.32 C 0 km/h
365 01-08-2020 04:00:00 17.65833 C 11.39 g/m*3 17.66 C 0.26667 km/h
366 01-08-2020 05:00:00 18.01667 C 11.66 g/m*3 18.02 C 0.8 km/h
367 01-08-2020 06:00:00 18.16667 C 11.71 g/m*3 18.17 C 0.8 km/h
368 01-08-2020 07:00:00 18.06667 C 12.13 g/m*3 18.07 C 0.4 km/h
369 01-08-2020 08:00:00 20.725 C 13.07 g/m*3 20.73 C 9.54167 km/h
370 01-08-2020 09:00:00 19.875 C 14.73 g/m*3 19.88 C 9.53333 km/h
371 01-08-2020 10:00:00 19.83333 C 15.73 g/m*3 19.83 C 2.275 km/h
372 01-08-2020 11:00:00 20.24167 C 16.52 g/m*3 20.24 C 0.13333 km/h
373 01-08-2020 12:00:00 21.00833 C 17.24 g/m*3 21.01 C 1.46667 km/h
374 01-08-2020 13:00:00 21.80833 C 17.76 g/m*3 21.81 C 1.73333 km/h
375 01-08-2020 14:00:00 23.7 C 18.36 g/m*3 23.7 C 2.93333 km/h
Sensor: Nr:Datum:Temp:Abs-Feuchte:Windchill:Wind:
Aussen-T/F 376 01-08-2020 15:00:00 25.79167 C 19.21 g/m*3 25.79 C 6.15833 km/h
377 01-08-2020 16:00:00 29.71667 C 18.57 g/m*3 29.72 C 6.15 km/h
378 01-08-2020 17:00:00 31.86667 C 17.35 g/m*3 31.87 C 7.10833 km/h
379 01-08-2020 18:00:00 30.9 C 17.35 g/m*3 30.9 C 5.49167 km/h
380 01-08-2020 19:00:00 27.6 C 17.56 g/m*3 27.6 C 5.75 km/h
381 01-08-2020 20:00:00 22.15 C 17.26 g/m*3 22.15 C 11.16667 km/h
382 01-08-2020 21:00:00 21.10833 C 17.45 g/m*3 21.11 C 8.59167 km/h
383 01-08-2020 22:00:00 20.9 C 17.48 g/m*3 20.9 C 8.21667 km/h
384 01-08-2020 23:00:00 20.525 C 17.11 g/m*3 20.53 C 7.11667 km/h
385 02-08-2020 00:00:00 20.11667 C 16.7 g/m*3 20.12 C 5.75 km/h
386 02-08-2020 01:00:00 20.01667 C 16.71 g/m*3 20.02 C 4.68333 km/h
387 02-08-2020 02:00:00 19.41667 C 16.03 g/m*3 19.42 C 3.075 km/h
388 02-08-2020 03:00:00 18.95 C 15.6 g/m*3 18.95 C 3.74167 km/h
389 02-08-2020 04:00:00 18.53333 C 15.27 g/m*3 18.53 C 2.93333 km/h
390 02-08-2020 05:00:00 17.55833 C 14.36 g/m*3 17.56 C 2.53333 km/h
391 02-08-2020 06:00:00 17.075 C 13.92 g/m*3 17.08 C 3.88333 km/h
392 02-08-2020 07:00:00 17.50833 C 14.03 g/m*3 17.51 C 1.46667 km/h
393 02-08-2020 08:00:00 18.175 C 14.59 g/m*3 18.18 C 0.4 km/h
394 02-08-2020 09:00:00 19.45833 C 14.06 g/m*3 19.46 C 3.75 km/h
395 02-08-2020 10:00:00 21.06667 C 13.56 g/m*3 21.07 C 8.6 km/h
396 02-08-2020 11:00:00 22.16667 C 13.6 g/m*3 22.17 C 8.34167 km/h
397 02-08-2020 12:00:00 22.63333 C 12.65 g/m*3 22.63 C 8.74167 km/h
398 02-08-2020 13:00:00 23.4 C 12.79 g/m*3 23.4 C 8.45833 km/h
399 02-08-2020 14:00:00 23.71667 C 12.06 g/m*3 23.72 C 10.75833 km/h
400 02-08-2020 15:00:00 24.61667 C 11.68 g/m*3 24.62 C 10.61667 km/h
Sensor: Nr:Datum:Temp:Abs-Feuchte:Windchill:Wind:
Aussen-T/F 401 02-08-2020 16:00:00 25.7 C 11.41 g/m*3 25.7 C 11.025 km/h
402 02-08-2020 17:00:00 26.125 C 12.05 g/m*3 26.13 C 12.9 km/h
403 02-08-2020 18:00:00 26.05833 C 11.24 g/m*3 26.06 C 11.96667 km/h
404 02-08-2020 19:00:00 25.53333 C 10.59 g/m*3 25.53 C 10.36667 km/h
405 02-08-2020 20:00:00 23.625 C 11.5 g/m*3 23.63 C 9.00833 km/h
406 02-08-2020 21:00:00 21.15833 C 11.82 g/m*3 21.16 C 3.35 km/h
407 02-08-2020 22:00:00 19.24167 C 12.11 g/m*3 19.24 C 1.46667 km/h
408 02-08-2020 23:00:00 18.98333 C 12.24 g/m*3 18.98 C 1.33333 km/h
409 03-08-2020 00:00:00 17.69167 C 12.13 g/m*3 17.69 C 2 km/h
410 03-08-2020 01:00:00 16.575 C 11.74 g/m*3 16.58 C 4.26667 km/h
411 03-08-2020 02:00:00 15.83333 C 11.54 g/m*3 15.83 C 2.4 km/h
412 03-08-2020 03:00:00 15 C 11.35 g/m*3 15 C 0.66667 km/h
413 03-08-2020 04:00:00 14.525 C 11.29 g/m*3 14.53 C 0.13333 km/h
414 03-08-2020 05:00:00 14.175 C 11.1 g/m*3 14.18 C 0 km/h
415 03-08-2020 06:00:00 13.46667 C 10.77 g/m*3 13.47 C 0 km/h
416 03-08-2020 07:00:00 14.2 C 11.34 g/m*3 14.2 C 1.33333 km/h
417 03-08-2020 08:00:00 16.075 C 11.69 g/m*3 16.08 C 0.13333 km/h
418 03-08-2020 09:00:00 17.925 C 11.89 g/m*3 17.93 C 0.80833 km/h
419 03-08-2020 10:00:00 19.01667 C 11.88 g/m*3 19.02 C 1.73333 km/h
420 03-08-2020 11:00:00 20.16667 C 11.37 g/m*3 20.17 C 3.74167 km/h
421 03-08-2020 12:00:00 21.18333 C 10.58 g/m*3 21.18 C 1.73333 km/h
422 03-08-2020 13:00:00 21.88333 C 10.44 g/m*3 21.88 C 3.6 km/h
423 03-08-2020 14:00:00 22.74167 C 10.55 g/m*3 22.74 C 4.00833 km/h
424 03-08-2020 15:00:00 22.83333 C 9.87 g/m*3 22.83 C 4.69167 km/h
425 03-08-2020 16:00:00 22.95 C 9.55 g/m*3 22.95 C 7.66667 km/h
Sensor: Nr:Datum:Temp:Abs-Feuchte:Windchill:Wind:
Aussen-T/F 426 03-08-2020 17:00:00 20.75833 C 10.67 g/m*3 20.76 C 12.23333 km/h
427 03-08-2020 18:00:00 20.08333 C 10.72 g/m*3 20.08 C 8.74167 km/h
428 03-08-2020 19:00:00 19.14167 C 11.19 g/m*3 19.14 C 5.075 km/h
429 03-08-2020 20:00:00 18.59167 C 11.19 g/m*3 18.59 C 1.73333 km/h
430 03-08-2020 21:00:00 17.55833 C 10.81 g/m*3 17.56 C 1.06667 km/h
431 03-08-2020 22:00:00 17.1 C 10.74 g/m*3 17.1 C 2.4 km/h
432 03-08-2020 23:00:00 16.56667 C 10.75 g/m*3 16.57 C 0 km/h
433 04-08-2020 00:00:00 16.3 C 10.93 g/m*3 16.3 C 0 km/h
434 04-08-2020 01:00:00 16.16667 C 11.09 g/m*3 16.17 C 0.66667 km/h
435 04-08-2020 02:00:00 16.35833 C 11.21 g/m*3 16.36 C 2.93333 km/h
436 04-08-2020 03:00:00 16.96667 C 11.13 g/m*3 16.97 C 8.45833 km/h
437 04-08-2020 04:00:00 16.29167 C 11.09 g/m*3 16.29 C 6.03333 km/h
438 04-08-2020 05:00:00 15.6 C 11.06 g/m*3 15.6 C 5.23333 km/h
439 04-08-2020 06:00:00 15.325 C 11.1 g/m*3 15.33 C 4.41667 km/h
440 04-08-2020 07:00:00 15.475 C 11.24 g/m*3 15.48 C 6.29167 km/h
441 04-08-2020 08:00:00 16.24167 C 11.35 g/m*3 16.24 C 6.71667 km/h
442 04-08-2020 09:00:00 17.05 C 11.33 g/m*3 17.05 C 8.05833 km/h
443 04-08-2020 10:00:00 17.78333 C 11.46 g/m*3 17.78 C 5.9 km/h
444 04-08-2020 11:00:00 19.25833 C 11.29 g/m*3 19.26 C 8.325 km/h
445 04-08-2020 12:00:00 20.05833 C 10.43 g/m*3 20.06 C 9.96667 km/h
446 04-08-2020 13:00:00 21.21667 C 10 g/m*3 21.22 C 11.43333 km/h
447 04-08-2020 14:00:00 22.275 C 9.83 g/m*3 22.28 C 11.29167 km/h
448 04-08-2020 15:00:00 23.31667 C 9.28 g/m*3 23.32 C 11.83333 km/h
449 04-08-2020 16:00:00 25.125 C 8.98 g/m*3 25.13 C 7.375 km/h
450 04-08-2020 17:00:00 24.95 C 8.95 g/m*3 24.95 C 8.6 km/h
Sensor: Nr:Datum:Temp:Abs-Feuchte:Windchill:Wind:
Aussen-T/F 451 04-08-2020 18:00:00 25.44167 C 8.93 g/m*3 25.44 C 9.53333 km/h
452 04-08-2020 19:00:00 24.74167 C 8.83 g/m*3 24.74 C 6.425 km/h
453 04-08-2020 20:00:00 22.95833 C 9.01 g/m*3 22.96 C 4.69167 km/h
454 04-08-2020 21:00:00 18.86667 C 9.34 g/m*3 18.87 C 5.46667 km/h
455 04-08-2020 22:00:00 16.825 C 9.19 g/m*3 16.83 C 4.93333 km/h
456 04-08-2020 23:00:00 15.125 C 9.32 g/m*3 15.13 C 0.26667 km/h
457 05-08-2020 00:00:00 13.75 C 9.01 g/m*3 13.75 C 0.13333 km/h
458 05-08-2020 01:00:00 12.93333 C 8.82 g/m*3 12.93 C 0.26667 km/h
459 05-08-2020 02:00:00 12.25833 C 8.74 g/m*3 12.26 C 0 km/h
460 05-08-2020 03:00:00 11.48333 C 8.58 g/m*3 11.48 C 0 km/h
461 05-08-2020 04:00:00 10.90833 C 8.52 g/m*3 10.91 C 0 km/h
462 05-08-2020 05:00:00 10.425 C 8.39 g/m*3 10.43 C 0 km/h
463 05-08-2020 06:00:00 10.15833 C 8.4 g/m*3 10.16 C 0 km/h
464 05-08-2020 07:00:00 10.43333 C 8.69 g/m*3 10.43 C 0 km/h
465 05-08-2020 08:00:00 11.25 C 9.11 g/m*3 11.25 C 0 km/h
466 05-08-2020 09:00:00 12.975 C 9.91 g/m*3 12.98 C 0 km/h
467 05-08-2020 10:00:00 15.775 C 10.85 g/m*3 15.78 C 0 km/h
468 05-08-2020 11:00:00 20.85833 C 10.83 g/m*3 20.86 C 4.55833 km/h
469 05-08-2020 12:00:00 24.08333 C 10.04 g/m*3 24.08 C 10.625 km/h
470 05-08-2020 13:00:00 25.325 C 9.77 g/m*3 25.33 C 10.225 km/h
471 05-08-2020 14:00:00 26.71667 C 9.75 g/m*3 26.72 C 9.41667 km/h
472 05-08-2020 15:00:00 28.66667 C 9.4 g/m*3 28.67 C 9.95833 km/h
473 05-08-2020 16:00:00 30.38333 C 9.29 g/m*3 30.38 C 9.55 km/h
474 05-08-2020 17:00:00 30.8 C 9.76 g/m*3 30.8 C 8.46667 km/h
475 05-08-2020 18:00:00 30.95833 C 9.61 g/m*3 30.96 C 8.45 km/h
Sensor: Nr:Datum:Temp:Abs-Feuchte:Windchill:Wind:
Aussen-T/F 476 05-08-2020 19:00:00 29.59167 C 9.07 g/m*3 29.59 C 6.56667 km/h
477 05-08-2020 20:00:00 27.075 C 9.43 g/m*3 27.08 C 3.74167 km/h
478 05-08-2020 21:00:00 21.8 C 9.61 g/m*3 21.8 C 5.61667 km/h
479 05-08-2020 22:00:00 19.61667 C 9.43 g/m*3 19.62 C 5.33333 km/h
480 05-08-2020 23:00:00 18.46667 C 9.47 g/m*3 18.47 C 1.46667 km/h
481 06-08-2020 00:00:00 16.99167 C 9.75 g/m*3 16.99 C 0 km/h
482 06-08-2020 01:00:00 15.95 C 9.61 g/m*3 15.95 C 0 km/h
483 06-08-2020 02:00:00 14.98333 C 9.48 g/m*3 14.98 C 0 km/h
484 06-08-2020 03:00:00 14.04167 C 9.44 g/m*3 14.04 C 0 km/h
485 06-08-2020 04:00:00 13.44167 C 9.48 g/m*3 13.44 C 0 km/h
486 06-08-2020 05:00:00 12.89167 C 9.36 g/m*3 12.89 C 0 km/h
487 06-08-2020 06:00:00 12.36667 C 9.37 g/m*3 12.37 C 0 km/h
488 06-08-2020 07:00:00 12.58333 C 9.68 g/m*3 12.58 C 0 km/h
489 06-08-2020 08:00:00 13.41667 C 10.16 g/m*3 13.42 C 0 km/h
490 06-08-2020 09:00:00 15.25833 C 10.97 g/m*3 15.26 C 0 km/h
491 06-08-2020 10:00:00 19.33333 C 11.76 g/m*3 19.33 C 3.75 km/h
492 06-08-2020 11:00:00 24.83333 C 11.21 g/m*3 24.83 C 7.39167 km/h
493 06-08-2020 12:00:00 26.23333 C 11.1 g/m*3 26.23 C 9 km/h
494 06-08-2020 13:00:00 27.21667 C 10.85 g/m*3 27.22 C 8.45833 km/h
495 06-08-2020 14:00:00 28.625 C 10.74 g/m*3 28.63 C 10.20833 km/h
496 06-08-2020 15:00:00 30.275 C 10.85 g/m*3 30.28 C 10.34167 km/h
497 06-08-2020 16:00:00 32.175 C 10.53 g/m*3 32.17 C 7.78333 km/h
498 06-08-2020 17:00:00 33.15833 C 10.56 g/m*3 33.16 C 7.66667 km/h
499 06-08-2020 18:00:00 32.84167 C 10.44 g/m*3 32.84 C 9.15 km/h
500 06-08-2020 19:00:00 31.30833 C 10.63 g/m*3 31.31 C 7.25 km/h
Sensor: Nr:Datum:Temp:Abs-Feuchte:Windchill:Wind:
Aussen-T/F 501 06-08-2020 20:00:00 29.03333 C 12.71 g/m*3 29.03 C 4 km/h
502 06-08-2020 21:00:00 24.38333 C 11.58 g/m*3 24.38 C 7.13333 km/h
503 06-08-2020 22:00:00 21.95 C 11.93 g/m*3 21.95 C 1.2 km/h
504 06-08-2020 23:00:00 20.35 C 11.76 g/m*3 20.35 C 0 km/h
505 07-08-2020 00:00:00 18.86667 C 11.56 g/m*3 18.87 C 0 km/h
506 07-08-2020 01:00:00 17.7 C 11.39 g/m*3 17.7 C 0 km/h
507 07-08-2020 02:00:00 16.95833 C 11.32 g/m*3 16.96 C 0 km/h
508 07-08-2020 03:00:00 16.225 C 11.19 g/m*3 16.23 C 0 km/h
509 07-08-2020 04:00:00 15.48333 C 11.05 g/m*3 15.48 C 0 km/h
510 07-08-2020 05:00:00 14.75833 C 10.87 g/m*3 14.76 C 0 km/h
511 07-08-2020 06:00:00 14.43333 C 10.92 g/m*3 14.43 C 0 km/h
512 07-08-2020 07:00:00 14.76667 C 11.18 g/m*3 14.77 C 0 km/h
513 07-08-2020 08:00:00 15.475 C 11.67 g/m*3 15.48 C 0 km/h
514 07-08-2020 09:00:00 17.13333 C 12.58 g/m*3 17.13 C 0 km/h
515 07-08-2020 10:00:00 19.925 C 13.29 g/m*3 19.93 C 0 km/h
516 07-08-2020 11:00:00 24.90833 C 13.28 g/m*3 24.91 C 0.13333 km/h
517 07-08-2020 12:00:00 28.75833 C 11.81 g/m*3 28.76 C 6.7 km/h
518 07-08-2020 13:00:00 30.26667 C 11.25 g/m*3 30.27 C 9.14167 km/h
519 07-08-2020 14:00:00 31.65833 C 11.19 g/m*3 31.66 C 9.39167 km/h
520 07-08-2020 15:00:00 32.99167 C 11.3 g/m*3 32.99 C 11.95833 km/h
521 07-08-2020 16:00:00 34.60833 C 11.39 g/m*3 34.61 C 11.16667 km/h
522 07-08-2020 17:00:00 34.99167 C 11.1 g/m*3 34.99 C 12.63333 km/h
523 07-08-2020 18:00:00 35.4 C 10.9 g/m*3 35.4 C 9.80833 km/h
524 07-08-2020 19:00:00 34.58333 C 11.96 g/m*3 34.58 C 4.025 km/h
525 07-08-2020 20:00:00 31.36667 C 12.92 g/m*3 31.37 C 4.13333 km/h
Sensor: Nr:Datum:Temp:Abs-Feuchte:Windchill:Wind:
Aussen-T/F 526 07-08-2020 21:00:00 27.05 C 12.17 g/m*3 27.05 C 6.45 km/h
527 07-08-2020 22:00:00 24.48333 C 12.63 g/m*3 24.48 C 0.93333 km/h
528 07-08-2020 23:00:00 22.61667 C 12.58 g/m*3 22.62 C 0 km/h
529 08-08-2020 00:00:00 21.14167 C 12.53 g/m*3 21.14 C 0 km/h
530 08-08-2020 01:00:00 20.04167 C 12.46 g/m*3 20.04 C 0 km/h
531 08-08-2020 02:00:00 19.19167 C 12.39 g/m*3 19.19 C 0 km/h
532 08-08-2020 03:00:00 18.58333 C 12.3 g/m*3 18.58 C 0 km/h
533 08-08-2020 04:00:00 17.83333 C 12.19 g/m*3 17.83 C 0 km/h
534 08-08-2020 05:00:00 17.36667 C 12.13 g/m*3 17.37 C 0 km/h
535 08-08-2020 06:00:00 17.025 C 12.16 g/m*3 17.02 C 0 km/h
536 08-08-2020 07:00:00 17.41667 C 12.61 g/m*3 17.42 C 0 km/h
537 08-08-2020 08:00:00 18.48333 C 13.32 g/m*3 18.48 C 0 km/h
538 08-08-2020 09:00:00 20.175 C 14.14 g/m*3 20.18 C 0 km/h
539 08-08-2020 10:00:00 22.85 C 14.49 g/m*3 22.85 C 0 km/h
540 08-08-2020 11:00:00 27.075 C 15.44 g/m*3 27.08 C 0 km/h
541 08-08-2020 12:00:00 30.46667 C 15.29 g/m*3 30.47 C 0 km/h
542 08-08-2020 13:00:00 32.61667 C 14.07 g/m*3 32.62 C 8.6 km/h
543 08-08-2020 14:00:00 33.7 C 13.45 g/m*3 33.7 C 8.75833 km/h
544 08-08-2020 15:00:00 34.825 C 13.22 g/m*3 34.83 C 8.34167 km/h
545 08-08-2020 16:00:00 36.80833 C 13.06 g/m*3 36.81 C 7.375 km/h
546 08-08-2020 17:00:00 37.90833 C 12.09 g/m*3 37.91 C 6.425 km/h
547 08-08-2020 18:00:00 37.19167 C 11.88 g/m*3 37.19 C 7.125 km/h
548 08-08-2020 19:00:00 36.44167 C 13.28 g/m*3 36.44 C 4.01667 km/h
549 08-08-2020 20:00:00 31.76667 C 13.42 g/m*3 31.77 C 5.475 km/h
550 08-08-2020 21:00:00 27.80833 C 13.14 g/m*3 27.81 C 5.60833 km/h
Sensor: Nr:Datum:Temp:Abs-Feuchte:Windchill:Wind:
Aussen-T/F 551 08-08-2020 22:00:00 26.21667 C 13.22 g/m*3 26.22 C 2.53333 km/h
552 08-08-2020 23:00:00 24.21667 C 13.27 g/m*3 24.22 C 0 km/h
553 09-08-2020 00:00:00 23.01667 C 13.39 g/m*3 23.02 C 0 km/h
554 09-08-2020 01:00:00 22 C 13.31 g/m*3 22 C 0 km/h
555 09-08-2020 02:00:00 20.875 C 13.11 g/m*3 20.88 C 0 km/h
556 09-08-2020 03:00:00 19.925 C 12.89 g/m*3 19.93 C 0 km/h
557 09-08-2020 04:00:00 19.375 C 12.86 g/m*3 19.38 C 0 km/h
558 09-08-2020 05:00:00 18.775 C 12.77 g/m*3 18.77 C 0 km/h
559 09-08-2020 06:00:00 18.54167 C 12.86 g/m*3 18.54 C 0 km/h
560 09-08-2020 07:00:00 18.96667 C 13.38 g/m*3 18.97 C 0 km/h
561 09-08-2020 08:00:00 19.76667 C 13.89 g/m*3 19.77 C 0 km/h
562 09-08-2020 09:00:00 21.375 C 14.73 g/m*3 21.38 C 0 km/h
563 09-08-2020 10:00:00 24.14167 C 14.73 g/m*3 24.14 C 0 km/h
564 09-08-2020 11:00:00 28.25 C 14.73 g/m*3 28.25 C 0 km/h
565 09-08-2020 12:00:00 32.01667 C 13.66 g/m*3 32.02 C 2.81667 km/h
566 09-08-2020 13:00:00 33.56667 C 12.93 g/m*3 33.57 C 5.61667 km/h
567 09-08-2020 14:00:00 34.46667 C 13.14 g/m*3 34.47 C 6.70833 km/h
568 09-08-2020 15:00:00 31.25 C 16.33 g/m*3 31.25 C 6.96667 km/h
569 09-08-2020 16:00:00 28.85 C 14.39 g/m*3 28.85 C 4.95 km/h
570 09-08-2020 17:00:00 28.025 C 14.52 g/m*3 28.03 C 3.075 km/h
571 09-08-2020 18:00:00 27.50833 C 14.38 g/m*3 27.51 C 3.86667 km/h
572 09-08-2020 19:00:00 26.88333 C 15.77 g/m*3 26.88 C 3.20833 km/h
573 09-08-2020 20:00:00 24.6 C 15.87 g/m*3 24.6 C 7.50833 km/h
574 09-08-2020 21:00:00 21.11667 C 15.92 g/m*3 21.12 C 6.15833 km/h
575 09-08-2020 22:00:00 20.66667 C 16.32 g/m*3 20.67 C 3.875 km/h
Sensor: Nr:Datum:Temp:Abs-Feuchte:Windchill:Wind:
Aussen-T/F 576 09-08-2020 23:00:00 20.66667 C 16.13 g/m*3 20.67 C 1.2 km/h
577 10-08-2020 00:00:00 19.74167 C 15.22 g/m*3 19.74 C 0.26667 km/h
578 10-08-2020 01:00:00 19.94167 C 15.54 g/m*3 19.94 C 6.16667 km/h
579 10-08-2020 02:00:00 20.61667 C 15.63 g/m*3 20.62 C 1.33333 km/h
580 10-08-2020 03:00:00 20.19167 C 15.41 g/m*3 20.19 C 1.46667 km/h
581 10-08-2020 04:00:00 19.55 C 15.06 g/m*3 19.55 C 0.26667 km/h
582 10-08-2020 05:00:00 19.80833 C 15.38 g/m*3 19.81 C 0.26667 km/h
583 10-08-2020 06:00:00 19.39167 C 15.04 g/m*3 19.39 C 0 km/h
584 10-08-2020 07:00:00 19.48333 C 15.38 g/m*3 19.48 C 0.13333 km/h
585 10-08-2020 08:00:00 20.59167 C 16.1 g/m*3 20.59 C 0.4 km/h
586 10-08-2020 09:00:00 23.175 C 16.47 g/m*3 23.18 C 6.175 km/h
587 10-08-2020 10:00:00 25.19167 C 16.09 g/m*3 25.19 C 7.11667 km/h
588 10-08-2020 11:00:00 26.81667 C 15.69 g/m*3 26.82 C 11.3 km/h
589 10-08-2020 12:00:00 27.4 C 15.81 g/m*3 27.4 C 11.15833 km/h
590 10-08-2020 13:00:00 29.275 C 16.01 g/m*3 29.28 C 13.7 km/h
591 10-08-2020 14:00:00 31.04167 C 15.98 g/m*3 31.04 C 12.63333 km/h
592 10-08-2020 15:00:00 32.54167 C 15.87 g/m*3 32.54 C 13.43333 km/h
593 10-08-2020 16:00:00 33.825 C 14.13 g/m*3 33.83 C 11.41667 km/h
594 10-08-2020 17:00:00 34.40833 C 13.99 g/m*3 34.41 C 10.89167 km/h
595 10-08-2020 18:00:00 33.76667 C 14.73 g/m*3 33.77 C 8.875 km/h
596 10-08-2020 19:00:00 32.325 C 16.34 g/m*3 32.33 C 1.6 km/h
597 10-08-2020 20:00:00 29.50833 C 16.29 g/m*3 29.51 C 1.46667 km/h
598 10-08-2020 21:00:00 26.48333 C 15.88 g/m*3 26.48 C 2.4 km/h
599 10-08-2020 22:00:00 26.375 C 15.43 g/m*3 26.38 C 2.675 km/h
600 10-08-2020 23:00:00 24.98333 C 15.39 g/m*3 24.98 C 2.53333 km/h
Sensor: Nr:Datum:Temp:Abs-Feuchte:Windchill:Wind:
Aussen-T/F 601 11-08-2020 00:00:00 23.59167 C 15.43 g/m*3 23.59 C 1.86667 km/h
602 11-08-2020 01:00:00 22.78333 C 15.41 g/m*3 22.78 C 1.6 km/h
603 11-08-2020 02:00:00 22.04167 C 15.26 g/m*3 22.04 C 2.53333 km/h
604 11-08-2020 03:00:00 21.56667 C 15.03 g/m*3 21.57 C 2.8 km/h
605 11-08-2020 04:00:00 20.99167 C 14.83 g/m*3 20.99 C 0.13333 km/h
606 11-08-2020 05:00:00 20.6 C 14.68 g/m*3 20.6 C 0 km/h
607 11-08-2020 06:00:00 20.11667 C 14.41 g/m*3 20.12 C 0 km/h
608 11-08-2020 07:00:00 20.30833 C 14.88 g/m*3 20.31 C 0 km/h
609 11-08-2020 08:00:00 21.775 C 15.53 g/m*3 21.78 C 0.66667 km/h
610 11-08-2020 09:00:00 23.60833 C 15.59 g/m*3 23.61 C 0.53333 km/h
611 11-08-2020 10:00:00 25.6 C 16.03 g/m*3 25.6 C 5.65 km/h
612 11-08-2020 11:00:00 28.30833 C 16.2 g/m*3 28.31 C 10.75833 km/h
613 11-08-2020 12:00:00 29.675 C 16.41 g/m*3 29.68 C 4.54167 km/h
614 11-08-2020 13:00:00 30.40833 C 16.66 g/m*3 30.41 C 2.4 km/h
615 11-08-2020 14:00:00 32.28333 C 15.68 g/m*3 32.28 C 7.525 km/h
616 11-08-2020 15:00:00 33.4 C 14.75 g/m*3 33.4 C 7.51667 km/h
617 11-08-2020 16:00:00 35.275 C 13.97 g/m*3 35.28 C 10.61667 km/h
618 11-08-2020 17:00:00 34.475 C 13.94 g/m*3 34.48 C 8.86667 km/h
619 11-08-2020 18:00:00 32.14167 C 14.2 g/m*3 32.14 C 6.15833 km/h
620 11-08-2020 19:00:00 29.80833 C 15.88 g/m*3 29.81 C 5.75833 km/h
621 11-08-2020 20:00:00 24.85 C 17.71 g/m*3 24.85 C 8.45833 km/h
622 11-08-2020 21:00:00 22.13333 C 17.88 g/m*3 22.13 C 8.325 km/h
623 11-08-2020 22:00:00 21.525 C 17.63 g/m*3 21.53 C 6.30833 km/h
624 11-08-2020 23:00:00 21.30833 C 17.69 g/m*3 21.31 C 5.08333 km/h
625 12-08-2020 00:00:00 21.13333 C 17.54 g/m*3 21.13 C 4.4 km/h
Sensor: Nr:Datum:Temp:Abs-Feuchte:Windchill:Wind:
Aussen-T/F 626 12-08-2020 01:00:00 20.75 C 17.2 g/m*3 20.75 C 2 km/h
627 12-08-2020 02:00:00 20.59167 C 17.17 g/m*3 20.59 C 0.66667 km/h
628 12-08-2020 03:00:00 20.33333 C 16.92 g/m*3 20.33 C 0 km/h
629 12-08-2020 04:00:00 19.825 C 16.42 g/m*3 19.83 C 0 km/h
630 12-08-2020 05:00:00 19.66667 C 16.31 g/m*3 19.67 C 1.2 km/h
631 12-08-2020 06:00:00 19.425 C 16.17 g/m*3 19.43 C 2.4 km/h
632 12-08-2020 07:00:00 19.75833 C 16.53 g/m*3 19.76 C 0 km/h
633 12-08-2020 08:00:00 20.48333 C 17.26 g/m*3 20.48 C 0 km/h
634 12-08-2020 09:00:00 20.70833 C 17.49 g/m*3 20.71 C 0 km/h
635 12-08-2020 10:00:00 21.23333 C 18.01 g/m*3 21.23 C 2.69167 km/h
636 12-08-2020 11:00:00 24.20833 C 17.69 g/m*3 24.21 C 10.61667 km/h
637 12-08-2020 12:00:00 27.01667 C 17.37 g/m*3 27.02 C 10.1 km/h
638 12-08-2020 13:00:00 29.01667 C 17.56 g/m*3 29.02 C 11.81667 km/h
639 12-08-2020 14:00:00 30.84167 C 17.56 g/m*3 30.84 C 9.275 km/h
640 12-08-2020 15:00:00 33.1 C 16.43 g/m*3 33.1 C 8.05 km/h
641 12-08-2020 16:00:00 34.81667 C 16.02 g/m*3 34.82 C 10.08333 km/h
642 12-08-2020 17:00:00 31.975 C 18.49 g/m*3 31.98 C 6.69167 km/h
643 12-08-2020 18:00:00 27.06667 C 15.52 g/m*3 27.07 C 11.94167 km/h
644 12-08-2020 19:00:00 23.43333 C 17.5 g/m*3 23.43 C 5.08333 km/h
645 12-08-2020 20:00:00 21.38333 C 17.11 g/m*3 21.38 C 0.66667 km/h
646 12-08-2020 21:00:00 20.73333 C 16.83 g/m*3 20.73 C 0.93333 km/h
647 12-08-2020 22:00:00 20.45 C 16.68 g/m*3 20.45 C 4.54167 km/h
648 12-08-2020 23:00:00 19.84167 C 16.07 g/m*3 19.84 C 1.73333 km/h
649 13-08-2020 00:00:00 19.925 C 16.3 g/m*3 19.93 C 0.93333 km/h
650 13-08-2020 01:00:00 19.75833 C 16.09 g/m*3 19.76 C 0.66667 km/h
Sensor: Nr:Datum:Temp:Abs-Feuchte:Windchill:Wind:
Aussen-T/F 651 13-08-2020 02:00:00 19.38333 C 15.68 g/m*3 19.38 C 2.66667 km/h
652 13-08-2020 03:00:00 19.025 C 15.5 g/m*3 19.02 C 0.53333 km/h
653 13-08-2020 04:00:00 18.99167 C 15.53 g/m*3 18.99 C 1.075 km/h
654 13-08-2020 05:00:00 19.775 C 16.37 g/m*3 19.77 C 6.16667 km/h
655 13-08-2020 06:00:00 19.83333 C 16.43 g/m*3 19.83 C 4.14167 km/h
656 13-08-2020 07:00:00 19.65833 C 16.29 g/m*3 19.66 C 2 km/h
657 13-08-2020 08:00:00 19.80833 C 16.58 g/m*3 19.81 C 1.06667 km/h
658 13-08-2020 09:00:00 20.525 C 17.29 g/m*3 20.53 C 0 km/h
659 13-08-2020 10:00:00 21.64167 C 18.44 g/m*3 21.64 C 0.4 km/h
660 13-08-2020 11:00:00 23.025 C 19.91 g/m*3 23.03 C 2 km/h
661 13-08-2020 12:00:00 25.13333 C 19.48 g/m*3 25.13 C 5.49167 km/h
662 13-08-2020 13:00:00 27.83333 C 19.04 g/m*3 27.83 C 8.33333 km/h
663 13-08-2020 14:00:00 29.725 C 16.98 g/m*3 29.73 C 13.025 km/h
664 13-08-2020 15:00:00 29.45833 C 15.48 g/m*3 29.46 C 15.7 km/h
665 13-08-2020 16:00:00 28.44167 C 15.69 g/m*3 28.44 C 11.01667 km/h
666 13-08-2020 17:00:00 28.45833 C 16.5 g/m*3 28.46 C 5.89167 km/h
667 13-08-2020 18:00:00 28.85833 C 17.5 g/m*3 28.86 C 2.54167 km/h
668 13-08-2020 19:00:00 27.60833 C 18.67 g/m*3 27.61 C 0.66667 km/h
669 13-08-2020 20:00:00 25.25833 C 17.98 g/m*3 25.26 C 2.8 km/h
670 13-08-2020 21:00:00 22.86667 C 16.95 g/m*3 22.87 C 6.43333 km/h
671 13-08-2020 22:00:00 22.6 C 16.86 g/m*3 22.6 C 4.28333 km/h
672 13-08-2020 23:00:00 22.61667 C 16.76 g/m*3 22.62 C 0.26667 km/h
673 14-08-2020 00:00:00 22.15 C 16.57 g/m*3 22.15 C 1.2 km/h
674 14-08-2020 01:00:00 21.7 C 16.44 g/m*3 21.7 C 1.86667 km/h
675 14-08-2020 02:00:00 21.09167 C 16.02 g/m*3 21.09 C 1.2 km/h
Sensor: Nr:Datum:Temp:Abs-Feuchte:Windchill:Wind:
Aussen-T/F 676 14-08-2020 03:00:00 20.03333 C 15.43 g/m*3 20.03 C 0 km/h
677 14-08-2020 04:00:00 19.26667 C 14.95 g/m*3 19.27 C 0.93333 km/h
678 14-08-2020 05:00:00 18.74167 C 14.78 g/m*3 18.74 C 0.66667 km/h
679 14-08-2020 06:00:00 18.74167 C 14.89 g/m*3 18.74 C 0.53333 km/h
680 14-08-2020 07:00:00 18.95 C 14.98 g/m*3 18.95 C 0.26667 km/h
681 14-08-2020 08:00:00 19.95833 C 15.66 g/m*3 19.96 C 0 km/h
682 14-08-2020 09:00:00 21.06667 C 15.94 g/m*3 21.07 C 3.89167 km/h
683 14-08-2020 10:00:00 22.61667 C 15.72 g/m*3 22.62 C 10.35833 km/h
684 14-08-2020 11:00:00 22.3 C 15.67 g/m*3 22.3 C 7.78333 km/h
685 14-08-2020 12:00:00 22.33333 C 15.65 g/m*3 22.33 C 6.70833 km/h
686 14-08-2020 13:00:00 23.25833 C 16.06 g/m*3 23.26 C 8.88333 km/h
687 14-08-2020 14:00:00 25.225 C 16.42 g/m*3 25.23 C 12.9 km/h
688 14-08-2020 15:00:00 27.36667 C 16.02 g/m*3 27.37 C 11.43333 km/h
689 14-08-2020 16:00:00 29.175 C 15.01 g/m*3 29.18 C 14.36667 km/h
690 14-08-2020 17:00:00 30.06667 C 15.06 g/m*3 30.07 C 10.49167 km/h
691 14-08-2020 18:00:00 30.35833 C 15.23 g/m*3 30.36 C 11.43333 km/h
692 14-08-2020 19:00:00 28.625 C 15.92 g/m*3 28.63 C 5.5 km/h
693 14-08-2020 20:00:00 26.15 C 15.94 g/m*3 26.15 C 2.94167 km/h
694 14-08-2020 21:00:00 23.05833 C 16.1 g/m*3 23.06 C 4.55 km/h
695 14-08-2020 22:00:00 22.05 C 15.83 g/m*3 22.05 C 0 km/h
696 14-08-2020 23:00:00 21.625 C 15.72 g/m*3 21.63 C 0.53333 km/h
697 15-08-2020 00:00:00 21.30833 C 15.82 g/m*3 21.31 C 1.73333 km/h
698 15-08-2020 01:00:00 20.91667 C 15.78 g/m*3 20.92 C 0.26667 km/h
699 15-08-2020 02:00:00 20.15 C 15.28 g/m*3 20.15 C 1.33333 km/h
700 15-08-2020 03:00:00 19.4 C 15.07 g/m*3 19.4 C 0.13333 km/h
Sensor: Nr:Datum:Temp:Abs-Feuchte:Windchill:Wind:
Aussen-T/F 701 15-08-2020 04:00:00 18.70833 C 14.79 g/m*3 18.71 C 0 km/h
702 15-08-2020 05:00:00 18.30833 C 14.65 g/m*3 18.31 C 0 km/h
703 15-08-2020 06:00:00 18.28333 C 14.72 g/m*3 18.28 C 0 km/h
704 15-08-2020 07:00:00 18.56667 C 15.08 g/m*3 18.57 C 0 km/h
705 15-08-2020 08:00:00 19.5 C 15.79 g/m*3 19.5 C 0 km/h
706 15-08-2020 09:00:00 20.65833 C 16.21 g/m*3 20.66 C 0.53333 km/h
707 15-08-2020 10:00:00 22.24167 C 16.74 g/m*3 22.24 C 3.73333 km/h
708 15-08-2020 11:00:00 23.94167 C 17.11 g/m*3 23.94 C 4.15 km/h
709 15-08-2020 12:00:00 25.04167 C 16.98 g/m*3 25.04 C 6.43333 km/h
710 15-08-2020 13:00:00 25.825 C 16.63 g/m*3 25.83 C 5.91667 km/h
711 15-08-2020 14:00:00 26.01667 C 16.04 g/m*3 26.02 C 8.59167 km/h
712 15-08-2020 15:00:00 24.44167 C 15.48 g/m*3 24.44 C 2.94167 km/h
713 15-08-2020 16:00:00 23.025 C 16.98 g/m*3 23.03 C 4.68333 km/h
714 15-08-2020 17:00:00 23.55 C 17.43 g/m*3 23.55 C 4.00833 km/h
715 15-08-2020 18:00:00 23.98333 C 17.48 g/m*3 23.98 C 0 km/h
716 15-08-2020 19:00:00 23.4 C 17.7 g/m*3 23.4 C 0.26667 km/h
717 15-08-2020 20:00:00 23.175 C 17.61 g/m*3 23.18 C 0.26667 km/h
718 15-08-2020 21:00:00 21.99167 C 16.63 g/m*3 21.99 C 0 km/h
719 15-08-2020 22:00:00 21.13333 C 16.48 g/m*3 21.13 C 0 km/h
720 15-08-2020 23:00:00 20.44167 C 16.11 g/m*3 20.44 C 0 km/h
721 16-08-2020 00:00:00 19.65 C 15.62 g/m*3 19.65 C 0.13333 km/h
722 16-08-2020 01:00:00 19.175 C 15.35 g/m*3 19.18 C 0.26667 km/h
723 16-08-2020 02:00:00 18.875 C 15.21 g/m*3 18.88 C 0.53333 km/h
724 16-08-2020 03:00:00 18.43333 C 14.83 g/m*3 18.43 C 0 km/h
725 16-08-2020 04:00:00 18.13333 C 14.68 g/m*3 18.13 C 0 km/h
Sensor: Nr:Datum:Temp:Abs-Feuchte:Windchill:Wind:
Aussen-T/F 726 16-08-2020 05:00:00 17.9 C 14.5 g/m*3 17.9 C 0 km/h
727 16-08-2020 06:00:00 17.45833 C 14.18 g/m*3 17.46 C 0 km/h
728 16-08-2020 07:00:00 17.59167 C 14.39 g/m*3 17.59 C 0 km/h
729 16-08-2020 08:00:00 18.44167 C 15.27 g/m*3 18.44 C 0.4 km/h
730 16-08-2020 09:00:00 19.525 C 16.16 g/m*3 19.52 C 2.94167 km/h
731 16-08-2020 10:00:00 22.6 C 16.71 g/m*3 22.6 C 7.8 km/h
732 16-08-2020 11:00:00 25.84167 C 16.61 g/m*3 25.84 C 9.68333 km/h
733 16-08-2020 12:00:00 27.64167 C 16.38 g/m*3 27.64 C 9.26667 km/h
734 16-08-2020 13:00:00 28.5 C 16.33 g/m*3 28.5 C 7.26667 km/h
735 16-08-2020 14:00:00 29.825 C 15.29 g/m*3 29.83 C 11.83333 km/h
736 16-08-2020 15:00:00 30.73333 C 14.75 g/m*3 30.73 C 9.80833 km/h
737 16-08-2020 16:00:00 31.375 C 14.8 g/m*3 31.38 C 8.875 km/h
738 16-08-2020 17:00:00 28.84167 C 15.92 g/m*3 28.84 C 3.08333 km/h
739 16-08-2020 18:00:00 27.45833 C 15.57 g/m*3 27.46 C 7.10833 km/h
740 16-08-2020 19:00:00 24.15 C 16.55 g/m*3 24.15 C 6.025 km/h
741 16-08-2020 20:00:00 21.40833 C 15.83 g/m*3 21.41 C 9.54167 km/h
742 16-08-2020 21:00:00 19.51667 C 15.44 g/m*3 19.52 C 5.09167 km/h
743 16-08-2020 22:00:00 19.25833 C 15.55 g/m*3 19.26 C 4.55 km/h
744 16-08-2020 23:00:00 18.275 C 14.74 g/m*3 18.27 C 4.68333 km/h
745 17-08-2020 00:00:00 18.54167 C 15.21 g/m*3 18.54 C 5.35833 km/h
746 17-08-2020 01:00:00 18.35 C 15.05 g/m*3 18.35 C 3.06667 km/h
747 17-08-2020 02:00:00 18.075 C 14.81 g/m*3 18.08 C 3.06667 km/h
748 17-08-2020 03:00:00 18.25 C 15.11 g/m*3 18.25 C 6.56667 km/h
749 17-08-2020 04:00:00 17.875 C 14.66 g/m*3 17.88 C 3.2 km/h
750 17-08-2020 05:00:00 17.46667 C 14.41 g/m*3 17.47 C 2 km/h
Sensor: Nr:Datum:Temp:Abs-Feuchte:Windchill:Wind:
Aussen-T/F 751 17-08-2020 06:00:00 17.475 C 14.44 g/m*3 17.48 C 2.53333 km/h
752 17-08-2020 07:00:00 17.475 C 14.44 g/m*3 17.48 C 0.93333 km/h
753 17-08-2020 08:00:00 18.1 C 14.99 g/m*3 18.1 C 1.33333 km/h
754 17-08-2020 09:00:00 18.86667 C 15.68 g/m*3 18.87 C 0.4 km/h
755 17-08-2020 10:00:00 19.35833 C 15.95 g/m*3 19.36 C 5.36667 km/h
756 17-08-2020 11:00:00 20.78333 C 16.34 g/m*3 20.78 C 7.80833 km/h
757 17-08-2020 12:00:00 22.04167 C 16.49 g/m*3 22.04 C 7.25 km/h
758 17-08-2020 13:00:00 23.35833 C 16.42 g/m*3 23.36 C 5.50833 km/h
759 17-08-2020 14:00:00 24.475 C 15.51 g/m*3 24.48 C 12.63333 km/h
760 17-08-2020 15:00:00 25.58333 C 14.95 g/m*3 25.58 C 9.68333 km/h
761 17-08-2020 16:00:00 26.91667 C 14.26 g/m*3 26.92 C 10.35833 km/h
762 17-08-2020 17:00:00 27.93333 C 13.48 g/m*3 27.93 C 9.68333 km/h
763 17-08-2020 18:00:00 26.65833 C 13.09 g/m*3 26.66 C 8.46667 km/h
764 17-08-2020 19:00:00 26.44167 C 12.93 g/m*3 26.44 C 9.26667 km/h
765 17-08-2020 20:00:00 22.925 C 13.87 g/m*3 22.93 C 7.4 km/h
766 17-08-2020 21:00:00 20.08333 C 13.79 g/m*3 20.08 C 4.54167 km/h
767 17-08-2020 22:00:00 19.61667 C 13.74 g/m*3 19.62 C 2.13333 km/h
768 17-08-2020 23:00:00 19.28333 C 13.59 g/m*3 19.28 C 2.66667 km/h
769 18-08-2020 00:00:00 18.95833 C 13.48 g/m*3 18.96 C 1.33333 km/h
770 18-08-2020 01:00:00 18.40833 C 13.47 g/m*3 18.41 C 0.26667 km/h
771 18-08-2020 02:00:00 18.2 C 13.37 g/m*3 18.2 C 1.46667 km/h
772 18-08-2020 03:00:00 17.60833 C 12.79 g/m*3 17.61 C 2.53333 km/h
773 18-08-2020 04:00:00 16.76667 C 12.51 g/m*3 16.77 C 0.26667 km/h
774 18-08-2020 05:00:00 16.59167 C 12.61 g/m*3 16.59 C 2.13333 km/h
775 18-08-2020 06:00:00 16.46667 C 12.44 g/m*3 16.47 C 3.20833 km/h
Sensor: Nr:Datum:Temp:Abs-Feuchte:Windchill:Wind:
Aussen-T/F 776 18-08-2020 07:00:00 17.53333 C 12.7 g/m*3 17.53 C 5.60833 km/h
777 18-08-2020 08:00:00 17.85833 C 12.98 g/m*3 17.86 C 9.14167 km/h
778 18-08-2020 09:00:00 18.75 C 13.3 g/m*3 18.75 C 9.01667 km/h
779 18-08-2020 10:00:00 20.00833 C 13.76 g/m*3 20.01 C 6.575 km/h
780 18-08-2020 11:00:00 21.50833 C 13.58 g/m*3 21.51 C 7.11667 km/h
781 18-08-2020 12:00:00 22.79167 C 13.13 g/m*3 22.79 C 9.28333 km/h
782 18-08-2020 13:00:00 23.54167 C 13.14 g/m*3 23.54 C 8.46667 km/h
783 18-08-2020 14:00:00 24.625 C 12.96 g/m*3 24.63 C 8.475 km/h
784 18-08-2020 15:00:00 23.91667 C 12.63 g/m*3 23.92 C 12.225 km/h
785 18-08-2020 16:00:00 22.36667 C 12.31 g/m*3 22.37 C 8.46667 km/h
786 18-08-2020 17:00:00 18.9 C 14.7 g/m*3 18.9 C 4.56667 km/h
787 18-08-2020 18:00:00 19.48333 C 15.41 g/m*3 19.48 C 6.15833 km/h
788 18-08-2020 19:00:00 18.30833 C 14.5 g/m*3 18.31 C 7.25 km/h
789 18-08-2020 20:00:00 17.775 C 14.25 g/m*3 17.77 C 6.425 km/h
790 18-08-2020 21:00:00 16.71667 C 13.42 g/m*3 16.72 C 6.425 km/h
791 18-08-2020 22:00:00 15.98333 C 12.92 g/m*3 15.98 C 2.8 km/h
792 18-08-2020 23:00:00 15.075 C 12.24 g/m*3 15.08 C 1.6 km/h
793 19-08-2020 00:00:00 14.8 C 12.13 g/m*3 14.8 C 0.8 km/h
794 19-08-2020 01:00:00 14.44167 C 11.9 g/m*3 14.44 C 0 km/h
795 19-08-2020 02:00:00 14.05833 C 11.62 g/m*3 14.06 C 0 km/h
796 19-08-2020 03:00:00 13.75833 C 11.42 g/m*3 13.76 C 0.26667 km/h
797 19-08-2020 04:00:00 13.4 C 11.22 g/m*3 13.4 C 0.13333 km/h
798 19-08-2020 05:00:00 13.10833 C 11.05 g/m*3 13.11 C 0.13333 km/h
799 19-08-2020 06:00:00 13.15833 C 11.11 g/m*3 13.16 C 0 km/h
800 19-08-2020 07:00:00 13.925 C 11.65 g/m*3 13.93 C 0 km/h
Sensor: Nr:Datum:Temp:Abs-Feuchte:Windchill:Wind:
Aussen-T/F 801 19-08-2020 08:00:00 14.45 C 12.03 g/m*3 14.45 C 0.8 km/h
802 19-08-2020 09:00:00 15.1 C 12.57 g/m*3 15.1 C 0.8 km/h
803 19-08-2020 10:00:00 16.01667 C 13.31 g/m*3 16.02 C 0 km/h
804 19-08-2020 11:00:00 18.15833 C 15.16 g/m*3 18.16 C 0 km/h
805 19-08-2020 12:00:00 20.175 C 16.3 g/m*3 20.18 C 2.53333 km/h
806 19-08-2020 13:00:00 22.71667 C 14.95 g/m*3 22.72 C 2.8 km/h
807 19-08-2020 14:00:00 25.425 C 14.11 g/m*3 25.43 C 3.08333 km/h
808 19-08-2020 15:00:00 25.95 C 14.18 g/m*3 25.95 C 6.45 km/h
809 19-08-2020 16:00:00 26.85 C 14.72 g/m*3 26.85 C 4.01667 km/h
810 19-08-2020 17:00:00 28.43333 C 13.65 g/m*3 28.43 C 9.01667 km/h
811 19-08-2020 18:00:00 28.24167 C 13.62 g/m*3 28.24 C 7.54167 km/h
812 19-08-2020 19:00:00 24.36667 C 14.99 g/m*3 24.37 C 2.4 km/h
813 19-08-2020 20:00:00 21.74167 C 14.34 g/m*3 21.74 C 6.95833 km/h
814 19-08-2020 21:00:00 20.45833 C 13.85 g/m*3 20.46 C 5.46667 km/h
815 19-08-2020 22:00:00 20.175 C 14.24 g/m*3 20.18 C 4.53333 km/h
816 19-08-2020 23:00:00 20.24167 C 14.47 g/m*3 20.24 C 4.66667 km/h
817 20-08-2020 00:00:00 19.96667 C 14.65 g/m*3 19.97 C 2.53333 km/h
818 20-08-2020 01:00:00 20.19167 C 14.62 g/m*3 20.19 C 2.8 km/h
819 20-08-2020 02:00:00 19.86667 C 14.89 g/m*3 19.87 C 5.09167 km/h
820 20-08-2020 03:00:00 19.05833 C 14.73 g/m*3 19.06 C 0.4 km/h
821 20-08-2020 04:00:00 18.95 C 14.81 g/m*3 18.95 C 0.26667 km/h
822 20-08-2020 05:00:00 18.85833 C 15.04 g/m*3 18.86 C 1.33333 km/h
823 20-08-2020 06:00:00 18.675 C 15.12 g/m*3 18.68 C 0 km/h
824 20-08-2020 07:00:00 18.61667 C 15.17 g/m*3 18.62 C 0 km/h
825 20-08-2020 08:00:00 19.275 C 15.9 g/m*3 19.27 C 0.4 km/h
Sensor: Nr:Datum:Temp:Abs-Feuchte:Windchill:Wind:
Aussen-T/F 826 20-08-2020 09:00:00 20.29167 C 16.89 g/m*3 20.29 C 1.60833 km/h
827 20-08-2020 10:00:00 20.96667 C 17.37 g/m*3 20.97 C 0.4 km/h
828 20-08-2020 11:00:00 22.30833 C 18.16 g/m*3 22.31 C 1.06667 km/h
829 20-08-2020 12:00:00 24.73333 C 17.86 g/m*3 24.73 C 2.26667 km/h
830 20-08-2020 13:00:00 26.49167 C 17.26 g/m*3 26.49 C 6.04167 km/h
831 20-08-2020 14:00:00 28.64167 C 17.44 g/m*3 28.64 C 6.15833 km/h
832 20-08-2020 15:00:00 30.34167 C 17.22 g/m*3 30.34 C 8.19167 km/h
833 20-08-2020 16:00:00 31.66667 C 17.27 g/m*3 31.67 C 10.08333 km/h
834 20-08-2020 17:00:00 32.56667 C 16.82 g/m*3 32.57 C 8.19167 km/h
835 20-08-2020 18:00:00 33.33333 C 16.18 g/m*3 33.33 C 8.725 km/h
836 20-08-2020 19:00:00 31.53333 C 17.84 g/m*3 31.53 C 4.55 km/h
837 20-08-2020 20:00:00 26.125 C 17.1 g/m*3 26.13 C 2.54167 km/h
838 20-08-2020 21:00:00 23.95 C 16.54 g/m*3 23.95 C 5.61667 km/h
839 20-08-2020 22:00:00 23.26667 C 16.19 g/m*3 23.27 C 4.26667 km/h
840 20-08-2020 23:00:00 22.975 C 15.94 g/m*3 22.98 C 4.66667 km/h
841 21-08-2020 00:00:00 23.6 C 15.9 g/m*3 23.6 C 4.00833 km/h
842 21-08-2020 01:00:00 23.625 C 15.99 g/m*3 23.63 C 4.41667 km/h
843 21-08-2020 02:00:00 23.88333 C 15.89 g/m*3 23.88 C 3.48333 km/h
844 21-08-2020 03:00:00 25.10833 C 15.61 g/m*3 25.11 C 4.28333 km/h
845 21-08-2020 04:00:00 24.375 C 15.83 g/m*3 24.38 C 4.01667 km/h
846 21-08-2020 05:00:00 23.05 C 15.97 g/m*3 23.05 C 3.73333 km/h
847 21-08-2020 06:00:00 22.15833 C 15.82 g/m*3 22.16 C 2.4 km/h
848 21-08-2020 07:00:00 22.29167 C 15.89 g/m*3 22.29 C 2.93333 km/h
849 21-08-2020 08:00:00 23.50833 C 16.93 g/m*3 23.51 C 2.13333 km/h
850 21-08-2020 09:00:00 24.94167 C 17.61 g/m*3 24.94 C 0.4 km/h
Sensor: Nr:Datum:Temp:Abs-Feuchte:Windchill:Wind:
Aussen-T/F 851 21-08-2020 10:00:00 25.725 C 16.82 g/m*3 25.73 C 4.15833 km/h
852 21-08-2020 11:00:00 26.54167 C 16.29 g/m*3 26.54 C 6.69167 km/h
853 21-08-2020 12:00:00 26.55833 C 16.34 g/m*3 26.56 C 4.55 km/h
854 21-08-2020 13:00:00 27.66667 C 16.31 g/m*3 27.67 C 8.325 km/h
855 21-08-2020 14:00:00 27.625 C 17.49 g/m*3 27.63 C 3.21667 km/h
856 21-08-2020 15:00:00 28.81667 C 16.56 g/m*3 28.82 C 4.55 km/h
857 21-08-2020 16:00:00 28.69167 C 18.31 g/m*3 28.69 C 0.26667 km/h
858 21-08-2020 17:00:00 27.175 C 19.06 g/m*3 27.18 C 0.26667 km/h
859 21-08-2020 18:00:00 27.80833 C 17.74 g/m*3 27.81 C 6.18333 km/h
860 21-08-2020 19:00:00 27.79167 C 16.8 g/m*3 27.79 C 3.89167 km/h
861 21-08-2020 20:00:00 25.85 C 16.96 g/m*3 25.85 C 0.4 km/h
862 21-08-2020 21:00:00 24.26667 C 16.18 g/m*3 24.27 C 0.66667 km/h
863 21-08-2020 22:00:00 23.35 C 16.22 g/m*3 23.35 C 1.06667 km/h
864 21-08-2020 23:00:00 22.25 C 16.1 g/m*3 22.25 C 0 km/h
865 22-08-2020 00:00:00 21.8 C 16 g/m*3 21.8 C 0 km/h
866 22-08-2020 01:00:00 21.65 C 15.88 g/m*3 21.65 C 0.8 km/h
867 22-08-2020 02:00:00 21.43333 C 15.75 g/m*3 21.43 C 0.93333 km/h
868 22-08-2020 03:00:00 21.28333 C 15.46 g/m*3 21.28 C 1.06667 km/h
869 22-08-2020 04:00:00 20.675 C 15.08 g/m*3 20.68 C 1.2 km/h
870 22-08-2020 05:00:00 20.525 C 15.21 g/m*3 20.53 C 1.86667 km/h
871 22-08-2020 06:00:00 20.94167 C 15.46 g/m*3 20.94 C 6.29167 km/h
872 22-08-2020 07:00:00 21.5 C 15.51 g/m*3 21.5 C 8.725 km/h
873 22-08-2020 08:00:00 21.525 C 15.33 g/m*3 21.53 C 9.00833 km/h
874 22-08-2020 09:00:00 21.70833 C 13.9 g/m*3 21.71 C 10.2 km/h
875 22-08-2020 10:00:00 21.79167 C 12.99 g/m*3 21.79 C 12.76667 km/h
Sensor: Nr:Datum:Temp:Abs-Feuchte:Windchill:Wind:
Aussen-T/F 876 22-08-2020 11:00:00 22.35 C 12.31 g/m*3 22.35 C 16.76667 km/h
877 22-08-2020 12:00:00 23.175 C 11.97 g/m*3 23.18 C 18.63333 km/h
878 22-08-2020 13:00:00 24.24167 C 11.78 g/m*3 24.24 C 17.96667 km/h
879 22-08-2020 14:00:00 25.16667 C 11.62 g/m*3 25.17 C 17.025 km/h
880 22-08-2020 15:00:00 25.38333 C 11.15 g/m*3 25.38 C 15.56667 km/h
881 22-08-2020 16:00:00 26.63333 C 10.93 g/m*3 26.63 C 18.9 km/h
882 22-08-2020 17:00:00 26.49167 C 10.8 g/m*3 26.49 C 16.5 km/h
883 22-08-2020 18:00:00 25.15833 C 10.7 g/m*3 25.16 C 16.9 km/h
884 22-08-2020 19:00:00 24.09167 C 10.99 g/m*3 24.09 C 9.01667 km/h
885 22-08-2020 20:00:00 22.5 C 11.53 g/m*3 22.5 C 3.075 km/h
886 22-08-2020 21:00:00 20.53333 C 11.65 g/m*3 20.53 C 0.53333 km/h
887 22-08-2020 22:00:00 19.75833 C 11.88 g/m*3 19.76 C 0 km/h
888 22-08-2020 23:00:00 18.63333 C 11.65 g/m*3 18.63 C 0 km/h
889 23-08-2020 00:00:00 18.81667 C 11.74 g/m*3 18.82 C 0 km/h
890 23-08-2020 01:00:00 18.90833 C 12.17 g/m*3 18.91 C 0 km/h
891 23-08-2020 02:00:00 18.375 C 12.3 g/m*3 18.38 C 0 km/h
892 23-08-2020 03:00:00 17.71667 C 12.09 g/m*3 17.72 C 0 km/h
893 23-08-2020 04:00:00 17.26667 C 12.08 g/m*3 17.27 C 0 km/h
894 23-08-2020 05:00:00 17.16667 C 11.97 g/m*3 17.17 C 0.4 km/h
895 23-08-2020 06:00:00 16.93333 C 11.82 g/m*3 16.93 C 2.13333 km/h
896 23-08-2020 07:00:00 16.49167 C 11.86 g/m*3 16.49 C 0.93333 km/h
897 23-08-2020 08:00:00 18.025 C 12.46 g/m*3 18.02 C 2.53333 km/h
898 23-08-2020 09:00:00 18.975 C 12.5 g/m*3 18.98 C 3.875 km/h
899 23-08-2020 10:00:00 20.11667 C 11.86 g/m*3 20.12 C 11.29167 km/h
900 23-08-2020 11:00:00 20.38333 C 10.96 g/m*3 20.38 C 15.16667 km/h
Sensor: Nr:Datum:Temp:Abs-Feuchte:Windchill:Wind:
Aussen-T/F 901 23-08-2020 12:00:00 20.825 C 10.77 g/m*3 20.83 C 15.43333 km/h
902 23-08-2020 13:00:00 21.175 C 9.96 g/m*3 21.18 C 15.03333 km/h
903 23-08-2020 14:00:00 22.1 C 9.6 g/m*3 22.1 C 15.56667 km/h
904 23-08-2020 15:00:00 22.2 C 9.8 g/m*3 22.2 C 15.83333 km/h
905 23-08-2020 16:00:00 22.34167 C 9.78 g/m*3 22.34 C 13.56667 km/h
906 23-08-2020 17:00:00 21.83333 C 10.03 g/m*3 21.83 C 13.15833 km/h
907 23-08-2020 18:00:00 20.60833 C 10.76 g/m*3 20.61 C 15.7 km/h
908 23-08-2020 19:00:00 18.925 C 11.53 g/m*3 18.93 C 12.36667 km/h
909 23-08-2020 20:00:00 18.26667 C 11.6 g/m*3 18.27 C 10.35833 km/h
910 23-08-2020 21:00:00 17.90833 C 11.51 g/m*3 17.91 C 11.43333 km/h
911 23-08-2020 22:00:00 17.50833 C 11.47 g/m*3 17.51 C 10.20833 km/h
912 23-08-2020 23:00:00 16.91667 C 11.4 g/m*3 16.92 C 7.10833 km/h
913 24-08-2020 00:00:00 16.85833 C 11.33 g/m*3 16.86 C 4.55 km/h
914 24-08-2020 01:00:00 16.425 C 11.36 g/m*3 16.43 C 2.53333 km/h
915 24-08-2020 02:00:00 16.5 C 11.46 g/m*3 16.5 C 4.40833 km/h
916 24-08-2020 03:00:00 16.41667 C 11.44 g/m*3 16.42 C 0.93333 km/h
917 24-08-2020 04:00:00 16.275 C 11.39 g/m*3 16.27 C 3.74167 km/h
918 24-08-2020 05:00:00 16.03333 C 11.25 g/m*3 16.03 C 2.93333 km/h
919 24-08-2020 06:00:00 15.65833 C 11.19 g/m*3 15.66 C 3.33333 km/h
920 24-08-2020 07:00:00 14.875 C 10.88 g/m*3 14.88 C 3.475 km/h
921 24-08-2020 08:00:00 14.76667 C 10.7 g/m*3 14.77 C 5.08333 km/h
922 24-08-2020 09:00:00 16.325 C 10.9 g/m*3 16.33 C 13.96667 km/h
923 24-08-2020 10:00:00 17.88333 C 11 g/m*3 17.88 C 12.76667 km/h
924 24-08-2020 11:00:00 18.9 C 10.91 g/m*3 18.9 C 13.7 km/h
925 24-08-2020 12:00:00 19.41667 C 11.09 g/m*3 19.42 C 10.48333 km/h
Sensor: Nr:Datum:Temp:Abs-Feuchte:Windchill:Wind:
Aussen-T/F 926 24-08-2020 13:00:00 19.71667 C 11.02 g/m*3 19.72 C 12.1 km/h
927 24-08-2020 14:00:00 19.98333 C 11.08 g/m*3 19.98 C 13.43333 km/h
928 24-08-2020 15:00:00 21.05833 C 10.61 g/m*3 21.06 C 14.36667 km/h
929 24-08-2020 16:00:00 21.95 C 10.29 g/m*3 21.95 C 11.96667 km/h
930 24-08-2020 17:00:00 22.70833 C 10.34 g/m*3 22.71 C 14.5 km/h
931 24-08-2020 18:00:00 22.86667 C 10.1 g/m*3 22.87 C 12.23333 km/h
932 24-08-2020 19:00:00 21.06667 C 10.16 g/m*3 21.07 C 6.45 km/h
933 24-08-2020 20:00:00 19.93333 C 10.46 g/m*3 19.93 C 8.45833 km/h
934 24-08-2020 21:00:00 18.23333 C 11.28 g/m*3 18.23 C 0.8 km/h
935 24-08-2020 22:00:00 16.96667 C 11.22 g/m*3 16.97 C 0 km/h
936 24-08-2020 23:00:00 16.80833 C 11.3 g/m*3 16.81 C 1.2 km/h
937 25-08-2020 00:00:00 16.83333 C 11.31 g/m*3 16.83 C 0.26667 km/h
938 25-08-2020 01:00:00 17.025 C 11.4 g/m*3 17.02 C 0 km/h
939 25-08-2020 02:00:00 16.74167 C 11.67 g/m*3 16.74 C 0.93333 km/h
940 25-08-2020 03:00:00 16.025 C 11.55 g/m*3 16.02 C 0.26667 km/h
941 25-08-2020 04:00:00 14.76667 C 10.82 g/m*3 14.77 C 3.2 km/h
942 25-08-2020 05:00:00 13.60833 C 10.46 g/m*3 13.61 C 0 km/h
943 25-08-2020 06:00:00 12.94167 C 10.3 g/m*3 12.94 C 0 km/h
944 25-08-2020 07:00:00 13.33333 C 10.72 g/m*3 13.33 C 0 km/h
945 25-08-2020 08:00:00 14.70833 C 11.35 g/m*3 14.71 C 0.66667 km/h
946 25-08-2020 09:00:00 15.925 C 11.57 g/m*3 15.93 C 0.13333 km/h
947 25-08-2020 10:00:00 17.125 C 11.92 g/m*3 17.13 C 0.4 km/h
948 25-08-2020 11:00:00 19.61667 C 12.12 g/m*3 19.62 C 4.41667 km/h
949 25-08-2020 12:00:00 21.9 C 11.4 g/m*3 21.9 C 7.51667 km/h
950 25-08-2020 13:00:00 22.65833 C 11.4 g/m*3 22.66 C 7.51667 km/h
Sensor: Nr:Datum:Temp:Abs-Feuchte:Windchill:Wind:
Aussen-T/F 951 25-08-2020 14:00:00 22.425 C 11.24 g/m*3 22.43 C 7.93333 km/h
952 25-08-2020 15:00:00 22.35833 C 11.97 g/m*3 22.36 C 0.93333 km/h
953 25-08-2020 16:00:00 21.05833 C 14.38 g/m*3 21.06 C 1.06667 km/h
954 25-08-2020 17:00:00 21.575 C 14.11 g/m*3 21.58 C 1.2 km/h
955 25-08-2020 18:00:00 26.175 C 12.05 g/m*3 26.18 C 6.56667 km/h
956 25-08-2020 19:00:00 25.375 C 12.07 g/m*3 25.38 C 3.74167 km/h
957 25-08-2020 20:00:00 22.625 C 11.37 g/m*3 22.63 C 2.4 km/h
958 25-08-2020 21:00:00 21.3 C 10.81 g/m*3 21.3 C 2.275 km/h
959 25-08-2020 22:00:00 20.83333 C 10.37 g/m*3 20.83 C 3.60833 km/h
960 25-08-2020 23:00:00 20.96667 C 10.56 g/m*3 20.97 C 2.28333 km/h
961 26-08-2020 00:00:00 21.03333 C 11.01 g/m*3 21.03 C 5.49167 km/h
962 26-08-2020 01:00:00 21.40833 C 11.91 g/m*3 21.41 C 8.18333 km/h
963 26-08-2020 02:00:00 22.49167 C 12.54 g/m*3 22.49 C 16.79167 km/h
964 26-08-2020 03:00:00 21.85833 C 12.18 g/m*3 21.86 C 23.325 km/h
965 26-08-2020 04:00:00 20.59167 C 11.03 g/m*3 20.59 C 21.7 km/h
966 26-08-2020 05:00:00 20.075 C 10.1 g/m*3 20.08 C 22.51667 km/h
967 26-08-2020 06:00:00 19.58333 C 9.74 g/m*3 19.58 C 21.575 km/h
968 26-08-2020 07:00:00 19.225 C 9.61 g/m*3 19.23 C 20.50833 km/h
969 26-08-2020 08:00:00 19.3 C 9.77 g/m*3 19.3 C 19.44167 km/h
970 26-08-2020 09:00:00 19.41667 C 9.99 g/m*3 19.42 C 18.24167 km/h
971 26-08-2020 10:00:00 19.55 C 10.14 g/m*3 19.55 C 17.83333 km/h
972 26-08-2020 11:00:00 19.74167 C 10.11 g/m*3 19.74 C 20.38333 km/h
973 26-08-2020 12:00:00 20.13333 C 10.57 g/m*3 20.13 C 19.70833 km/h
974 26-08-2020 13:00:00 21.025 C 10.87 g/m*3 21.03 C 21.84167 km/h
975 26-08-2020 14:00:00 21.675 C 10.51 g/m*3 21.68 C 21.04167 km/h
Sensor: Nr:Datum:Temp:Abs-Feuchte:Windchill:Wind:
Aussen-T/F 976 26-08-2020 15:00:00 22.49167 C 10.38 g/m*3 22.49 C 21.16667 km/h
977 26-08-2020 16:00:00 22.95833 C 10.24 g/m*3 22.96 C 26.95833 km/h
978 26-08-2020 17:00:00 22.70833 C 10.19 g/m*3 22.71 C 20.23333 km/h
979 26-08-2020 18:00:00 22.35 C 10.18 g/m*3 22.35 C 19.43333 km/h
980 26-08-2020 19:00:00 21.525 C 10.35 g/m*3 21.53 C 14.76667 km/h
981 26-08-2020 20:00:00 20.60833 C 10.65 g/m*3 20.61 C 15.96667 km/h
982 26-08-2020 21:00:00 19.93333 C 10.59 g/m*3 19.93 C 13.83333 km/h
983 26-08-2020 22:00:00 19.41667 C 10.58 g/m*3 19.42 C 6.98333 km/h
984 26-08-2020 23:00:00 18.69167 C 10.68 g/m*3 18.69 C 2.4 km/h
985 27-08-2020 00:00:00 18.05833 C 10.7 g/m*3 18.06 C 4.68333 km/h
986 27-08-2020 01:00:00 17.31667 C 10.74 g/m*3 17.32 C 2.4 km/h
987 27-08-2020 02:00:00 16.175 C 10.8 g/m*3 16.18 C 2.4 km/h
988 27-08-2020 03:00:00 15.49167 C 10.59 g/m*3 15.49 C 1.6 km/h
989 27-08-2020 04:00:00 14.05833 C 10.34 g/m*3 14.06 C 1.33333 km/h
990 27-08-2020 05:00:00 13.23333 C 10.16 g/m*3 13.23 C 0 km/h
991 27-08-2020 06:00:00 12.80833 C 10.11 g/m*3 12.81 C 0.93333 km/h
992 27-08-2020 07:00:00 12.76667 C 10.18 g/m*3 12.77 C 3.74167 km/h
993 27-08-2020 08:00:00 13.69167 C 10.58 g/m*3 13.69 C 4.43333 km/h
994 27-08-2020 09:00:00 15.975 C 11.09 g/m*3 15.98 C 9.56667 km/h
995 27-08-2020 10:00:00 17.20833 C 11.34 g/m*3 17.21 C 6.3 km/h
996 27-08-2020 11:00:00 18.9 C 11.43 g/m*3 18.9 C 6.575 km/h
997 27-08-2020 12:00:00 19.5 C 11.02 g/m*3 19.5 C 5.21667 km/h
998 27-08-2020 13:00:00 20.125 C 10.85 g/m*3 20.13 C 9.275 km/h
999 27-08-2020 14:00:00 21.30833 C 10.65 g/m*3 21.31 C 7.25833 km/h
1000 27-08-2020 15:00:00 22.59167 C 10.29 g/m*3 22.59 C 11.15833 km/h
Sensor: Nr:Datum:Temp:Abs-Feuchte:Windchill:Wind:
Aussen-T/F 1001 27-08-2020 16:00:00 24.475 C 10.24 g/m*3 24.48 C 10.48333 km/h
1002 27-08-2020 17:00:00 25.51667 C 9.95 g/m*3 25.52 C 10.9 km/h
1003 27-08-2020 18:00:00 25.83333 C 9.65 g/m*3 25.83 C 9.81667 km/h
1004 27-08-2020 19:00:00 24.425 C 10.33 g/m*3 24.43 C 4.15 km/h
1005 27-08-2020 20:00:00 19.86667 C 10.19 g/m*3 19.87 C 3.6 km/h
1006 27-08-2020 21:00:00 17.48333 C 9.89 g/m*3 17.48 C 2.53333 km/h
1007 27-08-2020 22:00:00 17.20833 C 10.11 g/m*3 17.21 C 0 km/h
1008 27-08-2020 23:00:00 17.40833 C 11.38 g/m*3 17.41 C 1.20833 km/h
1009 28-08-2020 00:00:00 16.45 C 11.64 g/m*3 16.45 C 3.73333 km/h
1010 28-08-2020 01:00:00 16.65833 C 11.88 g/m*3 16.66 C 1.46667 km/h
1011 28-08-2020 02:00:00 16.425 C 12.69 g/m*3 16.43 C 3.75 km/h
1012 28-08-2020 03:00:00 15.9 C 12.54 g/m*3 15.9 C 1.73333 km/h
1013 28-08-2020 04:00:00 15.725 C 12.62 g/m*3 15.73 C 5.61667 km/h
1014 28-08-2020 05:00:00 15.65 C 12.67 g/m*3 15.65 C 3.06667 km/h
1015 28-08-2020 06:00:00 15.525 C 12.58 g/m*3 15.53 C 4.14167 km/h
1016 28-08-2020 07:00:00 15.56667 C 12.61 g/m*3 15.57 C 2.66667 km/h
1017 28-08-2020 08:00:00 15.99167 C 12.94 g/m*3 15.99 C 1.73333 km/h
1018 28-08-2020 09:00:00 16.78333 C 12.74 g/m*3 16.78 C 3.20833 km/h
1019 28-08-2020 10:00:00 18.51667 C 12.23 g/m*3 18.52 C 8.875 km/h
1020 28-08-2020 11:00:00 19.95833 C 11.92 g/m*3 19.96 C 11.425 km/h
1021 28-08-2020 12:00:00 20.63333 C 11.87 g/m*3 20.63 C 8.89167 km/h
1022 28-08-2020 13:00:00 20.40833 C 11.52 g/m*3 20.41 C 10.09167 km/h
1023 28-08-2020 14:00:00 20.875 C 11.68 g/m*3 20.88 C 5.88333 km/h
1024 28-08-2020 15:00:00 21.38333 C 11.71 g/m*3 21.38 C 6.3 km/h
1025 28-08-2020 16:00:00 21.73333 C 11.91 g/m*3 21.73 C 9.53333 km/h
Sensor: Nr:Datum:Temp:Abs-Feuchte:Windchill:Wind:
Aussen-T/F 1026 28-08-2020 17:00:00 22.425 C 11.45 g/m*3 22.43 C 12.5 km/h
1027 28-08-2020 18:00:00 21.525 C 10.42 g/m*3 21.53 C 11.14167 km/h
1028 28-08-2020 19:00:00 20.36667 C 9.75 g/m*3 20.37 C 5.225 km/h
1029 28-08-2020 20:00:00 18.75 C 10.24 g/m*3 18.75 C 9.39167 km/h
1030 28-08-2020 21:00:00 14.975 C 10.65 g/m*3 14.98 C 5.78333 km/h
1031 28-08-2020 22:00:00 13.625 C 10.32 g/m*3 13.63 C 3.33333 km/h
1032 28-08-2020 23:00:00 12.95 C 10.1 g/m*3 12.95 C 1.46667 km/h
1033 29-08-2020 00:00:00 12.475 C 9.99 g/m*3 12.48 C 1.46667 km/h
1034 29-08-2020 01:00:00 12.425 C 10 g/m*3 12.43 C 2.93333 km/h
1035 29-08-2020 02:00:00 12.05 C 9.84 g/m*3 12.05 C 1.86667 km/h
1036 29-08-2020 03:00:00 11.71667 C 9.69 g/m*3 11.72 C 1.6 km/h
1037 29-08-2020 04:00:00 11.725 C 9.76 g/m*3 11.73 C 2.13333 km/h
1038 29-08-2020 05:00:00 11.15833 C 9.42 g/m*3 11.16 C 1.33333 km/h
1039 29-08-2020 06:00:00 10.96667 C 9.41 g/m*3 10.97 C 0 km/h
1040 29-08-2020 07:00:00 11.275 C 9.67 g/m*3 11.28 C 1.46667 km/h
1041 29-08-2020 08:00:00 12.3 C 10.34 g/m*3 12.3 C 3.88333 km/h
1042 29-08-2020 09:00:00 14.73333 C 10.81 g/m*3 14.73 C 10.75 km/h
1043 29-08-2020 10:00:00 16.60833 C 10.97 g/m*3 16.61 C 13.56667 km/h
1044 29-08-2020 11:00:00 17.73333 C 11.09 g/m*3 17.73 C 15.16667 km/h
1045 29-08-2020 12:00:00 18.84167 C 11.07 g/m*3 18.84 C 16.23333 km/h
1046 29-08-2020 13:00:00 19.35 C 10.91 g/m*3 19.35 C 14.09167 km/h
1047 29-08-2020 14:00:00 20.28333 C 10.69 g/m*3 20.28 C 15.16667 km/h
1048 29-08-2020 15:00:00 21.31667 C 10.32 g/m*3 21.32 C 13.16667 km/h
1049 29-08-2020 16:00:00 22.5 C 10.37 g/m*3 22.5 C 9.80833 km/h
1050 29-08-2020 17:00:00 22.75 C 10.18 g/m*3 22.75 C 11.55833 km/h
Sensor: Nr:Datum:Temp:Abs-Feuchte:Windchill:Wind:
Aussen-T/F 1051 29-08-2020 18:00:00 21.88333 C 10.72 g/m*3 21.88 C 2.15 km/h
1052 29-08-2020 19:00:00 22.025 C 10.82 g/m*3 22.03 C 3.075 km/h
1053 29-08-2020 20:00:00 19.88333 C 11.1 g/m*3 19.88 C 3.20833 km/h
1054 29-08-2020 21:00:00 17.675 C 11.4 g/m*3 17.68 C 8.06667 km/h
1055 29-08-2020 22:00:00 14.83333 C 11.01 g/m*3 14.83 C 7.25833 km/h
1056 29-08-2020 23:00:00 13.36667 C 10.55 g/m*3 13.37 C 4 km/h
1057 30-08-2020 00:00:00 13.025 C 10.5 g/m*3 13.03 C 0.66667 km/h
1058 30-08-2020 01:00:00 12.325 C 10.13 g/m*3 12.33 C 0.53333 km/h
1059 30-08-2020 02:00:00 11.58333 C 9.76 g/m*3 11.58 C 0 km/h
1060 30-08-2020 03:00:00 11.06667 C 9.48 g/m*3 11.07 C 0 km/h
1061 30-08-2020 04:00:00 10.675 C 9.32 g/m*3 10.68 C 0 km/h
1062 30-08-2020 05:00:00 10.86667 C 9.5 g/m*3 10.87 C 0 km/h
1063 30-08-2020 06:00:00 10.66667 C 9.39 g/m*3 10.67 C 0 km/h
1064 30-08-2020 07:00:00 11.1 C 9.67 g/m*3 11.1 C 1.2 km/h
1065 30-08-2020 08:00:00 11.94167 C 10.2 g/m*3 11.94 C 0.26667 km/h
1066 30-08-2020 09:00:00 13.15833 C 11.01 g/m*3 13.16 C 0.66667 km/h
1067 30-08-2020 10:00:00 14.78333 C 11.25 g/m*3 14.78 C 6.28333 km/h
1068 30-08-2020 11:00:00 16.20833 C 11.42 g/m*3 16.21 C 6.55833 km/h
1069 30-08-2020 12:00:00 17.03333 C 11.54 g/m*3 17.03 C 8.06667 km/h
1070 30-08-2020 13:00:00 18.01667 C 11.63 g/m*3 18.02 C 6.03333 km/h
1071 30-08-2020 14:00:00 18.85 C 11.5 g/m*3 18.85 C 5.75833 km/h
1072 30-08-2020 15:00:00 19.89167 C 11.21 g/m*3 19.89 C 7.38333 km/h
1073 30-08-2020 16:00:00 21.325 C 10.55 g/m*3 21.33 C 8.06667 km/h
1074 30-08-2020 17:00:00 21.625 C 10.34 g/m*3 21.63 C 7.79167 km/h
1075 30-08-2020 18:00:00 21.61667 C 9.92 g/m*3 21.62 C 5.5 km/h
Sensor: Nr:Datum:Temp:Abs-Feuchte:Windchill:Wind:
Aussen-T/F 1076 30-08-2020 19:00:00 20.63333 C 10.39 g/m*3 20.63 C 2.15 km/h
1077 30-08-2020 20:00:00 18.9 C 10.81 g/m*3 18.9 C 3.49167 km/h
1078 30-08-2020 21:00:00 18.875 C 11.53 g/m*3 18.88 C 4.01667 km/h
1079 30-08-2020 22:00:00 17.65833 C 11.53 g/m*3 17.66 C 0 km/h
1080 30-08-2020 23:00:00 16.69167 C 11.34 g/m*3 16.69 C 0 km/h
1081 31-08-2020 00:00:00 16.06667 C 11.23 g/m*3 16.07 C 0 km/h
1082 31-08-2020 01:00:00 15.70833 C 11.37 g/m*3 15.71 C 0 km/h
1083 31-08-2020 02:00:00 15.46667 C 11.4 g/m*3 15.47 C 0 km/h
1084 31-08-2020 03:00:00 14.65833 C 10.85 g/m*3 14.66 C 0 km/h
1085 31-08-2020 04:00:00 13.725 C 10.62 g/m*3 13.73 C 0 km/h
1086 31-08-2020 05:00:00 13.15833 C 10.37 g/m*3 13.16 C 0.26667 km/h
1087 31-08-2020 06:00:00 12.70833 C 10.28 g/m*3 12.71 C 0.4 km/h
1088 31-08-2020 07:00:00 13.19167 C 10.71 g/m*3 13.19 C 0 km/h
1089 31-08-2020 08:00:00 14.24167 C 11.26 g/m*3 14.24 C 0 km/h
1090 31-08-2020 09:00:00 15.55 C 11.74 g/m*3 15.55 C 0.4 km/h
1091 31-08-2020 10:00:00 16.6 C 12.04 g/m*3 16.6 C 4.69167 km/h
1092 31-08-2020 11:00:00 17.70833 C 12.16 g/m*3 17.71 C 6.425 km/h
1093 31-08-2020 12:00:00 18.95833 C 12.61 g/m*3 18.96 C 6.975 km/h
1094 31-08-2020 13:00:00 19.55 C 12.68 g/m*3 19.55 C 6.69167 km/h
1095 31-08-2020 14:00:00 18.38333 C 12.83 g/m*3 18.38 C 7.64167 km/h
1096 31-08-2020 15:00:00 16.35 C 12.76 g/m*3 16.35 C 1.2 km/h
1097 31-08-2020 16:00:00 16.74167 C 13.17 g/m*3 16.74 C 0 km/h
1098 31-08-2020 17:00:00 16.4 C 12.91 g/m*3 16.4 C 0.4 km/h
1099 31-08-2020 18:00:00 16.025 C 12.78 g/m*3 16.02 C 0.66667 km/h
1100 31-08-2020 19:00:00 15.6 C 12.45 g/m*3 15.6 C 2.26667 km/h
Sensor: Nr:Datum:Temp:Abs-Feuchte:Windchill:Wind:
Aussen-T/F 1101 31-08-2020 20:00:00 14.91667 C 12 g/m*3 14.92 C 2.13333 km/h
1102 31-08-2020 21:00:00 14.56667 C 11.86 g/m*3 14.57 C 0.66667 km/h
1103 31-08-2020 22:00:00 14.49167 C 11.84 g/m*3 14.49 C 0.4 km/h
1104 31-08-2020 23:00:00 14.45833 C 11.91 g/m*3 14.46 C 0.53333 km/h
1105 01-09-2020 00:00:00 14.15 C 11.69 g/m*3 14.15 C 0.26667 km/h
1106 01-09-2020 01:00:00 14.06667 C 11.63 g/m*3 14.07 C 0 km/h
1107 01-09-2020 02:00:00 13.66667 C 11.34 g/m*3 13.67 C 0.66667 km/h
1108 01-09-2020 03:00:00 13.125 C 10.97 g/m*3 13.13 C 2.4 km/h
1109 01-09-2020 04:00:00 12.94167 C 10.86 g/m*3 12.94 C 1.33333 km/h
1110 01-09-2020 05:00:00 12.55833 C 10.63 g/m*3 12.56 C 2.66667 km/h
1111 01-09-2020 06:00:00 12.14167 C 10.4 g/m*3 12.14 C 2.13333 km/h
1112 01-09-2020 07:00:00 12.50833 C 10.67 g/m*3 12.51 C 0 km/h
1113 01-09-2020 08:00:00 13.40833 C 11.28 g/m*3 13.41 C 0 km/h
1114 01-09-2020 09:00:00 13.875 C 11.61 g/m*3 13.88 C 0 km/h
1115 01-09-2020 10:00:00 14.26667 C 11.86 g/m*3 14.27 C 1.33333 km/h
1116 01-09-2020 11:00:00 15.35833 C 12.14 g/m*3 15.36 C 2.13333 km/h
1117 01-09-2020 12:00:00 17 C 12.36 g/m*3 17 C 1.6 km/h
1118 01-09-2020 13:00:00 18.525 C 11.57 g/m*3 18.52 C 6.85833 km/h
1119 01-09-2020 14:00:00 19.45833 C 10.77 g/m*3 19.46 C 8.475 km/h
1120 01-09-2020 15:00:00 19.99167 C 10.44 g/m*3 19.99 C 4.83333 km/h
1121 01-09-2020 16:00:00 18.60833 C 11.8 g/m*3 18.61 C 5.64167 km/h
1122 01-09-2020 17:00:00 17.18333 C 11.62 g/m*3 17.18 C 4.43333 km/h
1123 01-09-2020 18:00:00 16.375 C 11.76 g/m*3 16.38 C 0.8 km/h
1124 01-09-2020 19:00:00 16.5 C 11.99 g/m*3 16.5 C 1.46667 km/h
1125 01-09-2020 20:00:00 15.26667 C 11.15 g/m*3 15.27 C 2.53333 km/h
Sensor: Nr:Datum:Temp:Abs-Feuchte:Windchill:Wind:
Aussen-T/F 1126 01-09-2020 21:00:00 14.15 C 10.8 g/m*3 14.15 C 2 km/h
1127 01-09-2020 22:00:00 13.7 C 10.68 g/m*3 13.7 C 0.26667 km/h
1128 01-09-2020 23:00:00 13.30833 C 10.61 g/m*3 13.31 C 0 km/h
1129 02-09-2020 00:00:00 13.30833 C 10.72 g/m*3 13.31 C 0 km/h
1130 02-09-2020 01:00:00 13.2 C 10.68 g/m*3 13.2 C 0.4 km/h
1131 02-09-2020 02:00:00 12.90833 C 10.51 g/m*3 12.91 C 0.26667 km/h
1132 02-09-2020 03:00:00 12.80833 C 10.53 g/m*3 12.81 C 0.4 km/h
1133 02-09-2020 04:00:00 12.70833 C 10.47 g/m*3 12.71 C 0 km/h
1134 02-09-2020 05:00:00 12.51667 C 10.41 g/m*3 12.52 C 0 km/h
1135 02-09-2020 06:00:00 12.3 C 10.32 g/m*3 12.3 C 0.26667 km/h
1136 02-09-2020 07:00:00 11.59167 C 9.87 g/m*3 11.59 C 0.93333 km/h
1137 02-09-2020 08:00:00 11.49167 C 9.85 g/m*3 11.49 C 0.26667 km/h
1138 02-09-2020 09:00:00 12.83333 C 10.7 g/m*3 12.83 C 0.26667 km/h
1139 02-09-2020 10:00:00 14.63333 C 11.02 g/m*3 14.63 C 1.33333 km/h
1140 02-09-2020 11:00:00 16.36667 C 11.09 g/m*3 16.37 C 1.6 km/h
1141 02-09-2020 12:00:00 17.19167 C 11.38 g/m*3 17.19 C 1.33333 km/h
1142 02-09-2020 13:00:00 18.68333 C 10.54 g/m*3 18.68 C 3.88333 km/h
1143 02-09-2020 14:00:00 19.825 C 9.65 g/m*3 19.83 C 5.76667 km/h
1144 02-09-2020 15:00:00 21.1 C 9.44 g/m*3 21.1 C 6.43333 km/h
1145 02-09-2020 16:00:00 22.025 C 9.43 g/m*3 22.03 C 4.16667 km/h
1146 02-09-2020 17:00:00 23.05 C 9.91 g/m*3 23.05 C 3.89167 km/h
1147 02-09-2020 18:00:00 19.98333 C 11.31 g/m*3 19.98 C 0.8 km/h
1148 02-09-2020 19:00:00 18.55833 C 10.64 g/m*3 18.56 C 3.75833 km/h
1149 02-09-2020 20:00:00 16.25 C 9.57 g/m*3 16.25 C 7.39167 km/h
1150 02-09-2020 21:00:00 14.8 C 9.7 g/m*3 14.8 C 0 km/h
Sensor: Nr:Datum:Temp:Abs-Feuchte:Windchill:Wind:
Aussen-T/F 1151 02-09-2020 22:00:00 14.16667 C 10.04 g/m*3 14.17 C 0 km/h
1152 02-09-2020 23:00:00 13.5 C 9.67 g/m*3 13.5 C 0 km/h
1153 03-09-2020 00:00:00 12.325 C 9.24 g/m*3 12.33 C 0 km/h
1154 03-09-2020 01:00:00 11.38333 C 9 g/m*3 11.38 C 0 km/h
1155 03-09-2020 02:00:00 10.55833 C 8.75 g/m*3 10.56 C 0 km/h
1156 03-09-2020 03:00:00 10.275 C 8.76 g/m*3 10.28 C 0 km/h
1157 03-09-2020 04:00:00 10.05833 C 8.73 g/m*3 10.06 C 0 km/h
1158 03-09-2020 05:00:00 9.84167 C 8.69 g/m*3 9.84 C 0.26667 km/h
1159 03-09-2020 06:00:00 10.14167 C 8.91 g/m*3 10.14 C 0.13333 km/h
1160 03-09-2020 07:00:00 10.35833 C 9.04 g/m*3 10.36 C 0.13333 km/h
1161 03-09-2020 08:00:00 11.25833 C 9.47 g/m*3 11.26 C 0.8 km/h
1162 03-09-2020 09:00:00 12.76667 C 9.91 g/m*3 12.77 C 1.33333 km/h
1163 03-09-2020 10:00:00 14.60833 C 10.5 g/m*3 14.61 C 0.53333 km/h
1164 03-09-2020 11:00:00 17.63333 C 11.13 g/m*3 17.63 C 6.85833 km/h
1165 03-09-2020 12:00:00 19.33333 C 11.12 g/m*3 19.33 C 8.475 km/h
1166 03-09-2020 13:00:00 19.08333 C 11.57 g/m*3 19.08 C 7.39167 km/h
1167 03-09-2020 14:00:00 17.73333 C 11.89 g/m*3 17.73 C 4.3 km/h
1168 03-09-2020 15:00:00 17.99167 C 12.31 g/m*3 17.99 C 5.225 km/h
1169 03-09-2020 16:00:00 16.2 C 12.32 g/m*3 16.2 C 3.475 km/h
1170 03-09-2020 17:00:00 15.85833 C 12.52 g/m*3 15.86 C 1.2 km/h
1171 03-09-2020 18:00:00 16.11667 C 12.82 g/m*3 16.12 C 1.33333 km/h
1172 03-09-2020 19:00:00 15.95 C 12.75 g/m*3 15.95 C 2.53333 km/h
1173 03-09-2020 20:00:00 15.5 C 12.43 g/m*3 15.5 C 1.73333 km/h
1174 03-09-2020 21:00:00 15.28333 C 12.34 g/m*3 15.28 C 2 km/h
1175 03-09-2020 22:00:00 15.63333 C 12.57 g/m*3 15.63 C 0.66667 km/h
Sensor: Nr:Datum:Temp:Abs-Feuchte:Windchill:Wind:
Aussen-T/F 1176 03-09-2020 23:00:00 15.75833 C 12.62 g/m*3 15.76 C 0.13333 km/h
1177 04-09-2020 00:00:00 15.825 C 12.67 g/m*3 15.83 C 0 km/h
1178 04-09-2020 01:00:00 15.78333 C 12.64 g/m*3 15.78 C 0.4 km/h
1179 04-09-2020 02:00:00 15.84167 C 12.54 g/m*3 15.84 C 1.06667 km/h
1180 04-09-2020 03:00:00 16.46667 C 12.85 g/m*3 16.47 C 0.8 km/h
1181 04-09-2020 04:00:00 16.7 C 12.81 g/m*3 16.7 C 0 km/h
1182 04-09-2020 05:00:00 16.7 C 12.85 g/m*3 16.7 C 0 km/h
1183 04-09-2020 06:00:00 16.58333 C 12.7 g/m*3 16.58 C 1.73333 km/h
1184 04-09-2020 07:00:00 16.78333 C 12.7 g/m*3 16.78 C 0.8 km/h
1185 04-09-2020 08:00:00 17.175 C 13 g/m*3 17.18 C 0.4 km/h
1186 04-09-2020 09:00:00 18.35 C 13.41 g/m*3 18.35 C 1.2 km/h
1187 04-09-2020 10:00:00 19.25833 C 13.68 g/m*3 19.26 C 0.13333 km/h
1188 04-09-2020 11:00:00 20.375 C 13.81 g/m*3 20.38 C 1.86667 km/h
1189 04-09-2020 12:00:00 22.45 C 14.06 g/m*3 22.45 C 10.49167 km/h
1190 04-09-2020 13:00:00 24.5 C 14.62 g/m*3 24.5 C 14.23333 km/h
1191 04-09-2020 14:00:00 25.675 C 14.66 g/m*3 25.68 C 10.20833 km/h
1192 04-09-2020 15:00:00 25.71667 C 14.64 g/m*3 25.72 C 4.94167 km/h
1193 04-09-2020 16:00:00 26.34167 C 14.62 g/m*3 26.34 C 2.93333 km/h
1194 04-09-2020 17:00:00 28.15833 C 15.38 g/m*3 28.16 C 2.40833 km/h
1195 04-09-2020 18:00:00 25.54167 C 15.78 g/m*3 25.54 C 7.80833 km/h
1196 04-09-2020 19:00:00 23.40833 C 15.83 g/m*3 23.41 C 4.4 km/h
1197 04-09-2020 20:00:00 21.325 C 15.4 g/m*3 21.33 C 1.475 km/h
1198 04-09-2020 21:00:00 20.075 C 15.14 g/m*3 20.08 C 2.13333 km/h
1199 04-09-2020 22:00:00 19.50833 C 14.64 g/m*3 19.51 C 0.53333 km/h
1200 04-09-2020 23:00:00 18.725 C 14.47 g/m*3 18.73 C 0 km/h
Sensor: Nr:Datum:Temp:Abs-Feuchte:Windchill:Wind:
Aussen-T/F 1201 05-09-2020 00:00:00 17.79167 C 13.8 g/m*3 17.79 C 2 km/h
1202 05-09-2020 01:00:00 16.61667 C 13.06 g/m*3 16.62 C 0 km/h
1203 05-09-2020 02:00:00 15.875 C 12.68 g/m*3 15.88 C 0 km/h
1204 05-09-2020 03:00:00 16.04167 C 12.98 g/m*3 16.04 C 0 km/h
1205 05-09-2020 04:00:00 16.50833 C 13.46 g/m*3 16.51 C 0.4 km/h
1206 05-09-2020 05:00:00 16.7 C 13.58 g/m*3 16.7 C 0 km/h
1207 05-09-2020 06:00:00 16.25833 C 12.62 g/m*3 16.26 C 6.04167 km/h
1208 05-09-2020 07:00:00 15.81667 C 11.42 g/m*3 15.82 C 4.00833 km/h
1209 05-09-2020 08:00:00 15.50833 C 11.31 g/m*3 15.51 C 2.26667 km/h
1210 05-09-2020 09:00:00 15.875 C 11.35 g/m*3 15.88 C 3.475 km/h
1211 05-09-2020 10:00:00 16.64167 C 11.42 g/m*3 16.64 C 6.84167 km/h
1212 05-09-2020 11:00:00 17.79167 C 11.57 g/m*3 17.79 C 7.93333 km/h
1213 05-09-2020 12:00:00 18.36667 C 11.37 g/m*3 18.37 C 11.15 km/h
1214 05-09-2020 13:00:00 18.64167 C 11.31 g/m*3 18.64 C 11.025 km/h
1215 05-09-2020 14:00:00 18.825 C 11.17 g/m*3 18.83 C 12.89167 km/h
1216 05-09-2020 15:00:00 17.76667 C 11.07 g/m*3 17.77 C 11.3 km/h
1217 05-09-2020 16:00:00 18.68333 C 10.68 g/m*3 18.68 C 9.69167 km/h
1218 05-09-2020 17:00:00 19.44167 C 10.05 g/m*3 19.44 C 9.425 km/h
1219 05-09-2020 18:00:00 20.2 C 9.08 g/m*3 20.2 C 7.91667 km/h
1220 05-09-2020 19:00:00 18.6 C 9.23 g/m*3 18.6 C 1.74167 km/h
1221 05-09-2020 20:00:00 16.40833 C 9.19 g/m*3 16.41 C 3.60833 km/h
1222 05-09-2020 21:00:00 14.35833 C 9.35 g/m*3 14.36 C 3.06667 km/h
1223 05-09-2020 22:00:00 13.725 C 9.27 g/m*3 13.73 C 3.6 km/h
1224 05-09-2020 23:00:00 13.08333 C 9.22 g/m*3 13.08 C 4.53333 km/h
1225 06-09-2020 00:00:00 12.55 C 9.19 g/m*3 12.55 C 2.8 km/h
Sensor: Nr:Datum:Temp:Abs-Feuchte:Windchill:Wind:
Aussen-T/F 1226 06-09-2020 01:00:00 11.725 C 9.08 g/m*3 11.73 C 0 km/h
1227 06-09-2020 02:00:00 10.51667 C 8.62 g/m*3 10.52 C 0.13333 km/h
1228 06-09-2020 03:00:00 9.65 C 8.34 g/m*3 9.65 C 0.26667 km/h
1229 06-09-2020 04:00:00 9.06667 C 8.17 g/m*3 9.07 C 0.13333 km/h
1230 06-09-2020 05:00:00 8.60833 C 8.03 g/m*3 8.61 C 0.4 km/h
1231 06-09-2020 06:00:00 8.175 C 7.85 g/m*3 8.18 C 0 km/h
1232 06-09-2020 07:00:00 8.03333 C 7.85 g/m*3 8.03 C 0.13333 km/h
1233 06-09-2020 08:00:00 8.125 C 7.92 g/m*3 8.13 C 0.53333 km/h
1234 06-09-2020 09:00:00 8.96667 C 8.42 g/m*3 8.97 C 1.33333 km/h
1235 06-09-2020 10:00:00 10.61667 C 9.31 g/m*3 10.62 C 0.4 km/h
1236 06-09-2020 11:00:00 13.84167 C 9.64 g/m*3 13.84 C 0.53333 km/h
1237 06-09-2020 12:00:00 16.43333 C 9.18 g/m*3 16.43 C 4.825 km/h
1238 06-09-2020 13:00:00 17.45 C 8.83 g/m*3 17.45 C 4.03333 km/h
1239 06-09-2020 14:00:00 18.61667 C 8.8 g/m*3 18.62 C 4.55 km/h
1240 06-09-2020 15:00:00 19.04167 C 8.6 g/m*3 19.04 C 6.30833 km/h
1241 06-09-2020 16:00:00 18.5 C 8.43 g/m*3 18.5 C 5.50833 km/h
1242 06-09-2020 17:00:00 18.56667 C 8.68 g/m*3 18.57 C 7.53333 km/h
1243 06-09-2020 18:00:00 19.11667 C 8.76 g/m*3 19.12 C 3.34167 km/h
1244 06-09-2020 19:00:00 18.65 C 8.87 g/m*3 18.65 C 2.4 km/h
1245 06-09-2020 20:00:00 14.71667 C 8.58 g/m*3 14.72 C 0 km/h
1246 06-09-2020 21:00:00 12.83333 C 8.62 g/m*3 12.83 C 0 km/h
1247 06-09-2020 22:00:00 12.35 C 8.89 g/m*3 12.35 C 0 km/h
1248 06-09-2020 23:00:00 12.575 C 9.02 g/m*3 12.58 C 0.26667 km/h
1249 07-09-2020 00:00:00 12.59167 C 9.03 g/m*3 12.59 C 0.13333 km/h
1250 07-09-2020 01:00:00 12.19167 C 8.95 g/m*3 12.19 C 0 km/h
Sensor: Nr:Datum:Temp:Abs-Feuchte:Windchill:Wind:
Aussen-T/F 1251 07-09-2020 02:00:00 10.725 C 8.44 g/m*3 10.73 C 0.13333 km/h
1252 07-09-2020 03:00:00 9.475 C 8.1 g/m*3 9.48 C 0.13333 km/h
1253 07-09-2020 04:00:00 8.80833 C 7.93 g/m*3 8.81 C 0.13333 km/h
1254 07-09-2020 05:00:00 8.24167 C 7.76 g/m*3 8.24 C 0.4 km/h
1255 07-09-2020 06:00:00 7.81667 C 7.62 g/m*3 7.82 C 0.53333 km/h
1256 07-09-2020 07:00:00 7.6 C 7.57 g/m*3 7.6 C 0 km/h
1257 07-09-2020 08:00:00 7.98333 C 7.85 g/m*3 7.98 C 0.26667 km/h
1258 07-09-2020 09:00:00 8.95833 C 8.39 g/m*3 8.96 C 0.4 km/h
1259 07-09-2020 10:00:00 10.56667 C 9.29 g/m*3 10.57 C 0.93333 km/h
1260 07-09-2020 11:00:00 13.66667 C 10.23 g/m*3 13.67 C 1.73333 km/h
1261 07-09-2020 12:00:00 16.475 C 10 g/m*3 16.48 C 3.34167 km/h
1262 07-09-2020 13:00:00 18.13333 C 9.44 g/m*3 18.13 C 3.875 km/h
1263 07-09-2020 14:00:00 19.43333 C 8.85 g/m*3 19.43 C 6.71667 km/h
1264 07-09-2020 15:00:00 20.7 C 8.84 g/m*3 20.7 C 5.475 km/h
1265 07-09-2020 16:00:00 21.69167 C 8.87 g/m*3 21.69 C 5.35 km/h
1266 07-09-2020 17:00:00 22.85 C 9.02 g/m*3 22.85 C 3.74167 km/h
1267 07-09-2020 18:00:00 22.425 C 10.01 g/m*3 22.43 C 0.66667 km/h
1268 07-09-2020 19:00:00 20.85 C 10.05 g/m*3 20.85 C 2.53333 km/h
1269 07-09-2020 20:00:00 16.58333 C 9.18 g/m*3 16.58 C 3.73333 km/h
1270 07-09-2020 21:00:00 14.21667 C 9.18 g/m*3 14.22 C 0.53333 km/h
1271 07-09-2020 22:00:00 12.7 C 8.95 g/m*3 12.7 C 0 km/h
1272 07-09-2020 23:00:00 11.675 C 8.68 g/m*3 11.68 C 0 km/h
1273 08-09-2020 00:00:00 10.875 C 8.49 g/m*3 10.88 C 0 km/h
1274 08-09-2020 01:00:00 10.425 C 8.43 g/m*3 10.43 C 0.13333 km/h
1275 08-09-2020 02:00:00 9.775 C 8.24 g/m*3 9.78 C 0 km/h
Sensor: Nr:Datum:Temp:Abs-Feuchte:Windchill:Wind:
Aussen-T/F 1276 08-09-2020 03:00:00 9.25 C 8.1 g/m*3 9.25 C 0 km/h
1277 08-09-2020 04:00:00 8.725 C 7.93 g/m*3 8.73 C 0 km/h
1278 08-09-2020 05:00:00 8.41667 C 7.86 g/m*3 8.42 C 0 km/h
1279 08-09-2020 06:00:00 8.05833 C 7.72 g/m*3 8.06 C 0 km/h
1280 08-09-2020 07:00:00 8.125 C 7.83 g/m*3 8.13 C 0 km/h
1281 08-09-2020 08:00:00 8.76667 C 8.17 g/m*3 8.77 C 0 km/h
1282 08-09-2020 09:00:00 9.725 C 8.68 g/m*3 9.73 C 0.8 km/h
1283 08-09-2020 10:00:00 12.20833 C 9.76 g/m*3 12.21 C 2.53333 km/h
1284 08-09-2020 11:00:00 17.40833 C 10.33 g/m*3 17.41 C 6.99167 km/h
1285 08-09-2020 12:00:00 20.70833 C 10.33 g/m*3 20.71 C 10.89167 km/h
1286 08-09-2020 13:00:00 22.10833 C 10.22 g/m*3 22.11 C 10.48333 km/h
1287 08-09-2020 14:00:00 23.06667 C 10.26 g/m*3 23.07 C 9.55833 km/h
1288 08-09-2020 15:00:00 24.23333 C 10.27 g/m*3 24.23 C 10.74167 km/h
1289 08-09-2020 16:00:00 25.63333 C 10.38 g/m*3 25.63 C 9.14167 km/h
1290 08-09-2020 17:00:00 27.58333 C 10.63 g/m*3 27.58 C 9 km/h
1291 08-09-2020 18:00:00 27.83333 C 11.18 g/m*3 27.83 C 6.43333 km/h
1292 08-09-2020 19:00:00 25.13333 C 12.47 g/m*3 25.13 C 4.95 km/h
1293 08-09-2020 20:00:00 20.625 C 12.44 g/m*3 20.63 C 1.46667 km/h
1294 08-09-2020 21:00:00 18.66667 C 12.26 g/m*3 18.67 C 2.26667 km/h
1295 08-09-2020 22:00:00 17.56667 C 12.04 g/m*3 17.57 C 2.66667 km/h
1296 08-09-2020 23:00:00 16.24167 C 11.73 g/m*3 16.24 C 0 km/h
1297 09-09-2020 00:00:00 15.15833 C 11.41 g/m*3 15.16 C 0 km/h
1298 09-09-2020 01:00:00 14.46667 C 11.23 g/m*3 14.47 C 0 km/h
1299 09-09-2020 02:00:00 13.90833 C 10.98 g/m*3 13.91 C 0 km/h
1300 09-09-2020 03:00:00 13.35 C 10.76 g/m*3 13.35 C 0 km/h
Sensor: Nr:Datum:Temp:Abs-Feuchte:Windchill:Wind:
Aussen-T/F 1301 09-09-2020 04:00:00 12.86667 C 10.49 g/m*3 12.87 C 0 km/h
1302 09-09-2020 05:00:00 12.46667 C 10.32 g/m*3 12.47 C 0 km/h
1303 09-09-2020 06:00:00 12.18333 C 10.2 g/m*3 12.18 C 0 km/h
1304 09-09-2020 07:00:00 12.01667 C 10.14 g/m*3 12.02 C 0.13333 km/h
1305 09-09-2020 08:00:00 12.41667 C 10.47 g/m*3 12.42 C 1.2 km/h
1306 09-09-2020 09:00:00 13.48333 C 11.25 g/m*3 13.48 C 1.6 km/h
1307 09-09-2020 10:00:00 16.26667 C 12.88 g/m*3 16.27 C 0.13333 km/h
1308 09-09-2020 11:00:00 20.69167 C 13.52 g/m*3 20.69 C 0.53333 km/h
1309 09-09-2020 12:00:00 22.36667 C 13.68 g/m*3 22.37 C 3.74167 km/h
1310 09-09-2020 13:00:00 22.85 C 13.87 g/m*3 22.85 C 5.225 km/h
1311 09-09-2020 14:00:00 23.69167 C 13.99 g/m*3 23.69 C 7.66667 km/h
1312 09-09-2020 15:00:00 24.1 C 14.19 g/m*3 24.1 C 7.38333 km/h
1313 09-09-2020 16:00:00 23.925 C 14.06 g/m*3 23.93 C 4.55 km/h
1314 09-09-2020 17:00:00 24.525 C 14.16 g/m*3 24.53 C 4.54167 km/h
1315 09-09-2020 18:00:00 24.46667 C 14.72 g/m*3 24.47 C 1.20833 km/h
1316 09-09-2020 19:00:00 22.70833 C 14.54 g/m*3 22.71 C 0 km/h
1317 09-09-2020 20:00:00 21.025 C 14.08 g/m*3 21.03 C 0.13333 km/h
1318 09-09-2020 21:00:00 19.75 C 13.58 g/m*3 19.75 C 4.8 km/h
1319 09-09-2020 22:00:00 19.65833 C 13.75 g/m*3 19.66 C 1.2 km/h
1320 09-09-2020 23:00:00 20.05833 C 13.73 g/m*3 20.06 C 4.00833 km/h
1321 10-09-2020 00:00:00 20.18333 C 14.59 g/m*3 20.18 C 10.89167 km/h
1322 10-09-2020 01:00:00 18.69167 C 14.51 g/m*3 18.69 C 8.6 km/h
1323 10-09-2020 02:00:00 17.675 C 13.63 g/m*3 17.68 C 4.55833 km/h
1324 10-09-2020 03:00:00 17.175 C 13.05 g/m*3 17.18 C 2.00833 km/h
1325 10-09-2020 04:00:00 16.85833 C 12.55 g/m*3 16.86 C 1.06667 km/h
Sensor: Nr:Datum:Temp:Abs-Feuchte:Windchill:Wind:
Aussen-T/F 1326 10-09-2020 05:00:00 16.56667 C 11.82 g/m*3 16.57 C 2.13333 km/h
1327 10-09-2020 06:00:00 16.08333 C 11.56 g/m*3 16.08 C 3.075 km/h
1328 10-09-2020 07:00:00 15.475 C 11.38 g/m*3 15.48 C 5.1 km/h
1329 10-09-2020 08:00:00 15.35833 C 11.29 g/m*3 15.36 C 2.4 km/h
1330 10-09-2020 09:00:00 15.56667 C 11.39 g/m*3 15.57 C 3.875 km/h
1331 10-09-2020 10:00:00 15.93333 C 10.87 g/m*3 15.93 C 6.71667 km/h
1332 10-09-2020 11:00:00 16.7 C 10.67 g/m*3 16.7 C 5.36667 km/h
1333 10-09-2020 12:00:00 17.83333 C 10.28 g/m*3 17.83 C 7.24167 km/h
1334 10-09-2020 13:00:00 18.54167 C 9.52 g/m*3 18.54 C 5.9 km/h
1335 10-09-2020 14:00:00 19.66667 C 9.96 g/m*3 19.67 C 5.5 km/h
1336 10-09-2020 15:00:00 20.84167 C 10.16 g/m*3 20.84 C 7.11667 km/h
1337 10-09-2020 16:00:00 22.06667 C 10.31 g/m*3 22.07 C 7.65833 km/h
1338 10-09-2020 17:00:00 22.73333 C 10.27 g/m*3 22.73 C 8.61667 km/h
1339 10-09-2020 18:00:00 22.45 C 10.24 g/m*3 22.45 C 5.225 km/h
1340 10-09-2020 19:00:00 20.80833 C 9.8 g/m*3 20.81 C 2 km/h
1341 10-09-2020 20:00:00 17.675 C 9.25 g/m*3 17.68 C 1.33333 km/h
1342 10-09-2020 21:00:00 15.60833 C 8.98 g/m*3 15.61 C 3.2 km/h
1343 10-09-2020 22:00:00 14.325 C 9.01 g/m*3 14.33 C 0.4 km/h
1344 10-09-2020 23:00:00 12.7 C 8.75 g/m*3 12.7 C 0 km/h
1345 11-09-2020 00:00:00 12.08333 C 8.78 g/m*3 12.08 C 0 km/h
1346 11-09-2020 01:00:00 11.95 C 8.78 g/m*3 11.95 C 0 km/h
1347 11-09-2020 02:00:00 11.05833 C 8.52 g/m*3 11.06 C 0 km/h
1348 11-09-2020 03:00:00 10.23333 C 8.35 g/m*3 10.23 C 0 km/h
1349 11-09-2020 04:00:00 9.59167 C 8.23 g/m*3 9.59 C 0 km/h
1350 11-09-2020 05:00:00 8.95833 C 8.03 g/m*3 8.96 C 0 km/h
Sensor: Nr:Datum:Temp:Abs-Feuchte:Windchill:Wind:
Aussen-T/F 1351 11-09-2020 06:00:00 8.43333 C 7.87 g/m*3 8.43 C 0 km/h
1352 11-09-2020 07:00:00 8.26667 C 7.88 g/m*3 8.27 C 0 km/h
1353 11-09-2020 08:00:00 8.625 C 8.13 g/m*3 8.63 C 0 km/h
1354 11-09-2020 09:00:00 9.45833 C 8.62 g/m*3 9.46 C 0 km/h
1355 11-09-2020 10:00:00 11.20833 C 9.55 g/m*3 11.21 C 0 km/h
1356 11-09-2020 11:00:00 14.025 C 10.22 g/m*3 14.03 C 0.26667 km/h
1357 11-09-2020 12:00:00 17.6 C 9.97 g/m*3 17.6 C 2.93333 km/h
1358 11-09-2020 13:00:00 19.86667 C 9.7 g/m*3 19.87 C 5.35833 km/h
1359 11-09-2020 14:00:00 21.15 C 10.06 g/m*3 21.15 C 5.09167 km/h
1360 11-09-2020 15:00:00 22.44167 C 10.4 g/m*3 22.44 C 6.45833 km/h
1361 11-09-2020 16:00:00 23.58333 C 10.59 g/m*3 23.58 C 8.6 km/h
1362 11-09-2020 17:00:00 24.6 C 10.8 g/m*3 24.6 C 6.43333 km/h
1363 11-09-2020 18:00:00 24.36667 C 11.27 g/m*3 24.37 C 3.075 km/h
1364 11-09-2020 19:00:00 21.425 C 11.31 g/m*3 21.43 C 2.80833 km/h
1365 11-09-2020 20:00:00 18.3 C 10.65 g/m*3 18.3 C 4.13333 km/h
1366 11-09-2020 21:00:00 16.35833 C 10.47 g/m*3 16.36 C 0.53333 km/h
1367 11-09-2020 22:00:00 15.04167 C 10.27 g/m*3 15.04 C 0 km/h
1368 11-09-2020 23:00:00 13.93333 C 10.07 g/m*3 13.93 C 0 km/h
1369 12-09-2020 00:00:00 13.05 C 9.85 g/m*3 13.05 C 0 km/h
1370 12-09-2020 01:00:00 12.525 C 9.71 g/m*3 12.53 C 0 km/h
1371 12-09-2020 02:00:00 11.975 C 9.53 g/m*3 11.98 C 0 km/h
1372 12-09-2020 03:00:00 11.475 C 9.35 g/m*3 11.48 C 0 km/h
1373 12-09-2020 04:00:00 10.975 C 9.17 g/m*3 10.98 C 0 km/h
1374 12-09-2020 05:00:00 10.525 C 9.03 g/m*3 10.53 C 0 km/h
1375 12-09-2020 06:00:00 10.225 C 8.9 g/m*3 10.23 C 0 km/h
Sensor: Nr:Datum:Temp:Abs-Feuchte:Windchill:Wind:
Aussen-T/F 1376 12-09-2020 07:00:00 10.16667 C 8.94 g/m*3 10.17 C 0 km/h
1377 12-09-2020 08:00:00 10.9 C 9.46 g/m*3 10.9 C 0 km/h
1378 12-09-2020 09:00:00 12.625 C 10.36 g/m*3 12.63 C 0.26667 km/h
1379 12-09-2020 10:00:00 14.675 C 10.94 g/m*3 14.68 C 0.13333 km/h
1380 12-09-2020 11:00:00 17.25 C 11.71 g/m*3 17.25 C 0 km/h
1381 12-09-2020 12:00:00 20.15833 C 12.27 g/m*3 20.16 C 2.80833 km/h
1382 12-09-2020 13:00:00 24.425 C 11.76 g/m*3 24.43 C 11.15833 km/h
1383 12-09-2020 14:00:00 24.90833 C 12.29 g/m*3 24.91 C 6.85 km/h
1384 12-09-2020 15:00:00 25.61667 C 12.43 g/m*3 25.62 C 8.6 km/h
1385 12-09-2020 16:00:00 25.75 C 12.36 g/m*3 25.75 C 10.475 km/h
1386 12-09-2020 17:00:00 26.14167 C 12.76 g/m*3 26.14 C 10.76667 km/h
1387 12-09-2020 18:00:00 25.28333 C 12.84 g/m*3 25.28 C 7.23333 km/h
1388 12-09-2020 19:00:00 23.03333 C 12.66 g/m*3 23.03 C 1.46667 km/h
1389 12-09-2020 20:00:00 19.79167 C 11.85 g/m*3 19.79 C 1.6 km/h
1390 12-09-2020 21:00:00 18.49167 C 10.94 g/m*3 18.49 C 1.20833 km/h
1391 12-09-2020 22:00:00 17.16667 C 10.49 g/m*3 17.17 C 0.66667 km/h
1392 12-09-2020 23:00:00 15.81667 C 10.29 g/m*3 15.82 C 1.06667 km/h
1393 13-09-2020 00:00:00 14.36667 C 9.98 g/m*3 14.37 C 0.26667 km/h
1394 13-09-2020 01:00:00 13.05 C 9.73 g/m*3 13.05 C 0.13333 km/h
1395 13-09-2020 02:00:00 12.375 C 9.55 g/m*3 12.38 C 0.26667 km/h
1396 13-09-2020 03:00:00 11.73333 C 9.42 g/m*3 11.73 C 0 km/h
1397 13-09-2020 04:00:00 11.35 C 9.32 g/m*3 11.35 C 0 km/h
1398 13-09-2020 05:00:00 10.84167 C 9.12 g/m*3 10.84 C 0 km/h
1399 13-09-2020 06:00:00 10.35 C 8.92 g/m*3 10.35 C 0 km/h
1400 13-09-2020 07:00:00 10.15 C 8.91 g/m*3 10.15 C 0 km/h
Sensor: Nr:Datum:Temp:Abs-Feuchte:Windchill:Wind:
Aussen-T/F 1401 13-09-2020 08:00:00 10.66667 C 9.31 g/m*3 10.67 C 0.26667 km/h
1402 13-09-2020 09:00:00 11.60833 C 9.88 g/m*3 11.61 C 0 km/h
1403 13-09-2020 10:00:00 13.1 C 10.67 g/m*3 13.1 C 0 km/h
1404 13-09-2020 11:00:00 15.53333 C 11.27 g/m*3 15.53 C 0.4 km/h
1405 13-09-2020 12:00:00 19.05833 C 11.98 g/m*3 19.06 C 2.26667 km/h
1406 13-09-2020 13:00:00 21.825 C 11.99 g/m*3 21.83 C 0.53333 km/h
1407 13-09-2020 14:00:00 23.725 C 11.78 g/m*3 23.73 C 2.81667 km/h
1408 13-09-2020 15:00:00 25.85833 C 11.17 g/m*3 25.86 C 4.14167 km/h
1409 13-09-2020 16:00:00 26.83333 C 11.13 g/m*3 26.83 C 5.1 km/h
1410 13-09-2020 17:00:00 28.81667 C 11.8 g/m*3 28.82 C 3.86667 km/h
1411 13-09-2020 18:00:00 27.46667 C 13.01 g/m*3 27.47 C 2.66667 km/h
1412 13-09-2020 19:00:00 23.69167 C 11.87 g/m*3 23.69 C 3.2 km/h
1413 13-09-2020 20:00:00 20.53333 C 11.32 g/m*3 20.53 C 1.86667 km/h
1414 13-09-2020 21:00:00 18.25 C 10.95 g/m*3 18.25 C 0 km/h
1415 13-09-2020 22:00:00 16.55833 C 10.63 g/m*3 16.56 C 0 km/h
1416 13-09-2020 23:00:00 15.175 C 10.44 g/m*3 15.18 C 0 km/h
1417 14-09-2020 00:00:00 14.325 C 10.28 g/m*3 14.33 C 0 km/h
1418 14-09-2020 01:00:00 13.59167 C 10.02 g/m*3 13.59 C 0 km/h
1419 14-09-2020 02:00:00 12.875 C 9.83 g/m*3 12.88 C 0 km/h
1420 14-09-2020 03:00:00 12.33333 C 9.69 g/m*3 12.33 C 0 km/h
1421 14-09-2020 04:00:00 11.64167 C 9.45 g/m*3 11.64 C 0 km/h
1422 14-09-2020 05:00:00 11.25833 C 9.33 g/m*3 11.26 C 0 km/h
1423 14-09-2020 06:00:00 10.83333 C 9.15 g/m*3 10.83 C 0 km/h
1424 14-09-2020 07:00:00 10.725 C 9.19 g/m*3 10.73 C 0 km/h
1425 14-09-2020 08:00:00 11.15833 C 9.54 g/m*3 11.16 C 0 km/h
Sensor: Nr:Datum:Temp:Abs-Feuchte:Windchill:Wind:
Aussen-T/F 1426 14-09-2020 09:00:00 12.125 C 10.2 g/m*3 12.13 C 0 km/h
1427 14-09-2020 10:00:00 13.875 C 11.28 g/m*3 13.88 C 0 km/h
1428 14-09-2020 11:00:00 17.325 C 12.59 g/m*3 17.33 C 0 km/h
1429 14-09-2020 12:00:00 21.75833 C 13.7 g/m*3 21.76 C 1.075 km/h
1430 14-09-2020 13:00:00 25.95833 C 13.95 g/m*3 25.96 C 3.33333 km/h
1431 14-09-2020 14:00:00 28.11667 C 13.34 g/m*3 28.12 C 4.01667 km/h
1432 14-09-2020 15:00:00 29.625 C 11.66 g/m*3 29.63 C 7.11667 km/h
1433 14-09-2020 16:00:00 29.875 C 12.2 g/m*3 29.88 C 4.675 km/h
1434 14-09-2020 17:00:00 29.775 C 14.18 g/m*3 29.78 C 1.46667 km/h
1435 14-09-2020 18:00:00 30.61667 C 13.35 g/m*3 30.62 C 3.06667 km/h
1436 14-09-2020 19:00:00 25.86667 C 11.8 g/m*3 25.87 C 7.39167 km/h
1437 14-09-2020 20:00:00 22.39167 C 11.7 g/m*3 22.39 C 2.54167 km/h
1438 14-09-2020 21:00:00 19.975 C 12.17 g/m*3 19.98 C 0 km/h
1439 14-09-2020 22:00:00 18.525 C 11.98 g/m*3 18.52 C 0 km/h
1440 14-09-2020 23:00:00 17.08333 C 11.72 g/m*3 17.08 C 0 km/h
1441 15-09-2020 00:00:00 16.23333 C 11.47 g/m*3 16.23 C 0 km/h
1442 15-09-2020 01:00:00 15.45833 C 11.28 g/m*3 15.46 C 0 km/h
1443 15-09-2020 02:00:00 14.9 C 11.08 g/m*3 14.9 C 0 km/h
1444 15-09-2020 03:00:00 14.15833 C 10.84 g/m*3 14.16 C 0 km/h
1445 15-09-2020 04:00:00 13.54167 C 10.59 g/m*3 13.54 C 0 km/h
1446 15-09-2020 05:00:00 13.10833 C 10.5 g/m*3 13.11 C 0 km/h
1447 15-09-2020 06:00:00 12.50833 C 10.19 g/m*3 12.51 C 0 km/h
1448 15-09-2020 07:00:00 12.2 C 10.11 g/m*3 12.2 C 0 km/h
1449 15-09-2020 08:00:00 12.53333 C 10.43 g/m*3 12.53 C 0 km/h
1450 15-09-2020 09:00:00 13.69167 C 11.29 g/m*3 13.69 C 0 km/h
Sensor: Nr:Datum:Temp:Abs-Feuchte:Windchill:Wind:
Aussen-T/F 1451 15-09-2020 10:00:00 15.39167 C 12.46 g/m*3 15.39 C 0 km/h
1452 15-09-2020 11:00:00 18.00833 C 13.23 g/m*3 18.01 C 0 km/h
1453 15-09-2020 12:00:00 21.76667 C 14.25 g/m*3 21.77 C 0 km/h
1454 15-09-2020 13:00:00 25.79167 C 13.96 g/m*3 25.79 C 1.6 km/h
1455 15-09-2020 14:00:00 29.24167 C 12.37 g/m*3 29.24 C 4.13333 km/h
1456 15-09-2020 15:00:00 30.65833 C 10.87 g/m*3 30.66 C 5.225 km/h
1457 15-09-2020 16:00:00 31.5 C 9.92 g/m*3 31.5 C 4.93333 km/h
1458 15-09-2020 17:00:00 33.19167 C 10.43 g/m*3 33.19 C 4.53333 km/h
1459 15-09-2020 18:00:00 31.875 C 12.58 g/m*3 31.88 C 3.73333 km/h
1460 15-09-2020 19:00:00 27.65833 C 11.92 g/m*3 27.66 C 3.33333 km/h
1461 15-09-2020 20:00:00 24.3 C 11.82 g/m*3 24.3 C 4.4 km/h
1462 15-09-2020 21:00:00 22.05833 C 12.2 g/m*3 22.06 C 0.13333 km/h
1463 15-09-2020 22:00:00 20.48333 C 12.41 g/m*3 20.48 C 0 km/h
1464 15-09-2020 23:00:00 18.90833 C 12.33 g/m*3 18.91 C 0 km/h
1465 16-09-2020 00:00:00 18.13333 C 12.04 g/m*3 18.13 C 0 km/h
1466 16-09-2020 01:00:00 17.29167 C 11.8 g/m*3 17.29 C 0 km/h
1467 16-09-2020 02:00:00 16.225 C 11.64 g/m*3 16.23 C 0 km/h
1468 16-09-2020 03:00:00 15.49167 C 11.43 g/m*3 15.49 C 0 km/h
1469 16-09-2020 04:00:00 14.95 C 11.31 g/m*3 14.95 C 0 km/h
1470 16-09-2020 05:00:00 14.5 C 11.19 g/m*3 14.5 C 0.4 km/h
1471 16-09-2020 06:00:00 14.25833 C 11.14 g/m*3 14.26 C 0 km/h
1472 16-09-2020 07:00:00 14.1 C 11.15 g/m*3 14.1 C 0.26667 km/h
1473 16-09-2020 08:00:00 14.51667 C 11.45 g/m*3 14.52 C 0 km/h
1474 16-09-2020 09:00:00 15.54167 C 12.13 g/m*3 15.54 C 0 km/h
1475 16-09-2020 10:00:00 18.19167 C 13.13 g/m*3 18.19 C 0.26667 km/h
Sensor: Nr:Datum:Temp:Abs-Feuchte:Windchill:Wind:
Aussen-T/F 1476 16-09-2020 11:00:00 20.775 C 13.49 g/m*3 20.78 C 0.13333 km/h
1477 16-09-2020 12:00:00 23.24167 C 14 g/m*3 23.24 C 0 km/h
1478 16-09-2020 13:00:00 24.46667 C 14.33 g/m*3 24.47 C 0.13333 km/h
1479 16-09-2020 14:00:00 26.5 C 14.56 g/m*3 26.5 C 1.6 km/h
1480 16-09-2020 15:00:00 28.38333 C 14.58 g/m*3 28.38 C 1.46667 km/h
1481 16-09-2020 16:00:00 30.15 C 12.08 g/m*3 30.15 C 12.35833 km/h
1482 16-09-2020 17:00:00 28.55833 C 14.56 g/m*3 28.56 C 13.96667 km/h
1483 16-09-2020 18:00:00 26.775 C 15.19 g/m*3 26.78 C 13.56667 km/h
1484 16-09-2020 19:00:00 25.28333 C 15.03 g/m*3 25.28 C 5.63333 km/h
1485 16-09-2020 20:00:00 22.91667 C 14.49 g/m*3 22.92 C 2.53333 km/h
1486 16-09-2020 21:00:00 22.29167 C 14.31 g/m*3 22.29 C 4.69167 km/h
1487 16-09-2020 22:00:00 22.30833 C 14.01 g/m*3 22.31 C 7.66667 km/h
1488 16-09-2020 23:00:00 21.24167 C 13.41 g/m*3 21.24 C 3.75 km/h
1489 17-09-2020 00:00:00 20.75 C 13.12 g/m*3 20.75 C 8.05833 km/h
1490 17-09-2020 01:00:00 20.09167 C 12.51 g/m*3 20.09 C 6.71667 km/h
1491 17-09-2020 02:00:00 18.75 C 12.07 g/m*3 18.75 C 5.23333 km/h
1492 17-09-2020 03:00:00 17.31667 C 11.82 g/m*3 17.32 C 2.8 km/h
1493 17-09-2020 04:00:00 17.36667 C 11.98 g/m*3 17.37 C 8.74167 km/h
1494 17-09-2020 05:00:00 17.125 C 11.71 g/m*3 17.13 C 7.375 km/h
1495 17-09-2020 06:00:00 16.86667 C 11.44 g/m*3 16.87 C 6.15833 km/h
1496 17-09-2020 07:00:00 16.63333 C 11.36 g/m*3 16.63 C 5.89167 km/h
1497 17-09-2020 08:00:00 16.08333 C 10.89 g/m*3 16.08 C 9.425 km/h
1498 17-09-2020 09:00:00 15.66667 C 10.46 g/m*3 15.67 C 8.06667 km/h
1499 17-09-2020 10:00:00 16.05 C 9.52 g/m*3 16.05 C 6.71667 km/h
1500 17-09-2020 11:00:00 16.4 C 9.11 g/m*3 16.4 C 10.48333 km/h
Sensor: Nr:Datum:Temp:Abs-Feuchte:Windchill:Wind:
Aussen-T/F 1501 17-09-2020 12:00:00 17.575 C 9.16 g/m*3 17.58 C 12.76667 km/h
1502 17-09-2020 13:00:00 18.81667 C 8.75 g/m*3 18.82 C 14.23333 km/h
1503 17-09-2020 14:00:00 20.15833 C 7.94 g/m*3 20.16 C 13.29167 km/h
1504 17-09-2020 15:00:00 20.91667 C 7.64 g/m*3 20.92 C 12.5 km/h
1505 17-09-2020 16:00:00 21.61667 C 7.28 g/m*3 21.62 C 14.63333 km/h
1506 17-09-2020 17:00:00 22.10833 C 7.36 g/m*3 22.11 C 15.3 km/h
1507 17-09-2020 18:00:00 21.83333 C 7.63 g/m*3 21.83 C 10.33333 km/h
1508 17-09-2020 19:00:00 19.575 C 8.01 g/m*3 19.58 C 2.40833 km/h
1509 17-09-2020 20:00:00 15.91667 C 8.08 g/m*3 15.92 C 1.34167 km/h
1510 17-09-2020 21:00:00 14.69167 C 8.1 g/m*3 14.69 C 1.6 km/h
1511 17-09-2020 22:00:00 14.66667 C 8.24 g/m*3 14.67 C 2.00833 km/h
1512 17-09-2020 23:00:00 13.575 C 8.15 g/m*3 13.58 C 1.475 km/h
1513 18-09-2020 00:00:00 12.5 C 8.11 g/m*3 12.5 C 0.53333 km/h
1514 18-09-2020 01:00:00 12.25833 C 8.1 g/m*3 12.26 C 2.41667 km/h
1515 18-09-2020 02:00:00 12.55833 C 7.99 g/m*3 12.56 C 3.46667 km/h
1516 18-09-2020 03:00:00 10.925 C 7.75 g/m*3 10.93 C 3.46667 km/h
1517 18-09-2020 04:00:00 10.14167 C 7.61 g/m*3 10.14 C 4.13333 km/h
1518 18-09-2020 05:00:00 9.55833 C 7.49 g/m*3 9.56 C 1.33333 km/h
1519 18-09-2020 06:00:00 9.28333 C 7.45 g/m*3 9.28 C 0.53333 km/h
1520 18-09-2020 07:00:00 9.18333 C 7.51 g/m*3 9.18 C 1.86667 km/h
1521 18-09-2020 08:00:00 10.18333 C 7.93 g/m*3 10.18 C 0 km/h
1522 18-09-2020 09:00:00 11.2 C 8.2 g/m*3 11.2 C 1.86667 km/h
1523 18-09-2020 10:00:00 13.375 C 8.41 g/m*3 13.38 C 5.21667 km/h
1524 18-09-2020 11:00:00 16.19167 C 8.82 g/m*3 16.19 C 8.33333 km/h
1525 18-09-2020 12:00:00 18.7 C 9.38 g/m*3 18.7 C 8.6 km/h
Sensor: Nr:Datum:Temp:Abs-Feuchte:Windchill:Wind:
Aussen-T/F 1526 18-09-2020 13:00:00 21.04167 C 10.18 g/m*3 21.04 C 12.36667 km/h
1527 18-09-2020 14:00:00 22.58333 C 10.24 g/m*3 22.58 C 13.83333 km/h
1528 18-09-2020 15:00:00 23.04167 C 9.98 g/m*3 23.04 C 13.83333 km/h
1529 18-09-2020 16:00:00 23.66667 C 9.91 g/m*3 23.67 C 12.1 km/h
1530 18-09-2020 17:00:00 24.73333 C 9.77 g/m*3 24.73 C 8.46667 km/h
1531 18-09-2020 18:00:00 24.55 C 9.5 g/m*3 24.55 C 6.58333 km/h
1532 18-09-2020 19:00:00 21.19167 C 9.55 g/m*3 21.19 C 4.40833 km/h
1533 18-09-2020 20:00:00 16.91667 C 9.06 g/m*3 16.92 C 3.86667 km/h
1534 18-09-2020 21:00:00 15.46667 C 8.63 g/m*3 15.47 C 5.06667 km/h
1535 18-09-2020 22:00:00 14.61667 C 8.02 g/m*3 14.62 C 0.66667 km/h
1536 18-09-2020 23:00:00 14.05833 C 7.91 g/m*3 14.06 C 2.8 km/h
1537 19-09-2020 00:00:00 13.54167 C 7.74 g/m*3 13.54 C 2.53333 km/h
1538 19-09-2020 01:00:00 12.625 C 7.61 g/m*3 12.63 C 4 km/h
1539 19-09-2020 02:00:00 11.63333 C 7.47 g/m*3 11.63 C 1.6 km/h
1540 19-09-2020 03:00:00 10.375 C 7.31 g/m*3 10.38 C 0.93333 km/h
1541 19-09-2020 04:00:00 9.625 C 7.21 g/m*3 9.63 C 0 km/h
1542 19-09-2020 05:00:00 8.825 C 7.08 g/m*3 8.82 C 0 km/h
1543 19-09-2020 06:00:00 8.175 C 7.04 g/m*3 8.18 C 0 km/h
1544 19-09-2020 07:00:00 7.68333 C 7.04 g/m*3 7.68 C 0 km/h
1545 19-09-2020 08:00:00 7.94167 C 7.32 g/m*3 7.94 C 0 km/h
1546 19-09-2020 09:00:00 8.91667 C 7.76 g/m*3 8.92 C 0 km/h
1547 19-09-2020 10:00:00 11.41667 C 8.33 g/m*3 11.42 C 0.8 km/h
1548 19-09-2020 11:00:00 15.09167 C 8.6 g/m*3 15.09 C 2.53333 km/h
1549 19-09-2020 12:00:00 19.15 C 8.7 g/m*3 19.15 C 7.93333 km/h
1550 19-09-2020 13:00:00 21.125 C 8.61 g/m*3 21.13 C 6.16667 km/h
Sensor: Nr:Datum:Temp:Abs-Feuchte:Windchill:Wind:
Aussen-T/F 1551 19-09-2020 14:00:00 23.24167 C 8.63 g/m*3 23.24 C 8.46667 km/h
1552 19-09-2020 15:00:00 24.33333 C 8.48 g/m*3 24.33 C 8.31667 km/h
1553 19-09-2020 16:00:00 25.29167 C 8.19 g/m*3 25.29 C 9.41667 km/h
1554 19-09-2020 17:00:00 26.2 C 8.17 g/m*3 26.2 C 8.34167 km/h
1555 19-09-2020 18:00:00 26.39167 C 8.38 g/m*3 26.39 C 3.2 km/h
1556 19-09-2020 19:00:00 21.7 C 8.12 g/m*3 21.7 C 2.13333 km/h
1557 19-09-2020 20:00:00 17.99167 C 7.84 g/m*3 17.99 C 4.4 km/h
1558 19-09-2020 21:00:00 16.35833 C 7.92 g/m*3 16.36 C 4.93333 km/h
1559 19-09-2020 22:00:00 15.54167 C 8.16 g/m*3 15.54 C 1.86667 km/h
1560 19-09-2020 23:00:00 14.425 C 8.17 g/m*3 14.43 C 0 km/h
1561 20-09-2020 00:00:00 13.7 C 8.25 g/m*3 13.7 C 0.13333 km/h
1562 20-09-2020 01:00:00 12.70833 C 8.27 g/m*3 12.71 C 0 km/h
1563 20-09-2020 02:00:00 11.76667 C 7.98 g/m*3 11.77 C 0 km/h
1564 20-09-2020 03:00:00 10.6 C 7.73 g/m*3 10.6 C 0 km/h
1565 20-09-2020 04:00:00 9.84167 C 7.5 g/m*3 9.84 C 0 km/h
1566 20-09-2020 05:00:00 9.49167 C 7.6 g/m*3 9.49 C 0 km/h
1567 20-09-2020 06:00:00 8.96667 C 7.46 g/m*3 8.97 C 0 km/h
1568 20-09-2020 07:00:00 8.3 C 7.32 g/m*3 8.3 C 0 km/h
1569 20-09-2020 08:00:00 8.71667 C 7.73 g/m*3 8.72 C 0 km/h
1570 20-09-2020 09:00:00 9.625 C 8.21 g/m*3 9.63 C 0 km/h
1571 20-09-2020 10:00:00 11.55833 C 9 g/m*3 11.56 C 0 km/h
1572 20-09-2020 11:00:00 14.05833 C 9.46 g/m*3 14.06 C 0 km/h
1573 20-09-2020 12:00:00 18.15833 C 9.75 g/m*3 18.16 C 1.06667 km/h
1574 20-09-2020 13:00:00 21.14167 C 9.27 g/m*3 21.14 C 4.53333 km/h
1575 20-09-2020 14:00:00 22.81667 C 8.88 g/m*3 22.82 C 3.6 km/h
Sensor: Nr:Datum:Temp:Abs-Feuchte:Windchill:Wind:
Aussen-T/F 1576 20-09-2020 15:00:00 22.975 C 9.78 g/m*3 22.98 C 1.33333 km/h
1577 20-09-2020 16:00:00 22.65 C 9.75 g/m*3 22.65 C 1.06667 km/h
1578 20-09-2020 17:00:00 23.95833 C 9.93 g/m*3 23.96 C 1.86667 km/h
1579 20-09-2020 18:00:00 21.43333 C 9.47 g/m*3 21.43 C 5.06667 km/h
1580 20-09-2020 19:00:00 18.625 C 8.91 g/m*3 18.63 C 3.6 km/h
1581 20-09-2020 20:00:00 15.78333 C 8.29 g/m*3 15.78 C 1.33333 km/h
1582 20-09-2020 21:00:00 14.3 C 8.13 g/m*3 14.3 C 0 km/h
1583 20-09-2020 22:00:00 13.075 C 8.3 g/m*3 13.08 C 0 km/h
1584 20-09-2020 23:00:00 11.68333 C 8.05 g/m*3 11.68 C 0 km/h
1585 21-09-2020 00:00:00 10.94167 C 7.88 g/m*3 10.94 C 0 km/h
1586 21-09-2020 01:00:00 10.25833 C 7.8 g/m*3 10.26 C 0 km/h
1587 21-09-2020 02:00:00 9.54167 C 7.67 g/m*3 9.54 C 0 km/h
1588 21-09-2020 03:00:00 9.03333 C 7.62 g/m*3 9.03 C 0 km/h
1589 21-09-2020 04:00:00 8.55 C 7.54 g/m*3 8.55 C 0 km/h
1590 21-09-2020 05:00:00 8.15 C 7.44 g/m*3 8.15 C 0 km/h
1591 21-09-2020 06:00:00 7.79167 C 7.35 g/m*3 7.79 C 0 km/h
1592 21-09-2020 07:00:00 7.34167 C 7.22 g/m*3 7.34 C 0 km/h
1593 21-09-2020 08:00:00 7.525 C 7.4 g/m*3 7.53 C 0 km/h
1594 21-09-2020 09:00:00 8.475 C 7.84 g/m*3 8.48 C 0 km/h
1595 21-09-2020 10:00:00 10.075 C 8.54 g/m*3 10.07 C 0 km/h
1596 21-09-2020 11:00:00 13.05833 C 9.27 g/m*3 13.06 C 0 km/h
1597 21-09-2020 12:00:00 17.375 C 10.1 g/m*3 17.38 C 0 km/h
1598 21-09-2020 13:00:00 20.58333 C 9.88 g/m*3 20.58 C 1.73333 km/h
1599 21-09-2020 14:00:00 23.44167 C 9.01 g/m*3 23.44 C 7.78333 km/h
1600 21-09-2020 15:00:00 24.26667 C 8.56 g/m*3 24.27 C 5.21667 km/h
Sensor: Nr:Datum:Temp:Abs-Feuchte:Windchill:Wind:
Aussen-T/F 1601 21-09-2020 16:00:00 24.63333 C 8.44 g/m*3 24.63 C 5.9 km/h
1602 21-09-2020 17:00:00 26.25833 C 8.64 g/m*3 26.26 C 2.93333 km/h
1603 21-09-2020 18:00:00 25.7 C 9.36 g/m*3 25.7 C 3.06667 km/h
1604 21-09-2020 19:00:00 21.13333 C 8.71 g/m*3 21.13 C 5.73333 km/h
1605 21-09-2020 20:00:00 17.55833 C 8.53 g/m*3 17.56 C 0.93333 km/h
1606 21-09-2020 21:00:00 15.46667 C 8.53 g/m*3 15.47 C 0 km/h
1607 21-09-2020 22:00:00 13.98333 C 8.46 g/m*3 13.98 C 0 km/h
1608 21-09-2020 23:00:00 12.9 C 8.51 g/m*3 12.9 C 0 km/h
1609 22-09-2020 00:00:00 11.80833 C 8.37 g/m*3 11.81 C 0 km/h
1610 22-09-2020 01:00:00 11.33333 C 8.3 g/m*3 11.33 C 0 km/h
1611 22-09-2020 02:00:00 10.66667 C 8.11 g/m*3 10.67 C 0 km/h
1612 22-09-2020 03:00:00 9.80833 C 7.97 g/m*3 9.81 C 0 km/h
1613 22-09-2020 04:00:00 9.34167 C 7.89 g/m*3 9.34 C 0 km/h
1614 22-09-2020 05:00:00 8.98333 C 7.85 g/m*3 8.98 C 0 km/h
1615 22-09-2020 06:00:00 8.51667 C 7.72 g/m*3 8.52 C 0 km/h
1616 22-09-2020 07:00:00 8.2 C 7.65 g/m*3 8.2 C 0 km/h
1617 22-09-2020 08:00:00 8.54167 C 7.93 g/m*3 8.54 C 0 km/h
1618 22-09-2020 09:00:00 9.45833 C 8.44 g/m*3 9.46 C 0 km/h
1619 22-09-2020 10:00:00 11.10833 C 9.2 g/m*3 11.11 C 0 km/h
1620 22-09-2020 11:00:00 14.18333 C 10.12 g/m*3 14.18 C 0 km/h
1621 22-09-2020 12:00:00 18.30833 C 11.09 g/m*3 18.31 C 0.13333 km/h
1622 22-09-2020 13:00:00 22.025 C 10.46 g/m*3 22.03 C 4.29167 km/h
1623 22-09-2020 14:00:00 25.39167 C 9.49 g/m*3 25.39 C 11.15833 km/h
1624 22-09-2020 15:00:00 26.09167 C 9.07 g/m*3 26.09 C 11.025 km/h
1625 22-09-2020 16:00:00 26.51667 C 8.75 g/m*3 26.52 C 11.3 km/h
Sensor: Nr:Datum:Temp:Abs-Feuchte:Windchill:Wind:
Aussen-T/F 1626 22-09-2020 17:00:00 27.45833 C 9.39 g/m*3 27.46 C 8.85833 km/h
1627 22-09-2020 18:00:00 27.34167 C 10.25 g/m*3 27.34 C 4.54167 km/h
1628 22-09-2020 19:00:00 22.64167 C 10.15 g/m*3 22.64 C 6.14167 km/h
1629 22-09-2020 20:00:00 19.275 C 9.9 g/m*3 19.27 C 4.26667 km/h
1630 22-09-2020 21:00:00 17.68333 C 9.7 g/m*3 17.68 C 0.66667 km/h
1631 22-09-2020 22:00:00 16.43333 C 9.49 g/m*3 16.43 C 0.66667 km/h
1632 22-09-2020 23:00:00 15.40833 C 9.31 g/m*3 15.41 C 0.66667 km/h
1633 23-09-2020 00:00:00 14.45833 C 9.15 g/m*3 14.46 C 0.13333 km/h
1634 23-09-2020 01:00:00 14.04167 C 9.23 g/m*3 14.04 C 0.53333 km/h
1635 23-09-2020 02:00:00 14.49167 C 9.4 g/m*3 14.49 C 0.93333 km/h
1636 23-09-2020 03:00:00 13.925 C 9.36 g/m*3 13.93 C 0 km/h
1637 23-09-2020 04:00:00 14.06667 C 9.45 g/m*3 14.07 C 0 km/h
1638 23-09-2020 05:00:00 12.775 C 8.94 g/m*3 12.78 C 0.13333 km/h
1639 23-09-2020 06:00:00 12.125 C 8.85 g/m*3 12.13 C 0.4 km/h
1640 23-09-2020 07:00:00 13.225 C 9.12 g/m*3 13.23 C 1.46667 km/h
1641 23-09-2020 08:00:00 14.025 C 9.27 g/m*3 14.03 C 1.33333 km/h
1642 23-09-2020 09:00:00 14.29167 C 9.33 g/m*3 14.29 C 3.89167 km/h
1643 23-09-2020 10:00:00 17.35833 C 9.01 g/m*3 17.36 C 11.16667 km/h
1644 23-09-2020 11:00:00 19.13333 C 9.62 g/m*3 19.13 C 10.35833 km/h
1645 23-09-2020 12:00:00 20.29167 C 10.55 g/m*3 20.29 C 14.1 km/h
1646 23-09-2020 13:00:00 21.65 C 10.84 g/m*3 21.65 C 11.41667 km/h
1647 23-09-2020 14:00:00 23.03333 C 11.07 g/m*3 23.03 C 12.1 km/h
1648 23-09-2020 15:00:00 23.40833 C 11.2 g/m*3 23.41 C 11.56667 km/h
1649 23-09-2020 16:00:00 23.63333 C 11.24 g/m*3 23.63 C 11.29167 km/h
1650 23-09-2020 17:00:00 23.78333 C 11.28 g/m*3 23.78 C 9.93333 km/h
Sensor: Nr:Datum:Temp:Abs-Feuchte:Windchill:Wind:
Aussen-T/F 1651 23-09-2020 18:00:00 22.60833 C 11.1 g/m*3 22.61 C 5.225 km/h
1652 23-09-2020 19:00:00 19.48333 C 11.16 g/m*3 19.48 C 1.46667 km/h
1653 23-09-2020 20:00:00 17.35833 C 11.11 g/m*3 17.36 C 1.33333 km/h
1654 23-09-2020 21:00:00 17.51667 C 11.47 g/m*3 17.52 C 2.54167 km/h
1655 23-09-2020 22:00:00 17.64167 C 11.64 g/m*3 17.64 C 0.53333 km/h
1656 23-09-2020 23:00:00 17.50833 C 11.75 g/m*3 17.51 C 1.6 km/h
1657 24-09-2020 00:00:00 17.73333 C 11.75 g/m*3 17.73 C 4.15833 km/h
1658 24-09-2020 01:00:00 18.28333 C 11.99 g/m*3 18.28 C 4.825 km/h
1659 24-09-2020 02:00:00 17.56667 C 12.81 g/m*3 17.57 C 4.825 km/h
1660 24-09-2020 03:00:00 16.18333 C 12.66 g/m*3 16.18 C 1.2 km/h
1661 24-09-2020 04:00:00 16.03333 C 12.81 g/m*3 16.03 C 1.86667 km/h
1662 24-09-2020 05:00:00 15.95 C 12.75 g/m*3 15.95 C 6.975 km/h
1663 24-09-2020 06:00:00 14.54167 C 10.71 g/m*3 14.54 C 10.08333 km/h
1664 24-09-2020 07:00:00 12.025 C 9.55 g/m*3 12.03 C 6.56667 km/h
1665 24-09-2020 08:00:00 12.25 C 9.62 g/m*3 12.25 C 8.05833 km/h
1666 24-09-2020 09:00:00 12.63333 C 9.51 g/m*3 12.63 C 10.88333 km/h
1667 24-09-2020 10:00:00 13.7 C 9.32 g/m*3 13.7 C 12.23333 km/h
1668 24-09-2020 11:00:00 14.74167 C 9.1 g/m*3 14.74 C 12.63333 km/h
1669 24-09-2020 12:00:00 16.88333 C 9.21 g/m*3 16.88 C 11.16667 km/h
1670 24-09-2020 13:00:00 17.73333 C 9.06 g/m*3 17.73 C 15.16667 km/h
1671 24-09-2020 14:00:00 18.99167 C 9.08 g/m*3 18.99 C 14.36667 km/h
1672 24-09-2020 15:00:00 19.575 C 9.29 g/m*3 19.58 C 9.80833 km/h
1673 24-09-2020 16:00:00 19.71667 C 9.49 g/m*3 19.72 C 7.25833 km/h
1674 24-09-2020 17:00:00 19.775 C 9.88 g/m*3 19.77 C 4.53333 km/h
1675 24-09-2020 18:00:00 18.85833 C 10.63 g/m*3 18.86 C 2.14167 km/h
Sensor: Nr:Datum:Temp:Abs-Feuchte:Windchill:Wind:
Aussen-T/F 1676 24-09-2020 19:00:00 17.05 C 11.02 g/m*3 17.05 C 2.26667 km/h
1677 24-09-2020 20:00:00 16.075 C 10.86 g/m*3 16.08 C 2.26667 km/h
1678 24-09-2020 21:00:00 15.05 C 10.64 g/m*3 15.05 C 1.2 km/h
1679 24-09-2020 22:00:00 14.40833 C 10.66 g/m*3 14.41 C 0.93333 km/h
1680 24-09-2020 23:00:00 13.76667 C 10.49 g/m*3 13.77 C 0.93333 km/h
1681 25-09-2020 00:00:00 13.675 C 10.62 g/m*3 13.68 C 0.13333 km/h
1682 25-09-2020 01:00:00 13.925 C 10.79 g/m*3 13.93 C 0.93333 km/h
1683 25-09-2020 02:00:00 13.73333 C 10.52 g/m*3 13.73 C 10.05 km/h
1684 25-09-2020 03:00:00 12.15 C 9.83 g/m*3 12.15 C 8.59167 km/h
1685 25-09-2020 04:00:00 11.275 C 9.42 g/m*3 11.28 C 3.46667 km/h
1686 25-09-2020 05:00:00 10.76667 C 9.2 g/m*3 10.77 C 4.40833 km/h
1687 25-09-2020 06:00:00 10.50833 C 8.98 g/m*3 10.16 C 5.61667 km/h
1688 25-09-2020 07:00:00 9.875 C 8.53 g/m*3 9.88 C 4.55833 km/h
1689 25-09-2020 08:00:00 9.525 C 8.33 g/m*3 9.53 C 2.40833 km/h
1690 25-09-2020 09:00:00 10.25833 C 8.22 g/m*3 10.26 C 2.8 km/h
1691 25-09-2020 10:00:00 11.35 C 8.39 g/m*3 11.35 C 3.875 km/h
1692 25-09-2020 11:00:00 12.40833 C 8.49 g/m*3 12.41 C 8.6 km/h
1693 25-09-2020 12:00:00 13.21667 C 8.35 g/m*3 13.22 C 11.96667 km/h
1694 25-09-2020 13:00:00 13.54167 C 8.25 g/m*3 13.54 C 10.88333 km/h
1695 25-09-2020 14:00:00 13.03333 C 8.97 g/m*3 13.03 C 3.61667 km/h
1696 25-09-2020 15:00:00 13.65 C 9.26 g/m*3 13.65 C 3.6 km/h
1697 25-09-2020 16:00:00 14.23333 C 9.1 g/m*3 14.23 C 7.125 km/h
1698 25-09-2020 17:00:00 14.25 C 8.79 g/m*3 14.25 C 7.525 km/h
1699 25-09-2020 18:00:00 12.89167 C 8.7 g/m*3 12.89 C 9.93333 km/h
1700 25-09-2020 19:00:00 11.88333 C 8.54 g/m*3 11.88 C 6.3 km/h
Sensor: Nr:Datum:Temp:Abs-Feuchte:Windchill:Wind:
Aussen-T/F 1701 25-09-2020 20:00:00 11.75833 C 8.49 g/m*3 11.76 C 6.7 km/h
1702 25-09-2020 21:00:00 11.53333 C 8.06 g/m*3 11.53 C 7.50833 km/h
1703 25-09-2020 22:00:00 11.425 C 8.07 g/m*3 11.43 C 8.74167 km/h
1704 25-09-2020 23:00:00 11.20833 C 8.14 g/m*3 11.21 C 10.35833 km/h
1705 26-09-2020 00:00:00 10.7 C 8.06 g/m*3 8.94 C 13.7 km/h
1706 26-09-2020 01:00:00 10.61667 C 7.93 g/m*3 9.05 C 12.1 km/h
1707 26-09-2020 02:00:00 10.5 C 7.9 g/m*3 9.04 C 11.15833 km/h
1708 26-09-2020 03:00:00 10.05 C 7.82 g/m*3 7.8 C 16.5 km/h
1709 26-09-2020 04:00:00 9.81667 C 7.59 g/m*3 7.28 C 18.63333 km/h
1710 26-09-2020 05:00:00 9.73333 C 7.39 g/m*3 7.07 C 19.7 km/h
1711 26-09-2020 06:00:00 9.65833 C 7.53 g/m*3 6.92 C 20.23333 km/h
1712 26-09-2020 07:00:00 9.425 C 7.79 g/m*3 7.37 C 13.7 km/h
1713 26-09-2020 08:00:00 9.31667 C 8.14 g/m*3 7.78 C 10.20833 km/h
1714 26-09-2020 09:00:00 9.9 C 8.56 g/m*3 8.79 C 8.46667 km/h
1715 26-09-2020 10:00:00 10.91667 C 8.9 g/m*3 9.85 C 9.275 km/h
1716 26-09-2020 11:00:00 11.58333 C 9.14 g/m*3 11.58 C 7.38333 km/h
1717 26-09-2020 12:00:00 12.04167 C 9.06 g/m*3 12.04 C 11.55 km/h
1718 26-09-2020 13:00:00 11.48333 C 9.45 g/m*3 11.48 C 5.35833 km/h
1719 26-09-2020 14:00:00 11.69167 C 9.47 g/m*3 11.69 C 10.74167 km/h
1720 26-09-2020 15:00:00 11.375 C 9.32 g/m*3 11.38 C 11.69167 km/h
1721 26-09-2020 16:00:00 10.94167 C 9.01 g/m*3 9.5 C 11.68333 km/h
1722 26-09-2020 17:00:00 10.9 C 8.97 g/m*3 9.85 C 9.15833 km/h
1723 26-09-2020 18:00:00 10.81667 C 9.08 g/m*3 10.55 C 5.48333 km/h
1724 26-09-2020 19:00:00 10.68333 C 9.04 g/m*3 10.68 C 4.95833 km/h
1725 26-09-2020 20:00:00 10.36667 C 8.98 g/m*3 10.37 C 4.54167 km/h
Sensor: Nr:Datum:Temp:Abs-Feuchte:Windchill:Wind:
Aussen-T/F 1726 26-09-2020 21:00:00 10.2 C 8.99 g/m*3 10.2 C 2.26667 km/h
1727 26-09-2020 22:00:00 10.075 C 8.97 g/m*3 10.07 C 2.275 km/h
1728 26-09-2020 23:00:00 9.85 C 8.84 g/m*3 9.85 C 3.2 km/h
1729 27-09-2020 00:00:00 9.375 C 8.58 g/m*3 9.38 C 4.66667 km/h
1730 27-09-2020 01:00:00 8.88333 C 8.35 g/m*3 7.77 C 7.65 km/h
1731 27-09-2020 02:00:00 8.91667 C 8.42 g/m*3 7.55 C 8.85833 km/h
1732 27-09-2020 03:00:00 9.325 C 8.64 g/m*3 8.92 C 5.225 km/h
1733 27-09-2020 04:00:00 9.50833 C 8.74 g/m*3 9.51 C 1.74167 km/h
1734 27-09-2020 05:00:00 9.6 C 8.79 g/m*3 9.6 C 0.8 km/h
1735 27-09-2020 06:00:00 9.6 C 8.79 g/m*3 9.6 C 0.26667 km/h
1736 27-09-2020 07:00:00 9.6 C 8.79 g/m*3 9.6 C 0.26667 km/h
1737 27-09-2020 08:00:00 9.8 C 8.96 g/m*3 9.8 C 1.46667 km/h
1738 27-09-2020 09:00:00 10.59167 C 9.43 g/m*3 10.59 C 2.13333 km/h
1739 27-09-2020 10:00:00 11.24167 C 9.75 g/m*3 11.24 C 2 km/h
1740 27-09-2020 11:00:00 12.025 C 9.89 g/m*3 12.03 C 5.075 km/h
1741 27-09-2020 12:00:00 12.61667 C 9.85 g/m*3 12.62 C 5.48333 km/h
1742 27-09-2020 13:00:00 13.30833 C 10 g/m*3 13.31 C 6.71667 km/h
1743 27-09-2020 14:00:00 13.69167 C 9.59 g/m*3 13.69 C 6.41667 km/h
1744 27-09-2020 15:00:00 13.39167 C 9.35 g/m*3 13.39 C 3.2 km/h
1745 27-09-2020 16:00:00 13.13333 C 9.5 g/m*3 13.13 C 1.6 km/h
1746 27-09-2020 17:00:00 13.1 C 9.8 g/m*3 13.1 C 0 km/h
1747 27-09-2020 18:00:00 12.39167 C 9.7 g/m*3 12.39 C 2.13333 km/h
1748 27-09-2020 19:00:00 11.33333 C 9.22 g/m*3 11.33 C 2.4 km/h
1749 27-09-2020 20:00:00 10.89167 C 9.12 g/m*3 10.89 C 2 km/h
1750 27-09-2020 21:00:00 10.74167 C 9.14 g/m*3 10.74 C 1.46667 km/h
Sensor: Nr:Datum:Temp:Abs-Feuchte:Windchill:Wind:
Aussen-T/F 1751 27-09-2020 22:00:00 10.65833 C 9.11 g/m*3 10.66 C 0.26667 km/h
1752 27-09-2020 23:00:00 10.44167 C 9.06 g/m*3 10.44 C 1.46667 km/h
1753 28-09-2020 00:00:00 10.40833 C 9.06 g/m*3 10.41 C 1.33333 km/h
1754 28-09-2020 01:00:00 10.5 C 9.12 g/m*3 10.5 C 0.66667 km/h
1755 28-09-2020 02:00:00 10.39167 C 9.05 g/m*3 10.39 C 1.33333 km/h
1756 28-09-2020 03:00:00 10.20833 C 8.97 g/m*3 10.21 C 0 km/h
1757 28-09-2020 04:00:00 10.15833 C 8.98 g/m*3 10.16 C 0.4 km/h
1758 28-09-2020 05:00:00 10.11667 C 8.94 g/m*3 10.12 C 0.4 km/h
1759 28-09-2020 06:00:00 10.125 C 8.93 g/m*3 10.13 C 0.66667 km/h
1760 28-09-2020 07:00:00 10.075 C 8.86 g/m*3 10.07 C 0.26667 km/h
1761 28-09-2020 08:00:00 10.29167 C 9 g/m*3 10.29 C 0 km/h
1762 28-09-2020 09:00:00 10.79167 C 9.07 g/m*3 10.79 C 0.4 km/h
1763 28-09-2020 10:00:00 11.89167 C 9.08 g/m*3 11.89 C 2.66667 km/h
1764 28-09-2020 11:00:00 12.98333 C 9.14 g/m*3 12.98 C 4.95 km/h
1765 28-09-2020 12:00:00 13.725 C 9.11 g/m*3 13.73 C 4.41667 km/h
1766 28-09-2020 13:00:00 13.81667 C 9.36 g/m*3 13.82 C 5.775 km/h
1767 28-09-2020 14:00:00 14.01667 C 9.42 g/m*3 14.02 C 4.025 km/h
1768 28-09-2020 15:00:00 14.24167 C 9.13 g/m*3 14.24 C 4.95833 km/h
1769 28-09-2020 16:00:00 14 C 9.14 g/m*3 14 C 6.7 km/h
1770 28-09-2020 17:00:00 13.55833 C 9.11 g/m*3 13.56 C 6.025 km/h
1771 28-09-2020 18:00:00 13.25 C 9.24 g/m*3 13.25 C 2 km/h
1772 28-09-2020 19:00:00 12.45833 C 9.3 g/m*3 12.46 C 1.6 km/h
1773 28-09-2020 20:00:00 11.85833 C 9.08 g/m*3 11.86 C 0.8 km/h
1774 28-09-2020 21:00:00 10.86667 C 8.74 g/m*3 10.87 C 0.53333 km/h
1775 28-09-2020 22:00:00 10.80833 C 8.99 g/m*3 10.81 C 0 km/h
Sensor: Nr:Datum:Temp:Abs-Feuchte:Windchill:Wind:
Aussen-T/F 1776 28-09-2020 23:00:00 10.95 C 9.15 g/m*3 10.95 C 0.13333 km/h
1777 29-09-2020 00:00:00 10.975 C 9.19 g/m*3 10.98 C 0.26667 km/h
1778 29-09-2020 01:00:00 11.025 C 9.22 g/m*3 11.03 C 0.4 km/h
1779 29-09-2020 02:00:00 11.09167 C 9.26 g/m*3 11.09 C 0 km/h
1780 29-09-2020 03:00:00 11.13333 C 9.29 g/m*3 11.13 C 0 km/h
1781 29-09-2020 04:00:00 11.2 C 9.36 g/m*3 11.2 C 0 km/h
1782 29-09-2020 05:00:00 11.3 C 9.49 g/m*3 11.3 C 0 km/h
1783 29-09-2020 06:00:00 11.4 C 9.55 g/m*3 11.4 C 0 km/h
1784 29-09-2020 07:00:00 11.59167 C 9.74 g/m*3 11.59 C 0 km/h
1785 29-09-2020 08:00:00 11.81667 C 9.96 g/m*3 11.82 C 0 km/h
1786 29-09-2020 09:00:00 12.2 C 10.28 g/m*3 12.2 C 1.6 km/h
1787 29-09-2020 10:00:00 12.65 C 10.61 g/m*3 12.65 C 3.46667 km/h
1788 29-09-2020 11:00:00 13.18333 C 10.92 g/m*3 13.18 C 3.2 km/h
1789 29-09-2020 12:00:00 13.725 C 11.23 g/m*3 13.73 C 5.06667 km/h
1790 29-09-2020 13:00:00 14.1 C 11.38 g/m*3 14.1 C 6.01667 km/h
1791 29-09-2020 14:00:00 14.30833 C 11.62 g/m*3 14.31 C 6.43333 km/h
1792 29-09-2020 15:00:00 14.26667 C 11.54 g/m*3 14.27 C 7.93333 km/h
1793 29-09-2020 16:00:00 13.43333 C 10.98 g/m*3 13.43 C 5.21667 km/h
1794 29-09-2020 17:00:00 13.15833 C 10.88 g/m*3 13.16 C 2.14167 km/h
1795 29-09-2020 18:00:00 13.21667 C 10.92 g/m*3 13.22 C 1.86667 km/h
1796 29-09-2020 19:00:00 12.425 C 10.4 g/m*3 12.43 C 4.54167 km/h
1797 29-09-2020 20:00:00 11.55 C 9.84 g/m*3 11.55 C 0.13333 km/h
1798 29-09-2020 21:00:00 10.70833 C 9.34 g/m*3 10.71 C 0 km/h
1799 29-09-2020 22:00:00 10.24167 C 9.15 g/m*3 10.24 C 0 km/h
1800 29-09-2020 23:00:00 10.5 C 9.34 g/m*3 10.5 C 0 km/h
Sensor: Nr:Datum:Temp:Abs-Feuchte:Windchill:Wind:
Aussen-T/F 1801 30-09-2020 00:00:00 10.88333 C 9.64 g/m*3 10.88 C 0 km/h
1802 30-09-2020 01:00:00 11.05833 C 9.74 g/m*3 11.06 C 0 km/h
1803 30-09-2020 02:00:00 11.2 C 9.83 g/m*3 11.2 C 0 km/h
1804 30-09-2020 03:00:00 11.49167 C 10.01 g/m*3 11.49 C 0 km/h
1805 30-09-2020 04:00:00 11.75833 C 10.18 g/m*3 11.76 C 0 km/h
1806 30-09-2020 05:00:00 11.90833 C 10.28 g/m*3 11.91 C 0 km/h
1807 30-09-2020 06:00:00 12.11667 C 10.41 g/m*3 12.12 C 0 km/h
1808 30-09-2020 07:00:00 12.23333 C 10.49 g/m*3 12.23 C 0 km/h
1809 30-09-2020 08:00:00 12.65 C 10.76 g/m*3 12.65 C 0 km/h
1810 30-09-2020 09:00:00 13.59167 C 11.44 g/m*3 13.59 C 0 km/h
1811 30-09-2020 10:00:00 14.675 C 12.26 g/m*3 14.68 C 2.13333 km/h
1812 30-09-2020 11:00:00 15.65833 C 12.76 g/m*3 15.66 C 4.81667 km/h
1813 30-09-2020 12:00:00 16.64167 C 12.95 g/m*3 16.64 C 3.21667 km/h
1814 30-09-2020 13:00:00 16.89167 C 12.81 g/m*3 16.89 C 1.6 km/h
1815 30-09-2020 14:00:00 17.64167 C 12.94 g/m*3 17.64 C 3.46667 km/h
1816 30-09-2020 15:00:00 18.15 C 12.88 g/m*3 18.15 C 4.66667 km/h
1817 30-09-2020 16:00:00 17.9 C 12.66 g/m*3 17.9 C 3.86667 km/h
1818 30-09-2020 17:00:00 18.00833 C 12.6 g/m*3 18.01 C 3.46667 km/h
1819 30-09-2020 18:00:00 17.05 C 12.31 g/m*3 17.05 C 1.73333 km/h
1820 30-09-2020 19:00:00 15.55833 C 12.03 g/m*3 15.56 C 0.13333 km/h
1821 30-09-2020 20:00:00 14.54167 C 11.43 g/m*3 14.54 C 1.6 km/h
1822 30-09-2020 21:00:00 13.25833 C 10.69 g/m*3 13.26 C 1.2 km/h
1823 30-09-2020 22:00:00 12.175 C 10.12 g/m*3 12.18 C 2.13333 km/h
1824 30-09-2020 23:00:00 11.55 C 9.84 g/m*3 11.55 C 1.73333 km/h
1825 01-10-2020 00:00:00 11.06667 C 9.57 g/m*3 11.07 C 0.26667 km/h
Sensor: Nr:Datum:Temp:Abs-Feuchte:Windchill:Wind:
Aussen-T/F 1826 01-10-2020 01:00:00 10.68333 C 9.4 g/m*3 10.68 C 0.13333 km/h
1827 01-10-2020 02:00:00 10.15833 C 9.11 g/m*3 10.16 C 0.4 km/h
1828 01-10-2020 03:00:00 9.85833 C 8.94 g/m*3 9.86 C 0.13333 km/h
1829 01-10-2020 04:00:00 9.91667 C 9 g/m*3 9.92 C 0 km/h
1830 01-10-2020 05:00:00 10.48333 C 9.39 g/m*3 10.48 C 0 km/h
1831 01-10-2020 06:00:00 9.81667 C 8.98 g/m*3 9.82 C 0.26667 km/h
1832 01-10-2020 07:00:00 9.51667 C 8.81 g/m*3 9.52 C 0 km/h
1833 01-10-2020 08:00:00 10.05833 C 9.15 g/m*3 10.06 C 0 km/h
1834 01-10-2020 09:00:00 10.80833 C 9.59 g/m*3 10.81 C 0 km/h
1835 01-10-2020 10:00:00 12.25 C 10.57 g/m*3 12.25 C 2.94167 km/h
1836 01-10-2020 11:00:00 14.08333 C 11.38 g/m*3 14.08 C 2.8 km/h
1837 01-10-2020 12:00:00 16.04167 C 11.72 g/m*3 16.04 C 4.26667 km/h
1838 01-10-2020 13:00:00 16.95833 C 11.68 g/m*3 16.96 C 5.35 km/h
1839 01-10-2020 14:00:00 16.90833 C 11.52 g/m*3 16.91 C 2.13333 km/h
1840 01-10-2020 15:00:00 15.9 C 11.92 g/m*3 15.9 C 1.6 km/h
1841 01-10-2020 16:00:00 15.275 C 11.89 g/m*3 15.28 C 1.33333 km/h
1842 01-10-2020 17:00:00 15.23333 C 12.06 g/m*3 15.23 C 0.66667 km/h
1843 01-10-2020 18:00:00 16.05 C 12.38 g/m*3 16.05 C 2.94167 km/h
1844 01-10-2020 19:00:00 13.75 C 10.77 g/m*3 13.75 C 4.26667 km/h
1845 01-10-2020 20:00:00 12.34167 C 10.18 g/m*3 12.34 C 3.46667 km/h
1846 01-10-2020 21:00:00 12.33333 C 10.35 g/m*3 12.33 C 4.01667 km/h
1847 01-10-2020 22:00:00 11.475 C 9.8 g/m*3 11.48 C 1.6 km/h
1848 01-10-2020 23:00:00 10.825 C 9.48 g/m*3 10.83 C 4.41667 km/h
1849 02-10-2020 00:00:00 10.5 C 9.29 g/m*3 10.5 C 2.13333 km/h
1850 02-10-2020 01:00:00 9.85833 C 8.94 g/m*3 9.86 C 0 km/h
Sensor: Nr:Datum:Temp:Abs-Feuchte:Windchill:Wind:
Aussen-T/F 1851 02-10-2020 02:00:00 9.21667 C 8.58 g/m*3 9.22 C 0 km/h
1852 02-10-2020 03:00:00 8.675 C 8.29 g/m*3 8.68 C 0 km/h
1853 02-10-2020 04:00:00 8 C 7.94 g/m*3 8 C 0 km/h
1854 02-10-2020 05:00:00 7.8 C 7.86 g/m*3 7.8 C 0 km/h
1855 02-10-2020 06:00:00 8.13333 C 8.09 g/m*3 8.13 C 0 km/h
1856 02-10-2020 07:00:00 8.46667 C 8.26 g/m*3 8.47 C 0 km/h
1857 02-10-2020 08:00:00 9.19167 C 8.66 g/m*3 9.19 C 0 km/h
1858 02-10-2020 09:00:00 10.56667 C 9.51 g/m*3 10.57 C 3.20833 km/h
1859 02-10-2020 10:00:00 11.975 C 10.37 g/m*3 11.98 C 1.46667 km/h
1860 02-10-2020 11:00:00 12.54167 C 10.69 g/m*3 12.54 C 3.34167 km/h
1861 02-10-2020 12:00:00 14.15833 C 11.22 g/m*3 14.16 C 10.35833 km/h
1862 02-10-2020 13:00:00 16.11667 C 11.62 g/m*3 16.12 C 7.125 km/h
1863 02-10-2020 14:00:00 17.65 C 12.01 g/m*3 17.65 C 8.325 km/h
1864 02-10-2020 15:00:00 18.44167 C 12.31 g/m*3 18.44 C 5.08333 km/h
1865 02-10-2020 16:00:00 18.85 C 12.4 g/m*3 18.85 C 6.45 km/h
1866 02-10-2020 17:00:00 18.54167 C 12.15 g/m*3 18.54 C 6.70833 km/h
1867 02-10-2020 18:00:00 17.40833 C 12.01 g/m*3 17.41 C 6.98333 km/h
1868 02-10-2020 19:00:00 17.44167 C 11.96 g/m*3 17.44 C 6.3 km/h
1869 02-10-2020 20:00:00 17.15833 C 11.83 g/m*3 17.16 C 8.45 km/h
1870 02-10-2020 21:00:00 17.43333 C 11.78 g/m*3 17.43 C 4.55 km/h
1871 02-10-2020 22:00:00 16.725 C 11.56 g/m*3 16.73 C 4.40833 km/h
1872 02-10-2020 23:00:00 17.10833 C 11.29 g/m*3 17.11 C 10.875 km/h
1873 03-10-2020 00:00:00 17.35833 C 11.19 g/m*3 17.36 C 7.65833 km/h
1874 03-10-2020 01:00:00 17.16667 C 11.11 g/m*3 17.17 C 8.2 km/h
1875 03-10-2020 02:00:00 15.73333 C 10.9 g/m*3 15.73 C 3.33333 km/h
Sensor: Nr:Datum:Temp:Abs-Feuchte:Windchill:Wind:
Aussen-T/F 1876 03-10-2020 03:00:00 14.275 C 10.92 g/m*3 14.28 C 2.66667 km/h
1877 03-10-2020 04:00:00 14.19167 C 11.04 g/m*3 14.19 C 0 km/h
1878 03-10-2020 05:00:00 13.73333 C 10.79 g/m*3 13.73 C 0 km/h
1879 03-10-2020 06:00:00 13.3 C 10.69 g/m*3 13.3 C 0 km/h
1880 03-10-2020 07:00:00 13.45 C 10.91 g/m*3 13.45 C 2.675 km/h
1881 03-10-2020 08:00:00 13.85 C 11.19 g/m*3 13.85 C 5.61667 km/h
1882 03-10-2020 09:00:00 13.83333 C 11 g/m*3 13.83 C 7.78333 km/h
1883 03-10-2020 10:00:00 13.69167 C 10.6 g/m*3 13.69 C 11.7 km/h
1884 03-10-2020 11:00:00 13.53333 C 10.34 g/m*3 13.53 C 12.49167 km/h
1885 03-10-2020 12:00:00 13.08333 C 9.95 g/m*3 13.08 C 13.425 km/h
1886 03-10-2020 13:00:00 12.95833 C 9.74 g/m*3 12.96 C 10.85833 km/h
1887 03-10-2020 14:00:00 12.025 C 9.72 g/m*3 12.03 C 3.475 km/h
1888 03-10-2020 15:00:00 11.94167 C 9.8 g/m*3 11.94 C 1.73333 km/h
1889 03-10-2020 16:00:00 12.38333 C 9.75 g/m*3 12.38 C 1.86667 km/h
1890 03-10-2020 17:00:00 14.28333 C 10.3 g/m*3 14.28 C 2.8 km/h
1891 03-10-2020 18:00:00 14.45 C 10.22 g/m*3 14.45 C 3.86667 km/h
1892 03-10-2020 19:00:00 11.88333 C 9.51 g/m*3 11.88 C 2 km/h
1893 03-10-2020 20:00:00 11.4 C 9.23 g/m*3 11.4 C 2.26667 km/h
1894 03-10-2020 21:00:00 10.81667 C 9.13 g/m*3 10.82 C 0.8 km/h
1895 03-10-2020 22:00:00 10.35833 C 8.99 g/m*3 10.36 C 2.66667 km/h
1896 03-10-2020 23:00:00 11.19167 C 9.28 g/m*3 11.19 C 4.95 km/h
1897 04-10-2020 00:00:00 10.66667 C 8.95 g/m*3 10.67 C 2.66667 km/h
1898 04-10-2020 01:00:00 10.63333 C 9.13 g/m*3 10.63 C 1.2 km/h
1899 04-10-2020 02:00:00 10.38333 C 9.05 g/m*3 10.38 C 2.26667 km/h
1900 04-10-2020 03:00:00 9.925 C 8.83 g/m*3 9.93 C 1.6 km/h
Sensor: Nr:Datum:Temp:Abs-Feuchte:Windchill:Wind:
Aussen-T/F 1901 04-10-2020 04:00:00 9.96667 C 8.99 g/m*3 9.97 C 2.66667 km/h
1902 04-10-2020 05:00:00 10.38333 C 9.19 g/m*3 10.38 C 4.95 km/h
1903 04-10-2020 06:00:00 10.70833 C 9.34 g/m*3 10.71 C 4.95 km/h
1904 04-10-2020 07:00:00 10.53333 C 9.19 g/m*3 10.53 C 4.14167 km/h
1905 04-10-2020 08:00:00 10.43333 C 9.2 g/m*3 10.43 C 2 km/h
1906 04-10-2020 09:00:00 10.93333 C 9.33 g/m*3 10.79 C 5.075 km/h
1907 04-10-2020 10:00:00 11.56667 C 9.27 g/m*3 11.57 C 6.575 km/h
1908 04-10-2020 11:00:00 12.54167 C 8.98 g/m*3 12.54 C 16.9 km/h
1909 04-10-2020 12:00:00 13.175 C 8.75 g/m*3 13.18 C 12.63333 km/h
1910 04-10-2020 13:00:00 13.49167 C 8.29 g/m*3 13.49 C 12.36667 km/h
1911 04-10-2020 14:00:00 14.15 C 8.51 g/m*3 14.15 C 12.1 km/h
1912 04-10-2020 15:00:00 14.96667 C 8.66 g/m*3 14.97 C 8.86667 km/h
1913 04-10-2020 16:00:00 15.38333 C 8.65 g/m*3 15.38 C 6.85 km/h
1914 04-10-2020 17:00:00 15.00833 C 9.16 g/m*3 15.01 C 2.26667 km/h
1915 04-10-2020 18:00:00 14.2 C 9.61 g/m*3 14.2 C 1.86667 km/h
1916 04-10-2020 19:00:00 12.56667 C 9.45 g/m*3 12.57 C 4.69167 km/h
1917 04-10-2020 20:00:00 11.63333 C 9.5 g/m*3 11.63 C 0.93333 km/h
1918 04-10-2020 21:00:00 11.05 C 9.39 g/m*3 11.05 C 2.00833 km/h
1919 04-10-2020 22:00:00 9.9 C 8.77 g/m*3 9.9 C 1.33333 km/h
1920 04-10-2020 23:00:00 8.96667 C 8.34 g/m*3 8.97 C 0 km/h
1921 05-10-2020 00:00:00 8.61667 C 8.2 g/m*3 8.62 C 3.21667 km/h
1922 05-10-2020 01:00:00 8.59167 C 8.23 g/m*3 8.59 C 2.53333 km/h
1923 05-10-2020 02:00:00 9.175 C 8.58 g/m*3 9.18 C 3.06667 km/h
1924 05-10-2020 03:00:00 9.11667 C 8.56 g/m*3 9.12 C 1.33333 km/h
1925 05-10-2020 04:00:00 8.94167 C 8.48 g/m*3 8.94 C 2.66667 km/h
Sensor: Nr:Datum:Temp:Abs-Feuchte:Windchill:Wind:
Aussen-T/F 1926 05-10-2020 05:00:00 8.59167 C 8.28 g/m*3 8.59 C 3.33333 km/h
1927 05-10-2020 06:00:00 8.51667 C 8.29 g/m*3 8.52 C 3.33333 km/h
1928 05-10-2020 07:00:00 8.76667 C 8.42 g/m*3 8.77 C 1.86667 km/h
1929 05-10-2020 08:00:00 9.23333 C 8.68 g/m*3 9.23 C 2.8 km/h
1930 05-10-2020 09:00:00 10.125 C 9.19 g/m*3 10.13 C 2.93333 km/h
1931 05-10-2020 10:00:00 10.275 C 9.15 g/m*3 10.04 C 5.09167 km/h
1932 05-10-2020 11:00:00 11.60833 C 9.15 g/m*3 11.61 C 8.46667 km/h
1933 05-10-2020 12:00:00 12.90833 C 9.27 g/m*3 12.91 C 8.325 km/h
1934 05-10-2020 13:00:00 12.875 C 9.49 g/m*3 12.88 C 6.16667 km/h
1935 05-10-2020 14:00:00 13.1 C 10.07 g/m*3 13.1 C 4.29167 km/h
1936 05-10-2020 15:00:00 14.04167 C 10.13 g/m*3 14.04 C 9.54167 km/h
1937 05-10-2020 16:00:00 14.275 C 9.97 g/m*3 14.28 C 10.09167 km/h
1938 05-10-2020 17:00:00 13.65833 C 9.73 g/m*3 13.66 C 10.20833 km/h
1939 05-10-2020 18:00:00 13.375 C 9.75 g/m*3 13.38 C 3.34167 km/h
1940 05-10-2020 19:00:00 12.825 C 9.76 g/m*3 12.83 C 1.46667 km/h
1941 05-10-2020 20:00:00 12.09167 C 9.61 g/m*3 12.09 C 3.475 km/h
1942 05-10-2020 21:00:00 11.90833 C 9.74 g/m*3 11.91 C 0.8 km/h
1943 05-10-2020 22:00:00 11.59167 C 9.68 g/m*3 11.59 C 0.53333 km/h
1944 05-10-2020 23:00:00 11.53333 C 9.82 g/m*3 11.53 C 1.46667 km/h
1945 06-10-2020 00:00:00 11.79167 C 10.04 g/m*3 11.79 C 0.66667 km/h
1946 06-10-2020 01:00:00 11.8 C 10.1 g/m*3 11.8 C 2.14167 km/h
1947 06-10-2020 02:00:00 11.8 C 10.1 g/m*3 11.8 C 2.68333 km/h
1948 06-10-2020 03:00:00 11.93333 C 10.21 g/m*3 11.93 C 4.825 km/h
1949 06-10-2020 04:00:00 12.275 C 10.32 g/m*3 12.28 C 16.23333 km/h
1950 06-10-2020 05:00:00 12.11667 C 9.89 g/m*3 12.12 C 22.8 km/h
Sensor: Nr:Datum:Temp:Abs-Feuchte:Windchill:Wind:
Aussen-T/F 1951 06-10-2020 06:00:00 11.8 C 9.39 g/m*3 11.8 C 16.63333 km/h
1952 06-10-2020 07:00:00 11.70833 C 9.24 g/m*3 11.71 C 11.55833 km/h
1953 06-10-2020 08:00:00 11.95 C 9.26 g/m*3 11.95 C 8.73333 km/h
1954 06-10-2020 09:00:00 12.60833 C 9.52 g/m*3 12.61 C 5.075 km/h
1955 06-10-2020 10:00:00 13.3 C 9.8 g/m*3 13.3 C 6.99167 km/h
1956 06-10-2020 11:00:00 13.88333 C 10.12 g/m*3 13.88 C 11.3 km/h
1957 06-10-2020 12:00:00 14.80833 C 10.6 g/m*3 14.81 C 11.41667 km/h
1958 06-10-2020 13:00:00 15.05 C 10.65 g/m*3 15.05 C 8.06667 km/h
1959 06-10-2020 14:00:00 15.05 C 11.18 g/m*3 15.05 C 9.8 km/h
1960 06-10-2020 15:00:00 15.35833 C 10.91 g/m*3 15.36 C 14.76667 km/h
1961 06-10-2020 16:00:00 15.425 C 10.74 g/m*3 15.43 C 12.09167 km/h
1962 06-10-2020 17:00:00 14.78333 C 10.68 g/m*3 14.78 C 10.225 km/h
1963 06-10-2020 18:00:00 13.36667 C 10.46 g/m*3 13.37 C 8.88333 km/h
1964 06-10-2020 19:00:00 12.94167 C 10.1 g/m*3 12.94 C 9.525 km/h
1965 06-10-2020 20:00:00 12.86667 C 9.99 g/m*3 12.87 C 7.375 km/h
1966 06-10-2020 21:00:00 12.675 C 9.86 g/m*3 12.68 C 6.575 km/h
1967 06-10-2020 22:00:00 12.775 C 9.81 g/m*3 12.78 C 12.5 km/h
1968 06-10-2020 23:00:00 12.66667 C 9.66 g/m*3 12.67 C 12.5 km/h
1969 07-10-2020 00:00:00 12.25 C 9.53 g/m*3 12.25 C 9.40833 km/h
1970 07-10-2020 01:00:00 12.325 C 9.62 g/m*3 12.33 C 9.4 km/h
1971 07-10-2020 02:00:00 11.90833 C 9.62 g/m*3 11.91 C 11.825 km/h
1972 07-10-2020 03:00:00 11.85 C 9.54 g/m*3 11.85 C 11.83333 km/h
1973 07-10-2020 04:00:00 12.2 C 9.48 g/m*3 12.2 C 11.95833 km/h
1974 07-10-2020 05:00:00 12.15 C 9.43 g/m*3 12.15 C 10.23333 km/h
1975 07-10-2020 06:00:00 11.99167 C 9.43 g/m*3 11.99 C 12.225 km/h
Sensor: Nr:Datum:Temp:Abs-Feuchte:Windchill:Wind:
Aussen-T/F 1976 07-10-2020 07:00:00 12.10833 C 9.51 g/m*3 12.11 C 13.025 km/h
1977 07-10-2020 08:00:00 12.50833 C 9.5 g/m*3 12.51 C 12.63333 km/h
1978 07-10-2020 09:00:00 12.76667 C 9.57 g/m*3 12.77 C 11.025 km/h
1979 07-10-2020 10:00:00 13.24167 C 9.65 g/m*3 13.24 C 12.76667 km/h
1980 07-10-2020 11:00:00 13.8 C 9.33 g/m*3 13.8 C 13.29167 km/h
1981 07-10-2020 12:00:00 14.725 C 9.39 g/m*3 14.73 C 15.3 km/h
1982 07-10-2020 13:00:00 15.09167 C 9.57 g/m*3 15.09 C 13.69167 km/h
1983 07-10-2020 14:00:00 15.075 C 9.75 g/m*3 15.08 C 13.825 km/h
1984 07-10-2020 15:00:00 14.225 C 9.97 g/m*3 14.23 C 11.55833 km/h
1985 07-10-2020 16:00:00 14.81667 C 10.01 g/m*3 14.82 C 8.98333 km/h
1986 07-10-2020 17:00:00 14.86667 C 9.6 g/m*3 14.87 C 9.53333 km/h
1987 07-10-2020 18:00:00 14.50833 C 9.35 g/m*3 14.51 C 7.65833 km/h
1988 07-10-2020 19:00:00 14 C 8.63 g/m*3 14 C 11.03333 km/h
1989 07-10-2020 20:00:00 13.55 C 8.63 g/m*3 13.55 C 8.46667 km/h
1990 07-10-2020 21:00:00 12.85 C 8.81 g/m*3 12.85 C 5.76667 km/h
1991 07-10-2020 22:00:00 12.24167 C 8.92 g/m*3 12.24 C 4.66667 km/h
1992 07-10-2020 23:00:00 11.61667 C 8.84 g/m*3 11.62 C 2.53333 km/h
1993 08-10-2020 00:00:00 10.375 C 8.49 g/m*3 10.38 C 3.74167 km/h
1994 08-10-2020 01:00:00 9.44167 C 8.23 g/m*3 9.44 C 1.6 km/h
1995 08-10-2020 02:00:00 8.89167 C 8.07 g/m*3 8.89 C 0.53333 km/h
1996 08-10-2020 03:00:00 8.325 C 7.88 g/m*3 8.32 C 0.53333 km/h
1997 08-10-2020 04:00:00 8.46667 C 8.07 g/m*3 8.47 C 0 km/h
1998 08-10-2020 05:00:00 9.06667 C 8.42 g/m*3 9.07 C 0.26667 km/h
1999 08-10-2020 06:00:00 9.66667 C 8.82 g/m*3 9.67 C 0 km/h
2000 08-10-2020 07:00:00 10.01667 C 9.03 g/m*3 10.02 C 0 km/h
Sensor: Nr:Datum:Temp:Abs-Feuchte:Windchill:Wind:
Aussen-T/F 2001 08-10-2020 08:00:00 10.76667 C 9.52 g/m*3 10.77 C 0.8 km/h
2002 08-10-2020 09:00:00 11.83333 C 10.23 g/m*3 11.83 C 4.29167 km/h
2003 08-10-2020 10:00:00 12.59167 C 10.7 g/m*3 12.59 C 3.49167 km/h
2004 08-10-2020 11:00:00 13.85 C 11.23 g/m*3 13.85 C 9.13333 km/h
2005 08-10-2020 12:00:00 15.33333 C 11.28 g/m*3 15.33 C 19.05 km/h
2006 08-10-2020 13:00:00 15.825 C 11.28 g/m*3 15.83 C 25.075 km/h
2007 08-10-2020 14:00:00 16.15 C 11.38 g/m*3 16.15 C 17.7 km/h
2008 08-10-2020 15:00:00 16.425 C 11.37 g/m*3 16.43 C 18.23333 km/h
2009 08-10-2020 16:00:00 16.39167 C 11.49 g/m*3 16.39 C 17.43333 km/h
2010 08-10-2020 17:00:00 16.53333 C 11.47 g/m*3 16.53 C 11.80833 km/h
2011 08-10-2020 18:00:00 16.525 C 11.45 g/m*3 16.52 C 11.55 km/h
2012 08-10-2020 19:00:00 16.30833 C 11.41 g/m*3 16.31 C 16.775 km/h
2013 08-10-2020 20:00:00 16.29167 C 11.57 g/m*3 16.29 C 20.1 km/h
2014 08-10-2020 21:00:00 16.23333 C 11.72 g/m*3 16.23 C 17.43333 km/h
2015 08-10-2020 22:00:00 16.46667 C 11.78 g/m*3 16.47 C 19.96667 km/h
2016 08-10-2020 23:00:00 16.28333 C 11.82 g/m*3 16.28 C 18.775 km/h
2017 09-10-2020 00:00:00 16.18333 C 11.76 g/m*3 16.18 C 19.84167 km/h
2018 09-10-2020 01:00:00 15.38333 C 11.41 g/m*3 15.38 C 11.55833 km/h
2019 09-10-2020 02:00:00 13.83333 C 10.99 g/m*3 13.83 C 1.86667 km/h
2020 09-10-2020 03:00:00 13.35 C 10.89 g/m*3 13.35 C 1.06667 km/h
2021 09-10-2020 04:00:00 12.825 C 10.63 g/m*3 12.83 C 2.13333 km/h
2022 09-10-2020 05:00:00 12.66667 C 10.55 g/m*3 12.67 C 0 km/h
2023 09-10-2020 06:00:00 12.6 C 10.55 g/m*3 12.6 C 0 km/h
2024 09-10-2020 07:00:00 12.58333 C 10.61 g/m*3 12.58 C 0 km/h
2025 09-10-2020 08:00:00 12.65833 C 10.66 g/m*3 12.66 C 0 km/h
Sensor: Nr:Datum:Temp:Abs-Feuchte:Windchill:Wind:
Aussen-T/F 2026 09-10-2020 09:00:00 12.875 C 10.8 g/m*3 12.88 C 1.6 km/h
2027 09-10-2020 10:00:00 12.96667 C 10.94 g/m*3 12.97 C 0.8 km/h
2028 09-10-2020 11:00:00 13.375 C 11.26 g/m*3 13.38 C 0 km/h
2029 09-10-2020 12:00:00 14.125 C 11.79 g/m*3 14.13 C 1.46667 km/h
2030 09-10-2020 13:00:00 14.775 C 12.26 g/m*3 14.78 C 4.425 km/h
2031 09-10-2020 14:00:00 14.9 C 12.18 g/m*3 14.9 C 7.24167 km/h
2032 09-10-2020 15:00:00 14.69167 C 11.93 g/m*3 14.69 C 5.48333 km/h
2033 09-10-2020 16:00:00 13.64167 C 11.17 g/m*3 13.64 C 2.14167 km/h
2034 09-10-2020 17:00:00 13.1 C 10.89 g/m*3 13.1 C 4.825 km/h
2035 09-10-2020 18:00:00 12.20833 C 10.26 g/m*3 12.21 C 4.26667 km/h
2036 09-10-2020 19:00:00 11.14167 C 9.61 g/m*3 11.14 C 4.28333 km/h
2037 09-10-2020 20:00:00 10.31667 C 9.18 g/m*3 10.32 C 0 km/h
2038 09-10-2020 21:00:00 10.425 C 9.27 g/m*3 10.43 C 0 km/h
2039 09-10-2020 22:00:00 10.275 C 9.22 g/m*3 10.28 C 0 km/h
2040 09-10-2020 23:00:00 10.875 C 9.63 g/m*3 10.88 C 0 km/h
2041 10-10-2020 00:00:00 10.89167 C 9.64 g/m*3 10.89 C 0.53333 km/h
2042 10-10-2020 01:00:00 10 C 9.08 g/m*3 10 C 4.275 km/h
2043 10-10-2020 02:00:00 9.60833 C 8.89 g/m*3 9.61 C 2.26667 km/h
2044 10-10-2020 03:00:00 9.61667 C 8.9 g/m*3 9.62 C 2.8 km/h
2045 10-10-2020 04:00:00 9.86667 C 9.04 g/m*3 9.87 C 2.93333 km/h
2046 10-10-2020 05:00:00 9.81667 C 9.01 g/m*3 9.82 C 0.53333 km/h
2047 10-10-2020 06:00:00 9.51667 C 8.84 g/m*3 9.52 C 0.13333 km/h
2048 10-10-2020 07:00:00 8.925 C 8.51 g/m*3 8.93 C 3.06667 km/h
2049 10-10-2020 08:00:00 8.375 C 8.22 g/m*3 8.38 C 3.2 km/h
2050 10-10-2020 09:00:00 8.275 C 8.16 g/m*3 8.28 C 1.73333 km/h
Sensor: Nr:Datum:Temp:Abs-Feuchte:Windchill:Wind:
Aussen-T/F 2051 10-10-2020 10:00:00 8.18333 C 8.11 g/m*3 8.18 C 4.675 km/h
2052 10-10-2020 11:00:00 9.075 C 8.42 g/m*3 8.16 C 6.96667 km/h
2053 10-10-2020 12:00:00 10.99167 C 7.93 g/m*3 9.43 C 12.625 km/h
2054 10-10-2020 13:00:00 12.24167 C 7.51 g/m*3 12.24 C 12.89167 km/h
2055 10-10-2020 14:00:00 12.5 C 7.31 g/m*3 12.5 C 9.825 km/h
2056 10-10-2020 15:00:00 12.65 C 7.23 g/m*3 12.65 C 9.95 km/h
2057 10-10-2020 16:00:00 12.675 C 7.24 g/m*3 12.68 C 9.675 km/h
2058 10-10-2020 17:00:00 12.44167 C 7.47 g/m*3 12.44 C 6.98333 km/h
2059 10-10-2020 18:00:00 11.80833 C 7.84 g/m*3 11.81 C 5.86667 km/h
2060 10-10-2020 19:00:00 8.66667 C 7.17 g/m*3 7.78 C 6.56667 km/h
2061 10-10-2020 20:00:00 7.39167 C 6.89 g/m*3 6.76 C 5.09167 km/h
2062 10-10-2020 21:00:00 6.65 C 6.86 g/m*3 6.65 C 3.475 km/h
2063 10-10-2020 22:00:00 8.26667 C 7.31 g/m*3 7.22 C 6.96667 km/h
2064 10-10-2020 23:00:00 9.64167 C 7.37 g/m*3 8.54 C 8.2 km/h
2065 11-10-2020 00:00:00 9.45 C 7.39 g/m*3 8.26 C 8.475 km/h
2066 11-10-2020 01:00:00 9.64167 C 7.55 g/m*3 8.63 C 7.775 km/h
2067 11-10-2020 02:00:00 9.425 C 7.64 g/m*3 9.04 C 5.20833 km/h
2068 11-10-2020 03:00:00 9.35 C 7.76 g/m*3 9.35 C 3.2 km/h
2069 11-10-2020 04:00:00 9.15833 C 7.81 g/m*3 9.16 C 3.88333 km/h
2070 11-10-2020 05:00:00 8.96667 C 7.83 g/m*3 8.97 C 2.26667 km/h
2071 11-10-2020 06:00:00 8.76667 C 7.8 g/m*3 8.77 C 0 km/h
2072 11-10-2020 07:00:00 8.60833 C 7.9 g/m*3 8.61 C 1.6 km/h
2073 11-10-2020 08:00:00 8.20833 C 7.82 g/m*3 8.21 C 1.33333 km/h
2074 11-10-2020 09:00:00 8.54167 C 8.05 g/m*3 8.54 C 2.13333 km/h
2075 11-10-2020 10:00:00 9.21667 C 8.22 g/m*3 9.22 C 1.86667 km/h
Sensor: Nr:Datum:Temp:Abs-Feuchte:Windchill:Wind:
Aussen-T/F 2076 11-10-2020 11:00:00 9.475 C 8.13 g/m*3 9.48 C 0.93333 km/h
2077 11-10-2020 12:00:00 10.50833 C 8.26 g/m*3 10.51 C 4.15 km/h
2078 11-10-2020 13:00:00 11.54167 C 8.03 g/m*3 11.54 C 3.75 km/h
2079 11-10-2020 14:00:00 12.44167 C 7.57 g/m*3 12.44 C 4.69167 km/h
2080 11-10-2020 15:00:00 13.09167 C 7.2 g/m*3 13.09 C 8.19167 km/h
2081 11-10-2020 16:00:00 12.90833 C 7.3 g/m*3 12.91 C 9.41667 km/h
2082 11-10-2020 17:00:00 12.575 C 7.63 g/m*3 12.58 C 3.075 km/h
2083 11-10-2020 18:00:00 11.86667 C 8.34 g/m*3 11.87 C 2.4 km/h
2084 11-10-2020 19:00:00 9.91667 C 7.73 g/m*3 9.92 C 3.46667 km/h
2085 11-10-2020 20:00:00 10.20833 C 8.01 g/m*3 9.81 C 5.63333 km/h
2086 11-10-2020 21:00:00 9.51667 C 8.19 g/m*3 9.52 C 4.54167 km/h
2087 11-10-2020 22:00:00 9.14167 C 8.24 g/m*3 9.14 C 1.46667 km/h
2088 11-10-2020 23:00:00 9.14167 C 8.33 g/m*3 9.14 C 1.6 km/h
2089 12-10-2020 00:00:00 9.13333 C 8.36 g/m*3 9.13 C 2 km/h
2090 12-10-2020 01:00:00 9.01667 C 8.33 g/m*3 9.02 C 1.86667 km/h
2091 12-10-2020 02:00:00 9.08333 C 8.42 g/m*3 9.08 C 0.4 km/h
2092 12-10-2020 03:00:00 8.95 C 8.35 g/m*3 8.95 C 0.13333 km/h
2093 12-10-2020 04:00:00 8.9 C 8.32 g/m*3 8.9 C 0.26667 km/h
2094 12-10-2020 05:00:00 8.89167 C 8.32 g/m*3 8.89 C 0.8 km/h
2095 12-10-2020 06:00:00 8.69167 C 8.21 g/m*3 8.69 C 1.6 km/h
2096 12-10-2020 07:00:00 8.71667 C 8.25 g/m*3 8.72 C 1.06667 km/h
2097 12-10-2020 08:00:00 8.80833 C 8.28 g/m*3 8.81 C 0.66667 km/h
2098 12-10-2020 09:00:00 9.16667 C 8.49 g/m*3 9.17 C 0.8 km/h
2099 12-10-2020 10:00:00 9.64167 C 8.69 g/m*3 9.64 C 4.53333 km/h
2100 12-10-2020 11:00:00 10.68333 C 8.95 g/m*3 10.68 C 3.06667 km/h
Sensor: Nr:Datum:Temp:Abs-Feuchte:Windchill:Wind:
Aussen-T/F 2101 12-10-2020 12:00:00 11.63333 C 8.99 g/m*3 11.63 C 3.33333 km/h
2102 12-10-2020 13:00:00 12.28333 C 8.9 g/m*3 12.28 C 6.30833 km/h
2103 12-10-2020 14:00:00 12.24167 C 8.99 g/m*3 12.24 C 6.575 km/h
2104 12-10-2020 15:00:00 12.19167 C 8.83 g/m*3 12.19 C 8.31667 km/h
2105 12-10-2020 16:00:00 11.06667 C 9 g/m*3 11.07 C 2.53333 km/h
2106 12-10-2020 17:00:00 11.79167 C 9.1 g/m*3 11.79 C 1.6 km/h
2107 12-10-2020 18:00:00 10.66667 C 8.43 g/m*3 10.67 C 4.54167 km/h
2108 12-10-2020 19:00:00 8.3 C 7.55 g/m*3 8.3 C 2 km/h
2109 12-10-2020 20:00:00 7.10833 C 7.19 g/m*3 7.11 C 0 km/h
2110 12-10-2020 21:00:00 6.55 C 7.05 g/m*3 6.55 C 0.53333 km/h
2111 12-10-2020 22:00:00 6.33333 C 7.02 g/m*3 6.33 C 0.13333 km/h
2112 12-10-2020 23:00:00 5.94167 C 6.86 g/m*3 5.94 C 0 km/h
2113 13-10-2020 00:00:00 5.3 C 6.58 g/m*3 5.3 C 0 km/h
2114 13-10-2020 01:00:00 5.075 C 6.52 g/m*3 5.08 C 0 km/h
2115 13-10-2020 02:00:00 5.70833 C 6.84 g/m*3 5.71 C 0.13333 km/h
2116 13-10-2020 03:00:00 6.2 C 7.06 g/m*3 6.2 C 0.4 km/h
2117 13-10-2020 04:00:00 6.15833 C 7.04 g/m*3 6.16 C 0 km/h
2118 13-10-2020 05:00:00 6.25833 C 7.09 g/m*3 6.26 C 0 km/h
2119 13-10-2020 06:00:00 6.35 C 7.2 g/m*3 6.35 C 0 km/h
2120 13-10-2020 07:00:00 6.325 C 7.19 g/m*3 6.33 C 0 km/h
2121 13-10-2020 08:00:00 6.61667 C 7.33 g/m*3 6.62 C 0.13333 km/h
2122 13-10-2020 09:00:00 7.05833 C 7.54 g/m*3 7.06 C 0.13333 km/h
2123 13-10-2020 10:00:00 7.41667 C 7.65 g/m*3 6.7 C 5.35833 km/h
2124 13-10-2020 11:00:00 8.08333 C 7.8 g/m*3 8.08 C 4.275 km/h
2125 13-10-2020 12:00:00 9.225 C 8.09 g/m*3 9.23 C 4.00833 km/h
Sensor: Nr:Datum:Temp:Abs-Feuchte:Windchill:Wind:
Aussen-T/F 2126 13-10-2020 13:00:00 10.16667 C 8.17 g/m*3 10.17 C 4.14167 km/h
2127 13-10-2020 14:00:00 10.6 C 8.17 g/m*3 10.2 C 5.86667 km/h
2128 13-10-2020 15:00:00 10.91667 C 8.12 g/m*3 10.92 C 3.88333 km/h
2129 13-10-2020 16:00:00 10.59167 C 8.12 g/m*3 10.59 C 1.73333 km/h
2130 13-10-2020 17:00:00 10.325 C 8.25 g/m*3 10.33 C 0.93333 km/h
2131 13-10-2020 18:00:00 8.75 C 7.65 g/m*3 8.75 C 2.8 km/h
2132 13-10-2020 19:00:00 7.19167 C 7.18 g/m*3 7.19 C 1.2 km/h
2133 13-10-2020 20:00:00 6.40833 C 6.98 g/m*3 6.41 C 0.66667 km/h
2134 13-10-2020 21:00:00 5.89167 C 6.8 g/m*3 5.89 C 1.73333 km/h
2135 13-10-2020 22:00:00 5.36667 C 6.61 g/m*3 5.37 C 2.66667 km/h
2136 13-10-2020 23:00:00 4.98333 C 6.45 g/m*3 4.98 C 0.13333 km/h
2137 14-10-2020 00:00:00 5.275 C 6.64 g/m*3 5.28 C 0 km/h
2138 14-10-2020 01:00:00 5.03333 C 6.53 g/m*3 5.03 C 0 km/h
2139 14-10-2020 02:00:00 4.83333 C 6.45 g/m*3 4.83 C 0 km/h
2140 14-10-2020 03:00:00 4.25 C 6.21 g/m*3 4.25 C 0 km/h
2141 14-10-2020 04:00:00 3.675 C 5.97 g/m*3 3.68 C 0 km/h
2142 14-10-2020 05:00:00 4.25 C 6.21 g/m*3 4.25 C 0 km/h
2143 14-10-2020 06:00:00 4.56667 C 6.4 g/m*3 4.57 C 0 km/h
2144 14-10-2020 07:00:00 4.8 C 6.5 g/m*3 4.8 C 0.13333 km/h
2145 14-10-2020 08:00:00 4.95833 C 6.57 g/m*3 4.96 C 0 km/h
2146 14-10-2020 09:00:00 5.925 C 7.01 g/m*3 5.93 C 0.13333 km/h
2147 14-10-2020 10:00:00 7.06667 C 7.55 g/m*3 7.07 C 0.53333 km/h
2148 14-10-2020 11:00:00 8.1 C 8.03 g/m*3 8.1 C 0.93333 km/h
2149 14-10-2020 12:00:00 9.13333 C 8.22 g/m*3 9.13 C 4.14167 km/h
2150 14-10-2020 13:00:00 10.51667 C 8.46 g/m*3 10.52 C 4.95 km/h
Sensor: Nr:Datum:Temp:Abs-Feuchte:Windchill:Wind:
Aussen-T/F 2151 14-10-2020 14:00:00 11.51667 C 8.52 g/m*3 11.52 C 8.325 km/h
2152 14-10-2020 15:00:00 11.80833 C 8.12 g/m*3 11.81 C 9.95833 km/h
2153 14-10-2020 16:00:00 11.70833 C 7.58 g/m*3 11.71 C 10.225 km/h
2154 14-10-2020 17:00:00 11.26667 C 7.79 g/m*3 11.27 C 8.875 km/h
2155 14-10-2020 18:00:00 10.80833 C 7.7 g/m*3 9.74 C 9.14167 km/h
2156 14-10-2020 19:00:00 10.35 C 7.75 g/m*3 10.35 C 4.675 km/h
2157 14-10-2020 20:00:00 9.84167 C 7.65 g/m*3 8.78 C 8.2 km/h
2158 14-10-2020 21:00:00 9.225 C 7.74 g/m*3 9.23 C 4.28333 km/h
2159 14-10-2020 22:00:00 8.825 C 7.74 g/m*3 8.82 C 3.475 km/h
2160 14-10-2020 23:00:00 8.40833 C 7.8 g/m*3 8.41 C 0.93333 km/h
2161 15-10-2020 00:00:00 8.15833 C 7.83 g/m*3 8.16 C 0.8 km/h
2162 15-10-2020 01:00:00 8.08333 C 7.86 g/m*3 8.08 C 1.2 km/h
2163 15-10-2020 02:00:00 7.975 C 7.84 g/m*3 7.98 C 0.93333 km/h
2164 15-10-2020 03:00:00 7.94167 C 7.84 g/m*3 7.94 C 1.2 km/h
2165 15-10-2020 04:00:00 7.91667 C 7.89 g/m*3 7.92 C 0.93333 km/h
2166 15-10-2020 05:00:00 7.9 C 7.89 g/m*3 7.9 C 0.93333 km/h
2167 15-10-2020 06:00:00 7.81667 C 7.84 g/m*3 7.82 C 1.06667 km/h
2168 15-10-2020 07:00:00 7.83333 C 7.85 g/m*3 7.83 C 0.8 km/h
2169 15-10-2020 08:00:00 7.90833 C 7.89 g/m*3 7.91 C 0.53333 km/h
2170 15-10-2020 09:00:00 8.15 C 8.03 g/m*3 8.15 C 0.26667 km/h
2171 15-10-2020 10:00:00 8.4 C 8.21 g/m*3 8.4 C 0.26667 km/h
2172 15-10-2020 11:00:00 8.7 C 8.32 g/m*3 8.7 C 1.33333 km/h
2173 15-10-2020 12:00:00 9.24167 C 8.51 g/m*3 9.24 C 3.21667 km/h
2174 15-10-2020 13:00:00 9.96667 C 8.52 g/m*3 9.01 C 7.79167 km/h
2175 15-10-2020 14:00:00 10.375 C 8.48 g/m*3 9.25 C 9.03333 km/h
Sensor: Nr:Datum:Temp:Abs-Feuchte:Windchill:Wind:
Aussen-T/F 2176 15-10-2020 15:00:00 10.61667 C 8.44 g/m*3 9.03 C 12.225 km/h
2177 15-10-2020 16:00:00 10.7 C 8.42 g/m*3 9.71 C 8.61667 km/h
2178 15-10-2020 17:00:00 10.71667 C 8.45 g/m*3 10 C 7.25 km/h
2179 15-10-2020 18:00:00 10.625 C 8.45 g/m*3 10.63 C 4.14167 km/h
2180 15-10-2020 19:00:00 10.075 C 8.51 g/m*3 10.07 C 0.93333 km/h
2181 15-10-2020 20:00:00 9.93333 C 8.29 g/m*3 9.93 C 2.94167 km/h
2182 15-10-2020 21:00:00 9.86667 C 8.27 g/m*3 9.87 C 2.13333 km/h
2183 15-10-2020 22:00:00 9.78333 C 8.29 g/m*3 9.78 C 0.66667 km/h
2184 15-10-2020 23:00:00 9.58333 C 8.36 g/m*3 9.58 C 0.13333 km/h
2185 16-10-2020 00:00:00 9.34167 C 8.33 g/m*3 9.34 C 0.26667 km/h
2186 16-10-2020 01:00:00 9.3 C 8.36 g/m*3 9.3 C 0.53333 km/h
2187 16-10-2020 02:00:00 9.30833 C 8.32 g/m*3 9.31 C 0.53333 km/h
2188 16-10-2020 03:00:00 9.325 C 8.22 g/m*3 9.32 C 1.86667 km/h
2189 16-10-2020 04:00:00 9.24167 C 8.16 g/m*3 9.24 C 1.875 km/h
2190 16-10-2020 05:00:00 8.925 C 8.12 g/m*3 8.93 C 0.4 km/h
2191 16-10-2020 06:00:00 8.63333 C 8.03 g/m*3 8.63 C 1.2 km/h
2192 16-10-2020 07:00:00 8.425 C 7.99 g/m*3 8.43 C 0.8 km/h
2193 16-10-2020 08:00:00 8.4 C 7.97 g/m*3 8.4 C 0 km/h
2194 16-10-2020 09:00:00 8.49167 C 8.07 g/m*3 8.49 C 1.46667 km/h
2195 16-10-2020 10:00:00 8.86667 C 8.26 g/m*3 8.87 C 0.13333 km/h
2196 16-10-2020 11:00:00 9.24167 C 8.41 g/m*3 9.24 C 0 km/h
2197 16-10-2020 12:00:00 9.725 C 8.49 g/m*3 9.73 C 0.4 km/h
2198 16-10-2020 13:00:00 10.24167 C 8.68 g/m*3 10.24 C 0.66667 km/h
2199 16-10-2020 14:00:00 10.60833 C 8.69 g/m*3 10.61 C 3.75833 km/h
2200 16-10-2020 15:00:00 11.04167 C 8.79 g/m*3 11.04 C 2.53333 km/h
Sensor: Nr:Datum:Temp:Abs-Feuchte:Windchill:Wind:
Aussen-T/F 2201 16-10-2020 16:00:00 11 C 8.63 g/m*3 11 C 4.68333 km/h
2202 16-10-2020 17:00:00 10.69167 C 8.7 g/m*3 10.69 C 3.86667 km/h
2203 16-10-2020 18:00:00 10.06667 C 8.59 g/m*3 10.07 C 4.95 km/h
2204 16-10-2020 19:00:00 9.275 C 8.37 g/m*3 9.28 C 1.73333 km/h
2205 16-10-2020 20:00:00 8.81667 C 8.21 g/m*3 8.82 C 0.66667 km/h
2206 16-10-2020 21:00:00 8.29167 C 8 g/m*3 8.29 C 4.8 km/h
2207 16-10-2020 22:00:00 7.93333 C 7.84 g/m*3 7.93 C 3.06667 km/h
2208 16-10-2020 23:00:00 7.05 C 7.39 g/m*3 7.05 C 3.6 km/h
2209 17-10-2020 00:00:00 6.06667 C 6.93 g/m*3 6.07 C 2.53333 km/h
2210 17-10-2020 01:00:00 5.34167 C 6.61 g/m*3 5.34 C 0.4 km/h
2211 17-10-2020 02:00:00 4.51667 C 6.28 g/m*3 4.52 C 0 km/h
2212 17-10-2020 03:00:00 4.18333 C 6.18 g/m*3 4.18 C 0 km/h
2213 17-10-2020 04:00:00 3.575 C 5.93 g/m*3 3.58 C 0 km/h
2214 17-10-2020 05:00:00 3.125 C 5.76 g/m*3 3.13 C 0 km/h
2215 17-10-2020 06:00:00 3.23333 C 5.8 g/m*3 3.23 C 0 km/h
2216 17-10-2020 07:00:00 3.34167 C 5.86 g/m*3 3.34 C 0 km/h
2217 17-10-2020 08:00:00 3.80833 C 6.09 g/m*3 3.81 C 0.13333 km/h
2218 17-10-2020 09:00:00 4.825 C 6.52 g/m*3 4.83 C 2.4 km/h
2219 17-10-2020 10:00:00 5.68333 C 6.9 g/m*3 5.68 C 0.93333 km/h
2220 17-10-2020 11:00:00 6.275 C 7.17 g/m*3 6.28 C 0 km/h
2221 17-10-2020 12:00:00 7.025 C 7.53 g/m*3 7.03 C 0 km/h
2222 17-10-2020 13:00:00 7.54167 C 7.74 g/m*3 7.54 C 0.4 km/h
2223 17-10-2020 14:00:00 8.65833 C 7.99 g/m*3 8.66 C 0.13333 km/h
2224 17-10-2020 15:00:00 9.66667 C 7.91 g/m*3 9.67 C 1.33333 km/h
2225 17-10-2020 16:00:00 9.725 C 7.46 g/m*3 9.73 C 3.48333 km/h
Sensor: Nr:Datum:Temp:Abs-Feuchte:Windchill:Wind:
Aussen-T/F 2226 17-10-2020 17:00:00 9.36667 C 7.57 g/m*3 9.37 C 0.53333 km/h
2227 17-10-2020 18:00:00 8.68333 C 7.62 g/m*3 8.68 C 1.46667 km/h
2228 17-10-2020 19:00:00 7.84167 C 7.41 g/m*3 7.84 C 1.86667 km/h
2229 17-10-2020 20:00:00 7.39167 C 7.29 g/m*3 7.39 C 2.4 km/h
2230 17-10-2020 21:00:00 6.61667 C 6.98 g/m*3 6.62 C 2 km/h
2231 17-10-2020 22:00:00 6.30833 C 6.96 g/m*3 6.31 C 0 km/h
2232 17-10-2020 23:00:00 5.90833 C 6.82 g/m*3 5.91 C 0 km/h
2233 18-10-2020 00:00:00 5.975 C 6.88 g/m*3 5.98 C 0 km/h
2234 18-10-2020 01:00:00 6.15 C 7.01 g/m*3 6.15 C 0.26667 km/h
2235 18-10-2020 02:00:00 6.24167 C 7.08 g/m*3 6.24 C 1.86667 km/h
2236 18-10-2020 03:00:00 6.31667 C 7.11 g/m*3 6.32 C 2.13333 km/h
2237 18-10-2020 04:00:00 6.4 C 7.12 g/m*3 6.4 C 2 km/h
2238 18-10-2020 05:00:00 6.29167 C 7.07 g/m*3 6.29 C 1.06667 km/h
2239 18-10-2020 06:00:00 6.375 C 7.14 g/m*3 6.38 C 0.8 km/h
2240 18-10-2020 07:00:00 6.43333 C 7.17 g/m*3 6.43 C 0.8 km/h
2241 18-10-2020 08:00:00 6.48333 C 7.19 g/m*3 6.48 C 1.2 km/h
2242 18-10-2020 09:00:00 6.93333 C 7.31 g/m*3 6.93 C 4.93333 km/h
2243 18-10-2020 10:00:00 7.49167 C 7.43 g/m*3 6.62 C 5.88333 km/h
2244 18-10-2020 11:00:00 7.95833 C 7.44 g/m*3 6.89 C 6.84167 km/h
2245 18-10-2020 12:00:00 8.89167 C 7.73 g/m*3 8.01 C 6.71667 km/h
2246 18-10-2020 13:00:00 10.125 C 8 g/m*3 9.28 C 7.39167 km/h
2247 18-10-2020 14:00:00 10.475 C 7.94 g/m*3 9.58 C 7.925 km/h
2248 18-10-2020 15:00:00 10.79167 C 8.01 g/m*3 10.31 C 6.29167 km/h
2249 18-10-2020 16:00:00 10.79167 C 8.08 g/m*3 10.79 C 4.01667 km/h
2250 18-10-2020 17:00:00 10.68333 C 8.15 g/m*3 10.68 C 2.55 km/h
Sensor: Nr:Datum:Temp:Abs-Feuchte:Windchill:Wind:
Aussen-T/F 2251 18-10-2020 18:00:00 9.91667 C 8.04 g/m*3 9.92 C 2.93333 km/h
2252 18-10-2020 19:00:00 9.28333 C 7.91 g/m*3 9.28 C 2 km/h
2253 18-10-2020 20:00:00 9.20833 C 7.95 g/m*3 9.21 C 2.26667 km/h
2254 18-10-2020 21:00:00 9.225 C 7.97 g/m*3 9.23 C 1.2 km/h
2255 18-10-2020 22:00:00 9.05 C 8.01 g/m*3 9.05 C 1.06667 km/h
2256 18-10-2020 23:00:00 9.05833 C 8 g/m*3 9.06 C 1.73333 km/h
2257 19-10-2020 00:00:00 8.875 C 7.99 g/m*3 8.88 C 0.13333 km/h
2258 19-10-2020 01:00:00 8.66667 C 7.96 g/m*3 8.67 C 0.93333 km/h
2259 19-10-2020 02:00:00 8.65833 C 7.96 g/m*3 8.66 C 0.4 km/h
2260 19-10-2020 03:00:00 8.34167 C 7.86 g/m*3 8.34 C 0.26667 km/h
2261 19-10-2020 04:00:00 8.23333 C 7.89 g/m*3 8.23 C 0.93333 km/h
2262 19-10-2020 05:00:00 8.18333 C 7.86 g/m*3 8.18 C 0.8 km/h
2263 19-10-2020 06:00:00 7.70833 C 7.63 g/m*3 7.71 C 1.2 km/h
2264 19-10-2020 07:00:00 7.40833 C 7.54 g/m*3 7.41 C 0 km/h
2265 19-10-2020 08:00:00 7.45833 C 7.6 g/m*3 7.46 C 0 km/h
2266 19-10-2020 09:00:00 8.09167 C 7.96 g/m*3 8.09 C 0 km/h
2267 19-10-2020 10:00:00 7.83333 C 7.77 g/m*3 7.83 C 1.33333 km/h
2268 19-10-2020 11:00:00 8.6 C 8.23 g/m*3 8.6 C 2.26667 km/h
2269 19-10-2020 12:00:00 9.83333 C 8.86 g/m*3 9.83 C 0 km/h
2270 19-10-2020 13:00:00 10.53333 C 9.14 g/m*3 10.53 C 1.33333 km/h
2271 19-10-2020 14:00:00 11.93333 C 9.61 g/m*3 11.93 C 0 km/h
2272 19-10-2020 15:00:00 12.95833 C 9.05 g/m*3 12.96 C 0.53333 km/h
2273 19-10-2020 16:00:00 12.53333 C 9.06 g/m*3 12.53 C 3.6 km/h
2274 19-10-2020 17:00:00 10.94167 C 8.24 g/m*3 10.55 C 6.00833 km/h
2275 19-10-2020 18:00:00 8.60833 C 7.52 g/m*3 8.61 C 4.93333 km/h
Sensor: Nr:Datum:Temp:Abs-Feuchte:Windchill:Wind:
Aussen-T/F 2276 19-10-2020 19:00:00 7.38333 C 7.2 g/m*3 6.72 C 5.2 km/h
2277 19-10-2020 20:00:00 6.75 C 6.96 g/m*3 5.73 C 6.00833 km/h
2278 19-10-2020 21:00:00 6.44167 C 6.87 g/m*3 5.69 C 5.06667 km/h
2279 19-10-2020 22:00:00 5.76667 C 6.62 g/m*3 5.77 C 0.26667 km/h
2280 19-10-2020 23:00:00 5.28333 C 6.49 g/m*3 5.28 C 1.46667 km/h
2281 20-10-2020 00:00:00 5.20833 C 6.52 g/m*3 5.21 C 2.93333 km/h
2282 20-10-2020 01:00:00 5.15833 C 6.48 g/m*3 5.16 C 3.06667 km/h
2283 20-10-2020 02:00:00 5.14167 C 6.41 g/m*3 5.14 C 2.26667 km/h
2284 20-10-2020 03:00:00 4.9 C 6.37 g/m*3 4.9 C 2.66667 km/h
2285 20-10-2020 04:00:00 4.63333 C 6.29 g/m*3 4.63 C 2.93333 km/h
2286 20-10-2020 05:00:00 4.98333 C 6.49 g/m*3 4.98 C 1.2 km/h
2287 20-10-2020 06:00:00 5.6 C 6.78 g/m*3 5.6 C 0.87273 km/h
2288 20-10-2020 07:00:00 5.825 C 6.87 g/m*3 5.83 C 0.4 km/h
2289 20-10-2020 08:00:00 5.93333 C 6.89 g/m*3 5.93 C 0.53333 km/h
2290 20-10-2020 09:00:00 6.66667 C 7.28 g/m*3 6.67 C 0.8 km/h
2291 20-10-2020 10:00:00 8.1 C 7.93 g/m*3 8.1 C 0.93333 km/h
2292 20-10-2020 11:00:00 9.83333 C 8.72 g/m*3 9.83 C 0.13333 km/h
2293 20-10-2020 12:00:00 11.45 C 9.45 g/m*3 11.45 C 0 km/h
2294 20-10-2020 13:00:00 11.775 C 9.65 g/m*3 11.78 C 0.4 km/h
2295 20-10-2020 14:00:00 11.89167 C 9.74 g/m*3 11.89 C 0.4 km/h
2296 20-10-2020 15:00:00 12.55833 C 10.03 g/m*3 12.56 C 0.13333 km/h
2297 20-10-2020 16:00:00 12.44167 C 9.98 g/m*3 12.44 C 0.4 km/h
2298 20-10-2020 17:00:00 12.075 C 9.84 g/m*3 12.08 C 0.8 km/h
2299 20-10-2020 18:00:00 11.76667 C 9.74 g/m*3 11.77 C 0.93333 km/h
2300 20-10-2020 19:00:00 11.7 C 9.81 g/m*3 11.7 C 2.66667 km/h
Sensor: Nr:Datum:Temp:Abs-Feuchte:Windchill:Wind:
Aussen-T/F 2301 20-10-2020 20:00:00 11.9 C 9.92 g/m*3 11.9 C 2 km/h
2302 20-10-2020 21:00:00 11.76667 C 9.74 g/m*3 11.77 C 1.33333 km/h
2303 20-10-2020 22:00:00 11.6 C 9.67 g/m*3 11.6 C 1.86667 km/h
2304 20-10-2020 23:00:00 11.78333 C 9.78 g/m*3 11.78 C 0.8 km/h
2305 21-10-2020 00:00:00 11.84167 C 9.84 g/m*3 11.84 C 0 km/h
2306 21-10-2020 01:00:00 11.69167 C 9.87 g/m*3 11.69 C 0 km/h
2307 21-10-2020 02:00:00 11.40833 C 9.76 g/m*3 11.41 C 1.73333 km/h
2308 21-10-2020 03:00:00 11.3 C 9.69 g/m*3 11.3 C 2.53333 km/h
2309 21-10-2020 04:00:00 11.36667 C 9.72 g/m*3 11.37 C 2.66667 km/h
2310 21-10-2020 05:00:00 11.79167 C 9.79 g/m*3 11.79 C 2.93333 km/h
2311 21-10-2020 06:00:00 11.95833 C 9.85 g/m*3 11.96 C 3.6 km/h
2312 21-10-2020 07:00:00 12.10833 C 9.88 g/m*3 12.11 C 2 km/h
2313 21-10-2020 08:00:00 12.11667 C 10.06 g/m*3 12.12 C 1.86667 km/h
2314 21-10-2020 09:00:00 12.125 C 10.15 g/m*3 12.13 C 0 km/h
2315 21-10-2020 10:00:00 12.59167 C 10.45 g/m*3 12.59 C 0 km/h
2316 21-10-2020 11:00:00 14.15833 C 10.68 g/m*3 14.16 C 0.93333 km/h
2317 21-10-2020 12:00:00 16.85833 C 10.63 g/m*3 16.86 C 2.81667 km/h
2318 21-10-2020 13:00:00 18.94167 C 9.78 g/m*3 18.94 C 5.08333 km/h
2319 21-10-2020 14:00:00 19.85833 C 10.7 g/m*3 19.86 C 5.35833 km/h
2320 21-10-2020 15:00:00 21.1 C 10.32 g/m*3 21.1 C 11.13333 km/h
2321 21-10-2020 16:00:00 20.99167 C 10.41 g/m*3 20.99 C 9.54167 km/h
2322 21-10-2020 17:00:00 20.175 C 10.97 g/m*3 20.18 C 5.21667 km/h
2323 21-10-2020 18:00:00 18.21667 C 11.1 g/m*3 18.22 C 4.15 km/h
2324 21-10-2020 19:00:00 16.75 C 10.88 g/m*3 16.75 C 4.95 km/h
2325 21-10-2020 20:00:00 17.23333 C 11.31 g/m*3 17.23 C 5.89167 km/h
Sensor: Nr:Datum:Temp:Abs-Feuchte:Windchill:Wind:
Aussen-T/F 2326 21-10-2020 21:00:00 16.08333 C 11.33 g/m*3 16.08 C 3.6 km/h
2327 21-10-2020 22:00:00 15.63333 C 11.58 g/m*3 15.63 C 3.73333 km/h
2328 21-10-2020 23:00:00 15.76667 C 11.55 g/m*3 15.77 C 2.8 km/h
2329 22-10-2020 00:00:00 15.55 C 11.52 g/m*3 15.55 C 0.4 km/h
2330 22-10-2020 01:00:00 14.975 C 11.41 g/m*3 14.98 C 0.4 km/h
2331 22-10-2020 02:00:00 14.6 C 11.32 g/m*3 14.6 C 0 km/h
2332 22-10-2020 03:00:00 14.275 C 11.3 g/m*3 14.28 C 0.13333 km/h
2333 22-10-2020 04:00:00 14.3 C 11.43 g/m*3 14.3 C 1.73333 km/h
2334 22-10-2020 05:00:00 14.33333 C 11.44 g/m*3 14.33 C 0.93333 km/h
2335 22-10-2020 06:00:00 14.30833 C 11.35 g/m*3 14.31 C 1.46667 km/h
2336 22-10-2020 07:00:00 14.14167 C 11.32 g/m*3 14.14 C 0.4 km/h
2337 22-10-2020 08:00:00 13.95833 C 11.17 g/m*3 13.96 C 0.66667 km/h
2338 22-10-2020 09:00:00 14.85833 C 11.71 g/m*3 14.86 C 0.66667 km/h
2339 22-10-2020 10:00:00 15.275 C 11.84 g/m*3 15.28 C 0.93333 km/h
2340 22-10-2020 11:00:00 16.60833 C 11.93 g/m*3 16.61 C 7.24167 km/h
2341 22-10-2020 12:00:00 17.36667 C 11.93 g/m*3 17.37 C 6.31667 km/h
2342 22-10-2020 13:00:00 18.7 C 11.94 g/m*3 18.7 C 9.25833 km/h
2343 22-10-2020 14:00:00 19.69167 C 12.01 g/m*3 19.69 C 10.74167 km/h
2344 22-10-2020 15:00:00 20.15 C 12.22 g/m*3 20.15 C 10.225 km/h
2345 22-10-2020 16:00:00 20.34167 C 12.64 g/m*3 20.34 C 6.3 km/h
2346 22-10-2020 17:00:00 19.05833 C 12.85 g/m*3 19.06 C 4.13333 km/h
2347 22-10-2020 18:00:00 17.45833 C 12.42 g/m*3 17.46 C 4.53333 km/h
2348 22-10-2020 19:00:00 16.05833 C 11.96 g/m*3 16.06 C 4.26667 km/h
2349 22-10-2020 20:00:00 15.66667 C 11.84 g/m*3 15.67 C 4.26667 km/h
2350 22-10-2020 21:00:00 15.60833 C 11.85 g/m*3 15.61 C 1.33333 km/h
Sensor: Nr:Datum:Temp:Abs-Feuchte:Windchill:Wind:
Aussen-T/F 2351 22-10-2020 22:00:00 15.6 C 11.97 g/m*3 15.6 C 1.2 km/h
2352 22-10-2020 23:00:00 15.6 C 12.04 g/m*3 15.6 C 0 km/h
2353 23-10-2020 00:00:00 15.38333 C 11.95 g/m*3 15.38 C 0 km/h
2354 23-10-2020 01:00:00 15.35833 C 11.98 g/m*3 15.36 C 0.13333 km/h
2355 23-10-2020 02:00:00 15.525 C 12.03 g/m*3 15.53 C 0.26667 km/h
2356 23-10-2020 03:00:00 15.6 C 12.1 g/m*3 15.6 C 0.53333 km/h
2357 23-10-2020 04:00:00 15.80833 C 12.03 g/m*3 15.81 C 2.26667 km/h
2358 23-10-2020 05:00:00 16.05833 C 12.03 g/m*3 16.06 C 2.00833 km/h
2359 23-10-2020 06:00:00 15.78333 C 11.89 g/m*3 15.78 C 0.66667 km/h
2360 23-10-2020 07:00:00 15.11667 C 11.84 g/m*3 15.12 C 0.8 km/h
2361 23-10-2020 08:00:00 14.76667 C 11.84 g/m*3 14.77 C 0 km/h
2362 23-10-2020 09:00:00 14.65 C 11.89 g/m*3 14.65 C 0 km/h
2363 23-10-2020 10:00:00 14.75833 C 12.02 g/m*3 14.76 C 0 km/h
2364 23-10-2020 11:00:00 15.25833 C 12.5 g/m*3 15.26 C 0 km/h
2365 23-10-2020 12:00:00 15.49167 C 12.67 g/m*3 15.49 C 0.66667 km/h
2366 23-10-2020 13:00:00 15.85 C 12.85 g/m*3 15.85 C 1.06667 km/h
2367 23-10-2020 14:00:00 16.23333 C 12.99 g/m*3 16.23 C 1.46667 km/h
2368 23-10-2020 15:00:00 16.58333 C 12.81 g/m*3 16.58 C 3.06667 km/h
2369 23-10-2020 16:00:00 16.55833 C 12.67 g/m*3 16.56 C 2.14167 km/h
2370 23-10-2020 17:00:00 15.79167 C 12.36 g/m*3 15.79 C 2.80833 km/h
2371 23-10-2020 18:00:00 15.09167 C 11.96 g/m*3 15.09 C 3.06667 km/h
2372 23-10-2020 19:00:00 14.19167 C 11.35 g/m*3 14.19 C 4.40833 km/h
2373 23-10-2020 20:00:00 13.38333 C 10.92 g/m*3 13.38 C 2.13333 km/h
2374 23-10-2020 21:00:00 12.83333 C 10.66 g/m*3 12.83 C 3.08333 km/h
2375 23-10-2020 22:00:00 13.175 C 10.96 g/m*3 13.18 C 3.21667 km/h
Sensor: Nr:Datum:Temp:Abs-Feuchte:Windchill:Wind:
Aussen-T/F 2376 23-10-2020 23:00:00 12.40833 C 10.44 g/m*3 12.41 C 3.89167 km/h
2377 24-10-2020 00:00:00 12.76667 C 10.7 g/m*3 12.77 C 8.06667 km/h
2378 24-10-2020 01:00:00 12.65833 C 10.52 g/m*3 12.66 C 6.96667 km/h
2379 24-10-2020 02:00:00 12.375 C 10.25 g/m*3 12.38 C 1.6 km/h
2380 24-10-2020 03:00:00 11.5 C 9.78 g/m*3 11.5 C 0.53333 km/h
2381 24-10-2020 04:00:00 11.04167 C 9.59 g/m*3 11.04 C 0 km/h
2382 24-10-2020 05:00:00 11.03333 C 9.63 g/m*3 11.03 C 1.06667 km/h
2383 24-10-2020 06:00:00 11.14167 C 9.7 g/m*3 11.14 C 1.33333 km/h
2384 24-10-2020 07:00:00 11.65833 C 10.12 g/m*3 11.66 C 2.28333 km/h
2385 24-10-2020 08:00:00 11.96667 C 10.2 g/m*3 11.97 C 9 km/h
2386 24-10-2020 09:00:00 13 C 10.14 g/m*3 13 C 18.64167 km/h
2387 24-10-2020 10:00:00 13.44167 C 9.98 g/m*3 13.44 C 14.9 km/h
2388 24-10-2020 11:00:00 13.36667 C 9.08 g/m*3 13.37 C 18.23333 km/h
2389 24-10-2020 12:00:00 14.45 C 9.54 g/m*3 14.45 C 10.075 km/h
2390 24-10-2020 13:00:00 15.28333 C 9.87 g/m*3 15.28 C 7.925 km/h
2391 24-10-2020 14:00:00 15.28333 C 10.03 g/m*3 15.28 C 7.23333 km/h
2392 24-10-2020 15:00:00 15.45833 C 10.15 g/m*3 15.46 C 6.56667 km/h
2393 24-10-2020 16:00:00 15.275 C 10.26 g/m*3 15.28 C 4.14167 km/h
2394 24-10-2020 17:00:00 15.025 C 10.32 g/m*3 15.03 C 2.94167 km/h
2395 24-10-2020 18:00:00 14.575 C 10.27 g/m*3 14.58 C 3.06667 km/h
2396 24-10-2020 19:00:00 14.26667 C 10.31 g/m*3 14.27 C 3.20833 km/h
2397 24-10-2020 20:00:00 14.26667 C 10.36 g/m*3 14.27 C 5.08333 km/h
2398 24-10-2020 21:00:00 14.10833 C 10.43 g/m*3 14.11 C 3.06667 km/h
2399 24-10-2020 22:00:00 13.94167 C 10.43 g/m*3 13.94 C 3.75 km/h
2400 24-10-2020 23:00:00 13.90833 C 10.4 g/m*3 13.91 C 3.88333 km/h
Sensor: Nr:Datum:Temp:Abs-Feuchte:Windchill:Wind:
Aussen-T/F 2401 25-10-2020 00:00:00 14.18333 C 10.4 g/m*3 14.18 C 4.54167 km/h
2402 25-10-2020 01:00:00 14.3 C 10.34 g/m*3 14.3 C 2.53333 km/h
2403 25-10-2020 02:00:00 14.43333 C 10.17 g/m*3 14.43 C 4.15 km/h
2404 25-10-2020 04:00:00 13.42174 C 9.68 g/m*3 13.42 C 4.19565 km/h
2405 25-10-2020 05:00:00 12.83077 C 9.47 g/m*3 12.83 C 2.09231 km/h
2406 25-10-2020 06:00:00 11.9 C 9.24 g/m*3 11.9 C 0.66667 km/h
2407 25-10-2020 07:00:00 11.76667 C 9.29 g/m*3 11.77 C 2.80833 km/h
2408 25-10-2020 08:00:00 13.05 C 9.43 g/m*3 13.05 C 2.66667 km/h
2409 25-10-2020 09:00:00 13.775 C 9.61 g/m*3 13.78 C 2.66667 km/h
2410 25-10-2020 10:00:00 14.6 C 9.69 g/m*3 14.6 C 4.13333 km/h
2411 25-10-2020 11:00:00 15.275 C 9.84 g/m*3 15.28 C 4.14167 km/h
2412 25-10-2020 12:00:00 15.55833 C 10.1 g/m*3 15.56 C 3.06667 km/h
2413 25-10-2020 13:00:00 15.95 C 10.32 g/m*3 15.95 C 5.49167 km/h
2414 25-10-2020 14:00:00 15.7 C 10.63 g/m*3 15.7 C 3.48333 km/h
2415 25-10-2020 15:00:00 14.025 C 10.84 g/m*3 14.03 C 0.4 km/h
2416 25-10-2020 16:00:00 13.275 C 10.67 g/m*3 13.28 C 1.2 km/h
2417 25-10-2020 17:00:00 12.40833 C 10.21 g/m*3 12.41 C 2.8 km/h
2418 25-10-2020 18:00:00 11.725 C 9.85 g/m*3 11.73 C 3.075 km/h
2419 25-10-2020 19:00:00 11.30833 C 9.59 g/m*3 11.31 C 3.35833 km/h
2420 25-10-2020 20:00:00 11.03333 C 9.5 g/m*3 11.03 C 2.66667 km/h
2421 25-10-2020 21:00:00 10.76667 C 9.37 g/m*3 10.77 C 0.93333 km/h
2422 25-10-2020 22:00:00 10.61667 C 9.32 g/m*3 10.62 C 0.53333 km/h
2423 25-10-2020 23:00:00 10.675 C 9.41 g/m*3 10.68 C 0.4 km/h
2424 26-10-2020 00:00:00 10.7 C 9.43 g/m*3 10.7 C 1.2 km/h
2425 26-10-2020 01:00:00 10.66667 C 9.41 g/m*3 10.67 C 0.26667 km/h
Sensor: Nr:Datum:Temp:Abs-Feuchte:Windchill:Wind:
Aussen-T/F 2426 26-10-2020 02:00:00 10.65833 C 9.34 g/m*3 10.66 C 1.33333 km/h
2427 26-10-2020 03:00:00 10.65833 C 9.31 g/m*3 10.66 C 0.8 km/h
2428 26-10-2020 04:00:00 10.63333 C 9.35 g/m*3 10.63 C 0.26667 km/h
2429 26-10-2020 05:00:00 10.675 C 9.41 g/m*3 10.68 C 0.53333 km/h
2430 26-10-2020 06:00:00 10.41667 C 9.26 g/m*3 10.42 C 0.93333 km/h
2431 26-10-2020 07:00:00 9.99167 C 9.02 g/m*3 9.99 C 4.55 km/h
2432 26-10-2020 08:00:00 9.8 C 8.89 g/m*3 9.8 C 4.40833 km/h
2433 26-10-2020 09:00:00 10.01667 C 8.82 g/m*3 10.02 C 4.29167 km/h
2434 26-10-2020 10:00:00 10.86667 C 8.76 g/m*3 10.15 C 7.39167 km/h
2435 26-10-2020 11:00:00 11.60833 C 8.7 g/m*3 11.61 C 6.98333 km/h
2436 26-10-2020 12:00:00 11.76667 C 8.42 g/m*3 11.77 C 9.94167 km/h
2437 26-10-2020 13:00:00 12.00833 C 8.16 g/m*3 12.01 C 9.28333 km/h
2438 26-10-2020 14:00:00 12.18333 C 7.96 g/m*3 12.18 C 7.4 km/h
2439 26-10-2020 15:00:00 12.23333 C 7.89 g/m*3 12.23 C 5.625 km/h
2440 26-10-2020 16:00:00 12.05 C 8.09 g/m*3 12.05 C 3.875 km/h
2441 26-10-2020 17:00:00 10.44167 C 7.9 g/m*3 10.44 C 2.4 km/h
2442 26-10-2020 18:00:00 8.625 C 7.45 g/m*3 8.63 C 4.13333 km/h
2443 26-10-2020 19:00:00 7.68333 C 7.29 g/m*3 7.68 C 2.26667 km/h
2444 26-10-2020 20:00:00 7.625 C 7.33 g/m*3 7.63 C 2 km/h
2445 26-10-2020 21:00:00 8.125 C 7.4 g/m*3 8.13 C 3.075 km/h
2446 26-10-2020 22:00:00 7.775 C 7.35 g/m*3 7.78 C 2 km/h
2447 26-10-2020 23:00:00 7.66667 C 7.38 g/m*3 7.67 C 2.54167 km/h
2448 27-10-2020 00:00:00 7.83333 C 7.48 g/m*3 7.83 C 4.01667 km/h
2449 27-10-2020 01:00:00 8.39167 C 7.73 g/m*3 8.39 C 2.40833 km/h
2450 27-10-2020 02:00:00 9.33333 C 7.87 g/m*3 9.33 C 3.46667 km/h
Sensor: Nr:Datum:Temp:Abs-Feuchte:Windchill:Wind:
Aussen-T/F 2451 27-10-2020 03:00:00 8.90833 C 7.8 g/m*3 8.91 C 3.475 km/h
2452 27-10-2020 04:00:00 8.84167 C 7.85 g/m*3 8.84 C 2.4 km/h
2453 27-10-2020 05:00:00 8.64167 C 7.83 g/m*3 8.64 C 2.4 km/h
2454 27-10-2020 06:00:00 7.81667 C 7.51 g/m*3 7.82 C 2.13333 km/h
2455 27-10-2020 07:00:00 7.75 C 7.61 g/m*3 7.75 C 1.06667 km/h
2456 27-10-2020 08:00:00 9.04167 C 8.2 g/m*3 9.04 C 1.6 km/h
2457 27-10-2020 09:00:00 10.38333 C 8.42 g/m*3 10.38 C 2.26667 km/h
2458 27-10-2020 10:00:00 11.39167 C 8.56 g/m*3 11.39 C 9.00833 km/h
2459 27-10-2020 11:00:00 11.89167 C 8.49 g/m*3 11.89 C 11.675 km/h
2460 27-10-2020 12:00:00 12.25 C 8.36 g/m*3 12.25 C 13.15833 km/h
2461 27-10-2020 13:00:00 12.625 C 8.29 g/m*3 12.63 C 11.7 km/h
2462 27-10-2020 14:00:00 12.85833 C 8.16 g/m*3 12.86 C 9.675 km/h
2463 27-10-2020 15:00:00 12.675 C 7.85 g/m*3 12.68 C 9.15 km/h
2464 27-10-2020 16:00:00 12.21667 C 7.85 g/m*3 12.22 C 5.49167 km/h
2465 27-10-2020 17:00:00 11.21667 C 7.86 g/m*3 11.22 C 1.6 km/h
2466 27-10-2020 18:00:00 10.66667 C 7.78 g/m*3 10.67 C 2.675 km/h
2467 27-10-2020 19:00:00 11.25833 C 7.78 g/m*3 11.26 C 5.625 km/h
2468 27-10-2020 20:00:00 11.3 C 7.91 g/m*3 11.3 C 5.36667 km/h
2469 27-10-2020 21:00:00 11.05 C 8.07 g/m*3 11.05 C 2.4 km/h
2470 27-10-2020 22:00:00 11.05833 C 8.23 g/m*3 11.06 C 1.46667 km/h
2471 27-10-2020 23:00:00 11.28333 C 8.48 g/m*3 11.28 C 1.6 km/h
2472 28-10-2020 00:00:00 11.61667 C 8.74 g/m*3 11.62 C 3.06667 km/h
2473 28-10-2020 01:00:00 11.7 C 8.91 g/m*3 11.7 C 2.66667 km/h
2474 28-10-2020 02:00:00 11.81667 C 9.11 g/m*3 11.82 C 2.4 km/h
2475 28-10-2020 03:00:00 11.84167 C 9.34 g/m*3 11.84 C 0.53333 km/h
Sensor: Nr:Datum:Temp:Abs-Feuchte:Windchill:Wind:
Aussen-T/F 2476 28-10-2020 04:00:00 11.75833 C 9.5 g/m*3 11.76 C 0.53333 km/h
2477 28-10-2020 05:00:00 11.7 C 9.71 g/m*3 11.7 C 0 km/h
2478 28-10-2020 06:00:00 11.51667 C 9.72 g/m*3 11.52 C 0.8 km/h
2479 28-10-2020 07:00:00 11.26667 C 9.63 g/m*3 11.27 C 1.33333 km/h
2480 28-10-2020 08:00:00 11.51667 C 9.87 g/m*3 11.52 C 0.26667 km/h
2481 28-10-2020 09:00:00 12.30833 C 10.39 g/m*3 12.31 C 0.26667 km/h
2482 28-10-2020 10:00:00 12.64167 C 10.47 g/m*3 12.64 C 2.8 km/h
2483 28-10-2020 11:00:00 13.325 C 10.63 g/m*3 13.33 C 8.18333 km/h
2484 28-10-2020 12:00:00 14.25833 C 10.08 g/m*3 14.26 C 12.76667 km/h
2485 28-10-2020 13:00:00 14.11667 C 8.96 g/m*3 14.12 C 17.03333 km/h
2486 28-10-2020 14:00:00 13.99167 C 8.57 g/m*3 13.99 C 16.76667 km/h
2487 28-10-2020 15:00:00 13.50833 C 8.34 g/m*3 13.51 C 11.41667 km/h
2488 28-10-2020 16:00:00 13.43333 C 8.48 g/m*3 13.43 C 11.55 km/h
2489 28-10-2020 17:00:00 12.94167 C 8.48 g/m*3 12.94 C 6.56667 km/h
2490 28-10-2020 18:00:00 12.61667 C 8.44 g/m*3 12.62 C 5.61667 km/h
2491 28-10-2020 19:00:00 12.65 C 8.42 g/m*3 12.65 C 7.10833 km/h
2492 28-10-2020 20:00:00 13.08333 C 8.54 g/m*3 13.08 C 10.60833 km/h
2493 28-10-2020 21:00:00 12.94167 C 8.7 g/m*3 12.94 C 8.05833 km/h
2494 28-10-2020 22:00:00 12.825 C 8.91 g/m*3 12.83 C 8.70833 km/h
2495 28-10-2020 23:00:00 12.99167 C 9.11 g/m*3 12.99 C 17.44167 km/h
2496 29-10-2020 00:00:00 12.46667 C 9.24 g/m*3 12.47 C 15.03333 km/h
2497 29-10-2020 01:00:00 10.63333 C 8.8 g/m*3 8.92 C 13.15 km/h
2498 29-10-2020 02:00:00 9.80833 C 8.58 g/m*3 9.07 C 6.71667 km/h
2499 29-10-2020 03:00:00 10.175 C 8.84 g/m*3 8.97 C 9.275 km/h
2500 29-10-2020 04:00:00 10.05833 C 8.72 g/m*3 8.9 C 8.86667 km/h
Sensor: Nr:Datum:Temp:Abs-Feuchte:Windchill:Wind:
Aussen-T/F 2501 29-10-2020 05:00:00 9.88333 C 8.57 g/m*3 8.5 C 9.94167 km/h
2502 29-10-2020 06:00:00 9.95833 C 8.4 g/m*3 8.61 C 9.80833 km/h
2503 29-10-2020 07:00:00 9.24167 C 7.92 g/m*3 8.48 C 6.43333 km/h
2504 29-10-2020 08:00:00 9.05833 C 7.89 g/m*3 8.04 C 7.375 km/h
2505 29-10-2020 09:00:00 9.75833 C 8.11 g/m*3 9.15 C 6.16667 km/h
2506 29-10-2020 10:00:00 11.16667 C 8.62 g/m*3 11.17 C 6.175 km/h
2507 29-10-2020 11:00:00 11.58333 C 8.77 g/m*3 11.58 C 6.96667 km/h
2508 29-10-2020 12:00:00 10.7 C 8.87 g/m*3 10.27 C 6.01667 km/h
2509 29-10-2020 13:00:00 10.94167 C 9.31 g/m*3 10.94 C 3.475 km/h
2510 29-10-2020 14:00:00 11.61667 C 9.76 g/m*3 11.62 C 5.61667 km/h
2511 29-10-2020 15:00:00 11.33333 C 9.64 g/m*3 11.33 C 4.94167 km/h
2512 29-10-2020 16:00:00 11.15 C 9.57 g/m*3 11.15 C 6.575 km/h
2513 29-10-2020 17:00:00 10.76667 C 9.37 g/m*3 10.77 C 4.55 km/h
2514 29-10-2020 18:00:00 10.59167 C 9.27 g/m*3 10.59 C 0.66667 km/h
2515 29-10-2020 19:00:00 10.475 C 9.29 g/m*3 10.48 C 0.13333 km/h
2516 29-10-2020 20:00:00 10.64167 C 9.39 g/m*3 10.64 C 4.7 km/h
2517 29-10-2020 21:00:00 10.88333 C 9.54 g/m*3 10.32 C 6.70833 km/h
2518 29-10-2020 22:00:00 11.225 C 9.75 g/m*3 11.23 C 7.10833 km/h
2519 29-10-2020 23:00:00 11.56667 C 9.96 g/m*3 11.57 C 5.90833 km/h
2520 30-10-2020 00:00:00 11.89167 C 10.16 g/m*3 11.89 C 4.81667 km/h
2521 30-10-2020 01:00:00 12.16667 C 10.34 g/m*3 12.17 C 5.35 km/h
2522 30-10-2020 02:00:00 12.39167 C 10.5 g/m*3 12.39 C 5.63333 km/h
2523 30-10-2020 03:00:00 12.75 C 10.68 g/m*3 12.75 C 7.375 km/h
2524 30-10-2020 04:00:00 12.74167 C 10.63 g/m*3 12.74 C 3.48333 km/h
2525 30-10-2020 05:00:00 12.68333 C 10.65 g/m*3 12.68 C 4.14167 km/h
Sensor: Nr:Datum:Temp:Abs-Feuchte:Windchill:Wind:
Aussen-T/F 2526 30-10-2020 06:00:00 12.9 C 10.71 g/m*3 12.9 C 3.74167 km/h
2527 30-10-2020 07:00:00 13.10833 C 10.67 g/m*3 13.11 C 7.11667 km/h
2528 30-10-2020 08:00:00 13.3 C 10.71 g/m*3 13.3 C 4.83333 km/h
2529 30-10-2020 09:00:00 13.79167 C 10.86 g/m*3 13.79 C 9.01667 km/h
2530 30-10-2020 10:00:00 14.525 C 11.09 g/m*3 14.53 C 13.03333 km/h
2531 30-10-2020 11:00:00 15.03333 C 11.21 g/m*3 15.03 C 16.23333 km/h
2532 30-10-2020 12:00:00 15.14167 C 11.25 g/m*3 15.14 C 13.3 km/h
2533 30-10-2020 13:00:00 15.33333 C 11.34 g/m*3 15.33 C 13.03333 km/h
2534 30-10-2020 14:00:00 15.30833 C 11.28 g/m*3 15.31 C 6.43333 km/h
2535 30-10-2020 15:00:00 15.35833 C 11.15 g/m*3 15.36 C 9 km/h
2536 30-10-2020 16:00:00 14.94167 C 11.04 g/m*3 14.94 C 8.05833 km/h
2537 30-10-2020 17:00:00 14.29167 C 11.01 g/m*3 14.29 C 5.21667 km/h
2538 30-10-2020 18:00:00 13.98333 C 10.97 g/m*3 13.98 C 2 km/h
2539 30-10-2020 19:00:00 14.05833 C 10.83 g/m*3 14.06 C 5.76667 km/h
2540 30-10-2020 20:00:00 14.26667 C 10.72 g/m*3 14.27 C 10.625 km/h
2541 30-10-2020 21:00:00 14.175 C 10.65 g/m*3 14.18 C 9.95833 km/h
2542 30-10-2020 22:00:00 13.76667 C 10.42 g/m*3 13.77 C 9.68333 km/h
2543 30-10-2020 23:00:00 13.69167 C 10.34 g/m*3 13.69 C 10.21667 km/h
2544 31-10-2020 00:00:00 13.70833 C 10.2 g/m*3 13.71 C 9.69167 km/h
2545 31-10-2020 01:00:00 13.625 C 10.22 g/m*3 13.63 C 6.69167 km/h
2546 31-10-2020 02:00:00 13.58333 C 10.17 g/m*3 13.58 C 6.03333 km/h
2547 31-10-2020 03:00:00 13.43333 C 10.13 g/m*3 13.43 C 1.6 km/h
2548 31-10-2020 04:00:00 12.75833 C 10.03 g/m*3 12.76 C 0.13333 km/h
2549 31-10-2020 05:00:00 12.375 C 9.95 g/m*3 12.38 C 0 km/h
2550 31-10-2020 06:00:00 12.15833 C 9.9 g/m*3 12.16 C 0 km/h
Sensor: Nr:Datum:Temp:Abs-Feuchte:Windchill:Wind:
Aussen-T/F 2551 31-10-2020 07:00:00 12.04167 C 9.88 g/m*3 12.04 C 0 km/h
2552 31-10-2020 08:00:00 12.31667 C 10.08 g/m*3 12.32 C 0.4 km/h
2553 31-10-2020 09:00:00 13.25833 C 9.79 g/m*3 13.26 C 3.075 km/h
2554 31-10-2020 10:00:00 13.79167 C 9.48 g/m*3 13.79 C 4.69167 km/h
2555 31-10-2020 11:00:00 13.66667 C 9.66 g/m*3 13.67 C 3.60833 km/h
2556 31-10-2020 12:00:00 14.28333 C 9.8 g/m*3 14.28 C 5.61667 km/h
2557 31-10-2020 13:00:00 15.39167 C 10.01 g/m*3 15.39 C 4.68333 km/h
2558 31-10-2020 14:00:00 15.73333 C 10.32 g/m*3 15.73 C 4.54167 km/h
2559 31-10-2020 15:00:00 14.64167 C 10.29 g/m*3 14.64 C 4.675 km/h
2560 31-10-2020 16:00:00 13.46667 C 10.08 g/m*3 13.47 C 4.40833 km/h
2561 31-10-2020 17:00:00 12.26667 C 9.59 g/m*3 12.27 C 4.93333 km/h
2562 31-10-2020 18:00:00 11.28333 C 9.3 g/m*3 11.28 C 4.26667 km/h
2563 31-10-2020 19:00:00 11.4 C 9.44 g/m*3 11.4 C 3.2 km/h
2564 31-10-2020 20:00:00 11.98333 C 9.71 g/m*3 11.98 C 1.6 km/h
2565 31-10-2020 21:00:00 12.51667 C 9.96 g/m*3 12.52 C 1.2 km/h
2566 31-10-2020 22:00:00 12.7 C 10.34 g/m*3 12.7 C 1.73333 km/h
2567 31-10-2020 23:00:00 13.05833 C 10.72 g/m*3 13.06 C 6.025 km/h
2568 01-11-2020 00:00:00 13.1 C 10.84 g/m*3 13.1 C 2.26667 km/h
2569 01-11-2020 01:00:00 13.13333 C 10.91 g/m*3 13.13 C 0.93333 km/h
2570 01-11-2020 02:00:00 13.175 C 11.01 g/m*3 13.18 C 1.2 km/h
2571 01-11-2020 03:00:00 13.1 C 10.95 g/m*3 13.1 C 0 km/h
2572 01-11-2020 04:00:00 13.04167 C 10.92 g/m*3 13.04 C 0 km/h
2573 01-11-2020 05:00:00 12.76667 C 10.73 g/m*3 12.77 C 0 km/h
2574 01-11-2020 06:00:00 12.51667 C 10.61 g/m*3 12.52 C 0 km/h
2575 01-11-2020 07:00:00 12.55 C 10.69 g/m*3 12.55 C 0 km/h
Sensor: Nr:Datum:Temp:Abs-Feuchte:Windchill:Wind:
Aussen-T/F 2576 01-11-2020 08:00:00 13.10833 C 11.07 g/m*3 13.11 C 0 km/h
2577 01-11-2020 09:00:00 13.875 C 11.62 g/m*3 13.88 C 2.275 km/h
2578 01-11-2020 10:00:00 15.05 C 12.19 g/m*3 15.05 C 10.75833 km/h
2579 01-11-2020 11:00:00 16.35 C 12.38 g/m*3 16.35 C 4.55833 km/h
2580 01-11-2020 12:00:00 16.775 C 12.44 g/m*3 16.77 C 3.48333 km/h
2581 01-11-2020 13:00:00 16.94167 C 12.6 g/m*3 16.94 C 8.6 km/h
2582 01-11-2020 14:00:00 16.83333 C 12.68 g/m*3 16.83 C 12.23333 km/h
2583 01-11-2020 15:00:00 16.71667 C 12.48 g/m*3 16.72 C 16.76667 km/h
2584 01-11-2020 16:00:00 16.74167 C 12.48 g/m*3 16.74 C 14.36667 km/h
2585 01-11-2020 17:00:00 16.6 C 12.51 g/m*3 16.6 C 10.49167 km/h
2586 01-11-2020 18:00:00 16.71667 C 12.6 g/m*3 16.72 C 9.00833 km/h
2587 01-11-2020 19:00:00 16.86667 C 12.63 g/m*3 16.87 C 11.025 km/h
2588 01-11-2020 20:00:00 16.975 C 12.71 g/m*3 16.98 C 12.48333 km/h
2589 01-11-2020 21:00:00 17.125 C 12.77 g/m*3 17.13 C 12.89167 km/h
2590 01-11-2020 22:00:00 17.175 C 12.86 g/m*3 17.18 C 8.06667 km/h
2591 01-11-2020 23:00:00 17.25833 C 12.93 g/m*3 17.26 C 4.68333 km/h
2592 02-11-2020 00:00:00 17.56667 C 13.16 g/m*3 17.57 C 7.65833 km/h
2593 02-11-2020 01:00:00 17.90833 C 13.35 g/m*3 17.91 C 13.15833 km/h
2594 02-11-2020 02:00:00 18.19167 C 13.45 g/m*3 18.19 C 14.76667 km/h
2595 02-11-2020 03:00:00 18.575 C 13.36 g/m*3 18.58 C 13.16667 km/h
2596 02-11-2020 04:00:00 18.7 C 13.42 g/m*3 18.7 C 9.95 km/h
2597 02-11-2020 05:00:00 18.38333 C 13.6 g/m*3 18.38 C 10.89167 km/h
2598 02-11-2020 06:00:00 18.60833 C 13.46 g/m*3 18.61 C 14.23333 km/h
2599 02-11-2020 07:00:00 19.01667 C 13.25 g/m*3 19.02 C 18.90833 km/h
2600 02-11-2020 08:00:00 19.21667 C 13.14 g/m*3 19.22 C 20.24167 km/h
Sensor: Nr:Datum:Temp:Abs-Feuchte:Windchill:Wind:
Aussen-T/F 2601 02-11-2020 09:00:00 19.46667 C 13.05 g/m*3 19.47 C 21.04167 km/h
2602 02-11-2020 10:00:00 19.35 C 13.06 g/m*3 19.35 C 14.5 km/h
2603 02-11-2020 11:00:00 19.59167 C 13.02 g/m*3 19.59 C 11.83333 km/h
2604 02-11-2020 12:00:00 20.23333 C 13.05 g/m*3 20.23 C 13.7 km/h
2605 02-11-2020 13:00:00 20.46667 C 12.93 g/m*3 20.47 C 14.9 km/h
2606 02-11-2020 14:00:00 20.7 C 12.89 g/m*3 20.7 C 15.96667 km/h
2607 02-11-2020 15:00:00 20.93333 C 12.86 g/m*3 20.93 C 15.96667 km/h
2608 02-11-2020 16:00:00 20.69167 C 12.7 g/m*3 20.69 C 17.43333 km/h
2609 02-11-2020 17:00:00 19.75 C 12.69 g/m*3 19.75 C 12.48333 km/h
2610 02-11-2020 18:00:00 19.625 C 12.82 g/m*3 19.63 C 12.35 km/h
2611 02-11-2020 19:00:00 19.70833 C 12.91 g/m*3 19.71 C 16.91667 km/h
2612 02-11-2020 20:00:00 18.83333 C 12.8 g/m*3 18.83 C 13.55833 km/h
2613 02-11-2020 21:00:00 14.275 C 11.17 g/m*3 14.28 C 4.56667 km/h
2614 02-11-2020 22:00:00 13.01667 C 10.49 g/m*3 13.02 C 5.9 km/h
2615 02-11-2020 23:00:00 11.94167 C 9.89 g/m*3 11.94 C 4.80833 km/h
2616 03-11-2020 00:00:00 11.48333 C 9.53 g/m*3 11.48 C 6.43333 km/h
2617 03-11-2020 01:00:00 11.38333 C 8.97 g/m*3 11.38 C 6.56667 km/h
2618 03-11-2020 02:00:00 11.275 C 8.83 g/m*3 11.28 C 4.68333 km/h
2619 03-11-2020 03:00:00 11.48333 C 8.75 g/m*3 11.48 C 6.30833 km/h
2620 03-11-2020 04:00:00 11.31667 C 8.71 g/m*3 11.32 C 6.15833 km/h
2621 03-11-2020 05:00:00 11 C 8.59 g/m*3 11 C 3.475 km/h
2622 03-11-2020 06:00:00 10.71667 C 8.41 g/m*3 10.72 C 3.46667 km/h
2623 03-11-2020 07:00:00 10.24167 C 8.25 g/m*3 9.74 C 6.025 km/h
2624 03-11-2020 08:00:00 9.46667 C 8.1 g/m*3 9.47 C 2.8 km/h
2625 03-11-2020 09:00:00 9.13333 C 8.14 g/m*3 9.13 C 2.26667 km/h
Sensor: Nr:Datum:Temp:Abs-Feuchte:Windchill:Wind:
Aussen-T/F 2626 03-11-2020 10:00:00 9.56667 C 8.38 g/m*3 9.57 C 4.68333 km/h
2627 03-11-2020 11:00:00 11.00833 C 8.55 g/m*3 11.01 C 8.19167 km/h
2628 03-11-2020 12:00:00 12.09167 C 8.54 g/m*3 12.09 C 11.16667 km/h
2629 03-11-2020 13:00:00 12.61667 C 8.42 g/m*3 12.62 C 8.74167 km/h
2630 03-11-2020 14:00:00 12.65833 C 8.18 g/m*3 12.66 C 6.71667 km/h
2631 03-11-2020 15:00:00 12.78333 C 8.08 g/m*3 12.78 C 8.73333 km/h
2632 03-11-2020 16:00:00 12.33333 C 7.95 g/m*3 12.33 C 4.01667 km/h
2633 03-11-2020 17:00:00 11.59167 C 8.12 g/m*3 11.59 C 4.14167 km/h
2634 03-11-2020 18:00:00 10.71667 C 8.47 g/m*3 10.33 C 5.88333 km/h
2635 03-11-2020 19:00:00 9.01667 C 8 g/m*3 9.02 C 4.7 km/h
2636 03-11-2020 20:00:00 7.69167 C 7.5 g/m*3 7.69 C 2.53333 km/h
2637 03-11-2020 21:00:00 6.85 C 7.19 g/m*3 6.85 C 2.66667 km/h
2638 03-11-2020 22:00:00 6.24167 C 6.95 g/m*3 6.24 C 2.26667 km/h
2639 03-11-2020 23:00:00 5.875 C 6.84 g/m*3 5.88 C 1.06667 km/h
2640 04-11-2020 00:00:00 5.08333 C 6.49 g/m*3 5.08 C 1.46667 km/h
2641 04-11-2020 01:00:00 5.03333 C 6.5 g/m*3 5.03 C 1.46667 km/h
2642 04-11-2020 02:00:00 4.99167 C 6.48 g/m*3 4.99 C 2.4 km/h
2643 04-11-2020 03:00:00 4.325 C 6.2 g/m*3 4.33 C 1.33333 km/h
2644 04-11-2020 04:00:00 3.74167 C 5.98 g/m*3 3.74 C 0.26667 km/h
2645 04-11-2020 05:00:00 3.14167 C 5.75 g/m*3 3.14 C 0.4 km/h
2646 04-11-2020 06:00:00 2.8 C 5.63 g/m*3 2.8 C 1.2 km/h
2647 04-11-2020 07:00:00 2.54167 C 5.53 g/m*3 2.54 C 0 km/h
2648 04-11-2020 08:00:00 2.50833 C 5.53 g/m*3 2.51 C 0 km/h
2649 04-11-2020 09:00:00 3.13333 C 5.79 g/m*3 3.13 C 0 km/h
2650 04-11-2020 10:00:00 3.525 C 5.95 g/m*3 3.53 C 0 km/h
Sensor: Nr:Datum:Temp:Abs-Feuchte:Windchill:Wind:
Aussen-T/F 2651 04-11-2020 11:00:00 4.80833 C 6.51 g/m*3 4.81 C 0 km/h
2652 04-11-2020 12:00:00 5.91667 C 7 g/m*3 5.92 C 0.4 km/h
2653 04-11-2020 13:00:00 6.68333 C 7.36 g/m*3 6.68 C 3.33333 km/h
2654 04-11-2020 14:00:00 7.64167 C 7.82 g/m*3 7.64 C 1.86667 km/h
2655 04-11-2020 15:00:00 8.16667 C 7.8 g/m*3 8.17 C 2.4 km/h
2656 04-11-2020 16:00:00 7.58333 C 7.37 g/m*3 7.58 C 3.33333 km/h
2657 04-11-2020 17:00:00 6.375 C 6.83 g/m*3 6.38 C 0.66667 km/h
2658 04-11-2020 18:00:00 5.28333 C 6.41 g/m*3 5.28 C 0.26667 km/h
2659 04-11-2020 19:00:00 4.45 C 6.14 g/m*3 4.45 C 0 km/h
2660 04-11-2020 20:00:00 3.575 C 5.82 g/m*3 3.58 C 0 km/h
2661 04-11-2020 21:00:00 3.04167 C 5.66 g/m*3 3.04 C 0 km/h
2662 04-11-2020 22:00:00 2.56667 C 5.49 g/m*3 2.57 C 0 km/h
2663 04-11-2020 23:00:00 2.15 C 5.36 g/m*3 2.15 C 0 km/h
2664 05-11-2020 00:00:00 1.775 C 5.24 g/m*3 1.78 C 0 km/h
2665 05-11-2020 01:00:00 1.75833 C 5.25 g/m*3 1.76 C 0.53333 km/h
2666 05-11-2020 02:00:00 2.2 C 5.41 g/m*3 2.2 C 0.4 km/h
2667 05-11-2020 03:00:00 2.10833 C 5.37 g/m*3 2.11 C 0.26667 km/h
2668 05-11-2020 04:00:00 2.09167 C 5.4 g/m*3 2.09 C 0 km/h
2669 05-11-2020 05:00:00 2.24167 C 5.48 g/m*3 2.24 C 0 km/h
2670 05-11-2020 06:00:00 2.3 C 5.5 g/m*3 2.3 C 0 km/h
2671 05-11-2020 07:00:00 2.38 C 5.53 g/m*3 2.38 C 0.48 km/h
2672 05-11-2020 12:00:00 3.76 C 6.07 g/m*3 3.76 C 3.36 km/h
2673 05-11-2020 13:00:00 4.19167 C 6.25 g/m*3 4.19 C 2.66667 km/h
2674 05-11-2020 14:00:00 4.2 C 6.25 g/m*3 4.2 C 2.93333 km/h
2675 05-11-2020 15:00:00 4.43333 C 6.37 g/m*3 4.43 C 2 km/h
Sensor: Nr:Datum:Temp:Abs-Feuchte:Windchill:Wind:
Aussen-T/F 2676 05-11-2020 16:00:00 4.39167 C 6.33 g/m*3 4.39 C 0 km/h
2677 05-11-2020 17:00:00 4.18333 C 6.24 g/m*3 4.18 C 0.4 km/h
2678 05-11-2020 18:00:00 3.79167 C 6.08 g/m*3 3.79 C 0.4 km/h
2679 05-11-2020 19:00:00 3.39167 C 5.92 g/m*3 3.39 C 0 km/h
2680 05-11-2020 20:00:00 3.325 C 5.89 g/m*3 3.33 C 0 km/h
2681 05-11-2020 21:00:00 3.26667 C 5.87 g/m*3 3.27 C 0.93333 km/h
2682 05-11-2020 22:00:00 3.23333 C 5.87 g/m*3 3.23 C 0 km/h
2683 05-11-2020 23:00:00 3.31667 C 5.9 g/m*3 3.32 C 0.8 km/h
2684 06-11-2020 00:00:00 3.075 C 5.8 g/m*3 3.08 C 0.66667 km/h
2685 06-11-2020 01:00:00 2.675 C 5.65 g/m*3 2.68 C 1.6 km/h
2686 06-11-2020 02:00:00 2.56667 C 5.63 g/m*3 2.57 C 1.46667 km/h
2687 06-11-2020 03:00:00 2.65833 C 5.64 g/m*3 2.66 C 0.53333 km/h
2688 06-11-2020 04:00:00 2.5 C 5.62 g/m*3 2.5 C 0.8 km/h
2689 06-11-2020 05:00:00 2.48333 C 5.59 g/m*3 2.48 C 0.66667 km/h
2690 06-11-2020 06:00:00 2.61667 C 5.66 g/m*3 2.62 C 0.26667 km/h
2691 06-11-2020 07:00:00 2.54167 C 5.65 g/m*3 2.54 C 0.4 km/h
2692 06-11-2020 08:00:00 2.54167 C 5.65 g/m*3 2.54 C 0.26667 km/h
2693 06-11-2020 09:00:00 3.03333 C 5.84 g/m*3 3.03 C 0 km/h
2694 06-11-2020 10:00:00 3.61667 C 6.07 g/m*3 3.62 C 0.53333 km/h
2695 06-11-2020 11:00:00 4.11667 C 6.28 g/m*3 4.12 C 1.46667 km/h
2696 06-11-2020 12:00:00 4.35 C 6.38 g/m*3 4.35 C 1.6 km/h
2697 06-11-2020 13:00:00 5.11667 C 6.71 g/m*3 5.12 C 1.73333 km/h
2698 06-11-2020 14:00:00 6.00833 C 7.12 g/m*3 6.01 C 3.86667 km/h
2699 06-11-2020 15:00:00 6.35 C 7.28 g/m*3 6.35 C 3.73333 km/h
2700 06-11-2020 16:00:00 5.65 C 6.95 g/m*3 5.65 C 3.6 km/h
Sensor: Nr:Datum:Temp:Abs-Feuchte:Windchill:Wind:
Aussen-T/F 2701 06-11-2020 17:00:00 4.5 C 6.39 g/m*3 4.5 C 4.13333 km/h
2702 06-11-2020 18:00:00 3.39167 C 5.91 g/m*3 3.39 C 1.06667 km/h
2703 06-11-2020 19:00:00 2.425 C 5.49 g/m*3 2.42 C 0 km/h
2704 06-11-2020 20:00:00 1.875 C 5.29 g/m*3 1.88 C 0 km/h
2705 06-11-2020 21:00:00 1.45833 C 5.14 g/m*3 1.46 C 0 km/h
2706 06-11-2020 22:00:00 1.24167 C 5.07 g/m*3 1.24 C 0 km/h
2707 06-11-2020 23:00:00 0.89167 C 4.95 g/m*3 0.89 C 0 km/h
2708 07-11-2020 00:00:00 0.79167 C 4.91 g/m*3 0.79 C 0 km/h
2709 07-11-2020 01:00:00 0.64167 C 4.89 g/m*3 0.64 C 0 km/h
2710 07-11-2020 02:00:00 0.50833 C 4.85 g/m*3 0.51 C 0 km/h
2711 07-11-2020 03:00:00 0.39167 C 4.83 g/m*3 0.39 C 0 km/h
2712 07-11-2020 04:00:00 0.36667 C 4.82 g/m*3 0.37 C 0 km/h
2713 07-11-2020 05:00:00 0.3 C 4.8 g/m*3 0.3 C 0 km/h
2714 07-11-2020 06:00:00 0.3 C 4.8 g/m*3 0.3 C 0 km/h
2715 07-11-2020 07:00:00 0.30833 C 4.8 g/m*3 0.31 C 0 km/h
2716 07-11-2020 08:00:00 0.71667 C 4.94 g/m*3 0.72 C 0 km/h
2717 07-11-2020 09:00:00 1.48 C 5.2 g/m*3 1.48 C 0 km/h
2718 07-11-2020 10:00:00 2.775 C 5.72 g/m*3 2.78 C 0.26667 km/h
2719 07-11-2020 11:00:00 4.875 C 6.6 g/m*3 4.88 C 1.6 km/h
2720 07-11-2020 12:00:00 6.59167 C 7.39 g/m*3 6.59 C 3.73333 km/h
2721 07-11-2020 13:00:00 7.81667 C 8.01 g/m*3 7.82 C 3.6 km/h
2722 07-11-2020 14:00:00 8.89167 C 8.58 g/m*3 8.89 C 4.8 km/h
2723 07-11-2020 15:00:00 9.68333 C 8.87 g/m*3 9.68 C 4 km/h
2724 07-11-2020 16:00:00 9.475 C 8.41 g/m*3 9.48 C 2.13333 km/h
2725 07-11-2020 17:00:00 8.09167 C 7.62 g/m*3 8.09 C 2.13333 km/h
Sensor: Nr:Datum:Temp:Abs-Feuchte:Windchill:Wind:
Aussen-T/F 2726 07-11-2020 18:00:00 7.41667 C 7.4 g/m*3 7.42 C 4.13333 km/h
2727 07-11-2020 19:00:00 6.80833 C 7.12 g/m*3 6.81 C 1.6 km/h
2728 07-11-2020 20:00:00 6.3 C 6.91 g/m*3 6.3 C 0 km/h
2729 07-11-2020 21:00:00 5.6 C 6.65 g/m*3 5.6 C 0 km/h
2730 07-11-2020 22:00:00 4.925 C 6.39 g/m*3 4.93 C 0 km/h
2731 07-11-2020 23:00:00 4.225 C 6.13 g/m*3 4.22 C 0 km/h
2732 08-11-2020 00:00:00 3.95 C 6.07 g/m*3 3.95 C 0 km/h
2733 08-11-2020 01:00:00 3.45833 C 5.88 g/m*3 3.46 C 0 km/h
2734 08-11-2020 02:00:00 3.20833 C 5.79 g/m*3 3.21 C 0 km/h
2735 08-11-2020 03:00:00 2.84167 C 5.65 g/m*3 2.84 C 0 km/h
2736 08-11-2020 04:00:00 2.625 C 5.57 g/m*3 2.63 C 0 km/h
2737 08-11-2020 05:00:00 2.59167 C 5.59 g/m*3 2.59 C 0 km/h
2738 08-11-2020 06:00:00 2.51667 C 5.56 g/m*3 2.52 C 0 km/h
2739 08-11-2020 07:00:00 2.425 C 5.55 g/m*3 2.42 C 0 km/h
2740 08-11-2020 08:00:00 2.775 C 5.68 g/m*3 2.78 C 0 km/h
2741 08-11-2020 09:00:00 3.93333 C 6.15 g/m*3 3.93 C 0 km/h
2742 08-11-2020 10:00:00 5.31667 C 6.79 g/m*3 5.32 C 0 km/h
2743 08-11-2020 11:00:00 7.00833 C 7.59 g/m*3 7.01 C 0 km/h
2744 08-11-2020 12:00:00 8.80833 C 8.46 g/m*3 8.81 C 0 km/h
2745 08-11-2020 13:00:00 10.29167 C 9.07 g/m*3 10.29 C 0 km/h
2746 08-11-2020 14:00:00 11.88333 C 9.5 g/m*3 11.88 C 0 km/h
2747 08-11-2020 15:00:00 12.73333 C 9.76 g/m*3 12.73 C 0 km/h
2748 08-11-2020 16:00:00 12.11667 C 9.5 g/m*3 12.12 C 0 km/h
2749 08-11-2020 17:00:00 11.05 C 9.15 g/m*3 11.05 C 0 km/h
2750 08-11-2020 18:00:00 10.68333 C 9.11 g/m*3 10.68 C 0 km/h
Sensor: Nr:Datum:Temp:Abs-Feuchte:Windchill:Wind:
Aussen-T/F 2751 08-11-2020 19:00:00 10.56667 C 9.16 g/m*3 10.57 C 0 km/h
2752 08-11-2020 20:00:00 10.25 C 9.05 g/m*3 10.25 C 0 km/h
2753 08-11-2020 21:00:00 9.975 C 8.91 g/m*3 9.98 C 0 km/h
2754 08-11-2020 22:00:00 9.61667 C 8.71 g/m*3 9.62 C 0 km/h
2755 08-11-2020 23:00:00 9.40833 C 8.61 g/m*3 9.41 C 0 km/h
2756 09-11-2020 00:00:00 9.45 C 8.71 g/m*3 9.45 C 0 km/h
2757 09-11-2020 01:00:00 9.4 C 8.68 g/m*3 9.4 C 0 km/h
2758 09-11-2020 02:00:00 9.35833 C 8.66 g/m*3 9.36 C 0 km/h
2759 09-11-2020 03:00:00 9.325 C 8.65 g/m*3 9.32 C 1.34167 km/h
2760 09-11-2020 04:00:00 9.19167 C 8.61 g/m*3 9.19 C 0 km/h
2761 09-11-2020 05:00:00 8.425 C 8.19 g/m*3 8.43 C 0 km/h
2762 09-11-2020 06:00:00 8.3 C 8.15 g/m*3 8.3 C 0 km/h
2763 09-11-2020 07:00:00 8.075 C 8.05 g/m*3 8.07 C 0 km/h
2764 09-11-2020 08:00:00 8.35 C 8.2 g/m*3 8.35 C 0 km/h
2765 09-11-2020 09:00:00 8.96667 C 8.53 g/m*3 8.97 C 0 km/h
2766 09-11-2020 10:00:00 9.76667 C 9 g/m*3 9.77 C 0 km/h
2767 09-11-2020 11:00:00 11.00833 C 9.81 g/m*3 11.01 C 0 km/h
2768 09-11-2020 12:00:00 11.8 C 10.29 g/m*3 11.8 C 0 km/h
2769 09-11-2020 13:00:00 13.08333 C 11.07 g/m*3 13.08 C 0 km/h
2770 09-11-2020 14:00:00 13.675 C 10.94 g/m*3 13.68 C 0.53333 km/h
2771 09-11-2020 15:00:00 13.21667 C 10.69 g/m*3 13.22 C 0.26667 km/h
2772 09-11-2020 16:00:00 12.48333 C 10.29 g/m*3 12.48 C 0.26667 km/h
2773 09-11-2020 17:00:00 11.51667 C 9.74 g/m*3 11.52 C 2.8 km/h
2774 09-11-2020 18:00:00 10.46667 C 9.19 g/m*3 10.47 C 0.8 km/h
2775 09-11-2020 19:00:00 9.66667 C 8.79 g/m*3 9.67 C 0 km/h
Sensor: Nr:Datum:Temp:Abs-Feuchte:Windchill:Wind:
Aussen-T/F 2776 09-11-2020 20:00:00 9.08333 C 8.51 g/m*3 9.08 C 0.4 km/h
2777 09-11-2020 21:00:00 8.16667 C 8.02 g/m*3 8.17 C 0 km/h
2778 09-11-2020 22:00:00 7.225 C 7.55 g/m*3 7.23 C 0 km/h
2779 09-11-2020 23:00:00 6.63333 C 7.26 g/m*3 6.63 C 0 km/h
2780 10-11-2020 00:00:00 6.11667 C 7.05 g/m*3 6.12 C 0 km/h
2781 10-11-2020 01:00:00 6.175 C 7.12 g/m*3 6.18 C 0 km/h
2782 10-11-2020 02:00:00 6.06667 C 7.07 g/m*3 6.07 C 0 km/h
2783 10-11-2020 03:00:00 6.1 C 7.09 g/m*3 6.1 C 0 km/h
2784 10-11-2020 04:00:00 6.00833 C 7.04 g/m*3 6.01 C 0 km/h
2785 10-11-2020 05:00:00 5.74167 C 6.92 g/m*3 5.74 C 0 km/h
2786 10-11-2020 06:00:00 5.71667 C 6.91 g/m*3 5.72 C 0 km/h
2787 10-11-2020 07:00:00 5.7 C 6.9 g/m*3 5.7 C 0 km/h
2788 10-11-2020 08:00:00 5.70833 C 6.91 g/m*3 5.71 C 0.13333 km/h
2789 10-11-2020 09:00:00 5.98333 C 7.08 g/m*3 5.98 C 0.13333 km/h
2790 10-11-2020 10:00:00 6.49167 C 7.33 g/m*3 6.49 C 0 km/h
2791 10-11-2020 11:00:00 7.49167 C 7.84 g/m*3 7.49 C 0 km/h
2792 10-11-2020 12:00:00 8.10833 C 8.16 g/m*3 8.11 C 0 km/h
2793 10-11-2020 13:00:00 8.65 C 8.45 g/m*3 8.65 C 0.13333 km/h
2794 10-11-2020 14:00:00 9.78333 C 9.08 g/m*3 9.78 C 0 km/h
2795 10-11-2020 15:00:00 10.25833 C 9.27 g/m*3 10.26 C 0 km/h
2796 10-11-2020 16:00:00 9.625 C 8.84 g/m*3 9.63 C 0 km/h
2797 10-11-2020 17:00:00 7.84167 C 7.84 g/m*3 7.84 C 0 km/h
2798 10-11-2020 18:00:00 6.75 C 7.32 g/m*3 6.75 C 0 km/h
2799 10-11-2020 19:00:00 6.66667 C 7.33 g/m*3 6.67 C 0 km/h
2800 10-11-2020 20:00:00 6.58333 C 7.31 g/m*3 6.58 C 0 km/h
Sensor: Nr:Datum:Temp:Abs-Feuchte:Windchill:Wind:
Aussen-T/F 2801 10-11-2020 21:00:00 7.16667 C 7.6 g/m*3 7.17 C 0 km/h
2802 10-11-2020 22:00:00 7.54167 C 7.79 g/m*3 7.54 C 0 km/h
2803 10-11-2020 23:00:00 7.725 C 7.88 g/m*3 7.73 C 0 km/h
2804 11-11-2020 00:00:00 7.7 C 7.87 g/m*3 7.7 C 0 km/h
2805 11-11-2020 01:00:00 7.76667 C 7.9 g/m*3 7.77 C 0 km/h
2806 11-11-2020 02:00:00 7.76667 C 7.9 g/m*3 7.77 C 0 km/h
2807 11-11-2020 03:00:00 7.79167 C 7.91 g/m*3 7.79 C 0 km/h
2808 11-11-2020 04:00:00 7.825 C 7.93 g/m*3 7.83 C 0 km/h
2809 11-11-2020 05:00:00 7.89167 C 7.96 g/m*3 7.89 C 0 km/h
2810 11-11-2020 06:00:00 7.9 C 7.97 g/m*3 7.9 C 0 km/h
2811 11-11-2020 07:00:00 7.91667 C 7.98 g/m*3 7.92 C 0 km/h
2812 11-11-2020 08:00:00 8.08333 C 8.06 g/m*3 8.08 C 0 km/h
2813 11-11-2020 09:00:00 8.40833 C 8.23 g/m*3 8.41 C 0 km/h
2814 11-11-2020 10:00:00 9.05 C 8.54 g/m*3 9.05 C 0.53333 km/h
2815 11-11-2020 11:00:00 9.9 C 8.8 g/m*3 8.97 C 7.64167 km/h
2816 11-11-2020 12:00:00 10 C 8.74 g/m*3 10 C 1.46667 km/h
2817 11-11-2020 13:00:00 10.69167 C 9.05 g/m*3 10.69 C 2.675 km/h
2818 11-11-2020 14:00:00 11.29167 C 9.24 g/m*3 11.29 C 2.66667 km/h
2819 11-11-2020 15:00:00 11.28333 C 9.16 g/m*3 11.28 C 5.89167 km/h
2820 11-11-2020 16:00:00 10.95833 C 9.08 g/m*3 10.96 C 4.69167 km/h
2821 11-11-2020 17:00:00 10.45833 C 8.8 g/m*3 10.46 C 4.15833 km/h
2822 11-11-2020 18:00:00 9.675 C 8.47 g/m*3 8.5 C 8.59167 km/h
2823 11-11-2020 19:00:00 9.05 C 8.23 g/m*3 7.41 C 10.46667 km/h
2824 11-11-2020 20:00:00 8.775 C 8.08 g/m*3 8.78 C 3.6 km/h
2825 11-11-2020 21:00:00 8.7 C 8.09 g/m*3 8.7 C 1.06667 km/h
Sensor: Nr:Datum:Temp:Abs-Feuchte:Windchill:Wind:
Aussen-T/F 2826 11-11-2020 22:00:00 8.76667 C 8.16 g/m*3 8.77 C 0.13333 km/h
2827 11-11-2020 23:00:00 8.8 C 8.18 g/m*3 8.8 C 0 km/h
2828 12-11-2020 00:00:00 8.81667 C 8.19 g/m*3 8.82 C 0.8 km/h
2829 12-11-2020 01:00:00 8.89167 C 8.23 g/m*3 8.89 C 0.26667 km/h
2830 12-11-2020 02:00:00 8.9 C 8.23 g/m*3 8.9 C 0 km/h
2831 12-11-2020 03:00:00 8.9 C 8.23 g/m*3 8.9 C 0 km/h
2832 12-11-2020 04:00:00 8.925 C 8.32 g/m*3 8.93 C 0 km/h
2833 12-11-2020 05:00:00 8.88333 C 8.31 g/m*3 8.88 C 0 km/h
2834 12-11-2020 06:00:00 9.19167 C 8.39 g/m*3 9.19 C 3.33333 km/h
2835 12-11-2020 07:00:00 9.6 C 8.44 g/m*3 9.6 C 4.54167 km/h
2836 12-11-2020 08:00:00 9.975 C 8.54 g/m*3 9.98 C 2.4 km/h
2837 12-11-2020 09:00:00 10.49167 C 8.76 g/m*3 10.49 C 3.46667 km/h
2838 12-11-2020 10:00:00 11.175 C 9.08 g/m*3 11.18 C 1.86667 km/h
2839 12-11-2020 11:00:00 11.86667 C 9.4 g/m*3 11.87 C 2.68333 km/h
2840 12-11-2020 12:00:00 12.00833 C 9.22 g/m*3 12.01 C 10.625 km/h
2841 12-11-2020 13:00:00 12.30833 C 8.97 g/m*3 12.31 C 11.69167 km/h
2842 12-11-2020 14:00:00 12.475 C 8.93 g/m*3 12.48 C 6.98333 km/h
2843 12-11-2020 15:00:00 12.11667 C 8.93 g/m*3 12.12 C 4.275 km/h
2844 12-11-2020 16:00:00 11.525 C 8.34 g/m*3 11.53 C 6.55833 km/h
2845 12-11-2020 17:00:00 9.48333 C 7.89 g/m*3 9.07 C 5.33333 km/h
2846 12-11-2020 18:00:00 8.26667 C 7.57 g/m*3 8.27 C 4.8 km/h
2847 12-11-2020 19:00:00 7.40833 C 7.24 g/m*3 7.41 C 1.06667 km/h
2848 12-11-2020 20:00:00 6.775 C 7.12 g/m*3 6.78 C 2.26667 km/h
2849 12-11-2020 21:00:00 5.9 C 6.72 g/m*3 5.9 C 0.4 km/h
2850 12-11-2020 22:00:00 4.61667 C 6.22 g/m*3 4.62 C 0 km/h
Sensor: Nr:Datum:Temp:Abs-Feuchte:Windchill:Wind:
Aussen-T/F 2851 12-11-2020 23:00:00 3.85 C 5.96 g/m*3 3.85 C 0 km/h
2852 13-11-2020 00:00:00 3.35 C 5.78 g/m*3 3.35 C 0 km/h
2853 13-11-2020 01:00:00 2.89167 C 5.63 g/m*3 2.89 C 0 km/h
2854 13-11-2020 02:00:00 2.375 C 5.45 g/m*3 2.38 C 0.13333 km/h
2855 13-11-2020 03:00:00 2.46667 C 5.51 g/m*3 2.47 C 0 km/h
2856 13-11-2020 04:00:00 2.75833 C 5.63 g/m*3 2.76 C 0.4 km/h
2857 13-11-2020 05:00:00 2.68333 C 5.59 g/m*3 2.68 C 0.53333 km/h
2858 13-11-2020 06:00:00 2.6 C 5.61 g/m*3 2.6 C 0.26667 km/h
2859 13-11-2020 07:00:00 2.63333 C 5.63 g/m*3 2.63 C 0.4 km/h
2860 13-11-2020 08:00:00 2.7 C 5.65 g/m*3 2.7 C 0.53333 km/h
2861 13-11-2020 09:00:00 2.875 C 5.72 g/m*3 2.88 C 1.46667 km/h
2862 13-11-2020 10:00:00 3.38333 C 5.92 g/m*3 3.38 C 0.4 km/h
2863 13-11-2020 11:00:00 4.525 C 6.41 g/m*3 4.53 C 0.53333 km/h
2864 13-11-2020 12:00:00 5.60833 C 6.93 g/m*3 5.61 C 0 km/h
2865 13-11-2020 13:00:00 8.175 C 8.19 g/m*3 8.18 C 0.8 km/h
2866 13-11-2020 14:00:00 9.525 C 8.91 g/m*3 9.53 C 0.26667 km/h
2867 13-11-2020 15:00:00 10.39167 C 9.3 g/m*3 10.39 C 0.4 km/h
2868 13-11-2020 16:00:00 10.68333 C 9.33 g/m*3 10.68 C 0.13333 km/h
2869 13-11-2020 17:00:00 10.775 C 9.38 g/m*3 10.78 C 0.26667 km/h
2870 13-11-2020 18:00:00 11.18333 C 9.57 g/m*3 11.18 C 0.66667 km/h
2871 13-11-2020 19:00:00 11.63333 C 9.81 g/m*3 11.63 C 2.13333 km/h
2872 13-11-2020 20:00:00 11.875 C 9.83 g/m*3 11.88 C 1.33333 km/h
2873 13-11-2020 21:00:00 11.54167 C 9.64 g/m*3 11.54 C 0.4 km/h
2874 13-11-2020 22:00:00 11.30833 C 9.58 g/m*3 11.31 C 0.66667 km/h
2875 13-11-2020 23:00:00 10.91667 C 9.36 g/m*3 10.92 C 0 km/h
Sensor: Nr:Datum:Temp:Abs-Feuchte:Windchill:Wind:
Aussen-T/F 2876 14-11-2020 00:00:00 10.45833 C 9.17 g/m*3 10.46 C 0.53333 km/h
2877 14-11-2020 01:00:00 10.38333 C 9.18 g/m*3 10.38 C 1.06667 km/h
2878 14-11-2020 02:00:00 10.81667 C 9.42 g/m*3 10.82 C 2 km/h
2879 14-11-2020 03:00:00 10.55 C 9.15 g/m*3 10.55 C 2.13333 km/h
2880 14-11-2020 04:00:00 10.01667 C 8.84 g/m*3 10.02 C 3.06667 km/h
2881 14-11-2020 05:00:00 8.975 C 8.24 g/m*3 8.98 C 1.6 km/h
2882 14-11-2020 06:00:00 7.79167 C 7.72 g/m*3 7.79 C 0 km/h
2883 14-11-2020 07:00:00 7.18333 C 7.5 g/m*3 7.18 C 0.26667 km/h
2884 14-11-2020 08:00:00 7.05833 C 7.47 g/m*3 7.06 C 0 km/h
2885 14-11-2020 09:00:00 7.43333 C 7.7 g/m*3 7.43 C 0 km/h
2886 14-11-2020 10:00:00 8.775 C 8.45 g/m*3 8.78 C 0.13333 km/h
2887 14-11-2020 11:00:00 11.16667 C 9.84 g/m*3 11.17 C 0.26667 km/h
2888 14-11-2020 12:00:00 13.025 C 10.51 g/m*3 13.03 C 0.26667 km/h
2889 14-11-2020 13:00:00 14.58333 C 10.54 g/m*3 14.58 C 6.05 km/h
2890 14-11-2020 14:00:00 14.99167 C 10.34 g/m*3 14.99 C 4.00833 km/h
2891 14-11-2020 15:00:00 14.1 C 10.23 g/m*3 14.1 C 3.6 km/h
2892 14-11-2020 16:00:00 13.08333 C 9.94 g/m*3 13.08 C 5.06667 km/h
2893 14-11-2020 17:00:00 11.71667 C 9.41 g/m*3 11.72 C 2.4 km/h
2894 14-11-2020 18:00:00 10.75 C 9.11 g/m*3 10.75 C 0 km/h
2895 14-11-2020 19:00:00 10.19167 C 8.9 g/m*3 10.19 C 2.13333 km/h
2896 14-11-2020 20:00:00 9.41667 C 8.53 g/m*3 9.42 C 0 km/h
2897 14-11-2020 21:00:00 9.50833 C 8.72 g/m*3 9.51 C 0 km/h
2898 14-11-2020 22:00:00 9.48333 C 8.73 g/m*3 9.48 C 0.26667 km/h
2899 14-11-2020 23:00:00 9.64167 C 8.84 g/m*3 9.64 C 1.46667 km/h
2900 15-11-2020 00:00:00 10.375 C 9.28 g/m*3 10.38 C 0.66667 km/h
Sensor: Nr:Datum:Temp:Abs-Feuchte:Windchill:Wind:
Aussen-T/F 2901 15-11-2020 01:00:00 10.325 C 9.21 g/m*3 10.33 C 0.93333 km/h
2902 15-11-2020 02:00:00 10.775 C 9.47 g/m*3 10.78 C 1.2 km/h
2903 15-11-2020 03:00:00 11.08333 C 9.49 g/m*3 11.08 C 0.4 km/h
2904 15-11-2020 04:00:00 10.84167 C 9.32 g/m*3 10.84 C 1.2 km/h
2905 15-11-2020 05:00:00 11.31667 C 9.51 g/m*3 11.32 C 1.875 km/h
2906 15-11-2020 06:00:00 12.19167 C 9.7 g/m*3 12.19 C 3.21667 km/h
2907 15-11-2020 07:00:00 12.20833 C 9.55 g/m*3 12.21 C 2.4 km/h
2908 15-11-2020 08:00:00 11.31667 C 9.29 g/m*3 11.32 C 0 km/h
2909 15-11-2020 09:00:00 11.43333 C 9.51 g/m*3 11.43 C 1.6 km/h
2910 15-11-2020 10:00:00 13.2 C 10.1 g/m*3 13.2 C 2 km/h
2911 15-11-2020 11:00:00 14.93333 C 10.38 g/m*3 14.93 C 6.84167 km/h
2912 15-11-2020 12:00:00 16.325 C 10.57 g/m*3 16.33 C 8.475 km/h
2913 15-11-2020 13:00:00 17.43333 C 10.58 g/m*3 17.43 C 6.98333 km/h
2914 15-11-2020 14:00:00 17.85833 C 10.31 g/m*3 17.86 C 6.43333 km/h
2915 15-11-2020 15:00:00 17.325 C 10.19 g/m*3 17.33 C 4.54167 km/h
2916 15-11-2020 16:00:00 16.125 C 9.96 g/m*3 16.13 C 3.60833 km/h
2917 15-11-2020 17:00:00 15.74167 C 10.04 g/m*3 15.74 C 4.15 km/h
2918 15-11-2020 18:00:00 14.60833 C 10.83 g/m*3 14.61 C 5.21667 km/h
2919 15-11-2020 19:00:00 13.56667 C 10.73 g/m*3 13.57 C 6.15833 km/h
2920 15-11-2020 20:00:00 13.59167 C 10.71 g/m*3 13.59 C 10.05 km/h
2921 15-11-2020 21:00:00 11.79167 C 9.55 g/m*3 11.79 C 6.43333 km/h
2922 15-11-2020 22:00:00 10.93333 C 9.37 g/m*3 10.93 C 2.13333 km/h
2923 15-11-2020 23:00:00 11.21667 C 9.1 g/m*3 11.22 C 9.54167 km/h
2924 16-11-2020 00:00:00 10.75833 C 8.77 g/m*3 10.48 C 5.49167 km/h
2925 16-11-2020 01:00:00 10.78333 C 8.29 g/m*3 9.72 C 9.125 km/h
Sensor: Nr:Datum:Temp:Abs-Feuchte:Windchill:Wind:
Aussen-T/F 2926 16-11-2020 02:00:00 10.53333 C 8.12 g/m*3 9.79 C 7.25833 km/h
2927 16-11-2020 03:00:00 10.81667 C 8.13 g/m*3 9.8 C 8.85833 km/h
2928 16-11-2020 04:00:00 10.85 C 8.24 g/m*3 9.29 C 12.35833 km/h
2929 16-11-2020 05:00:00 10.125 C 8.19 g/m*3 8.2 C 13.96667 km/h
2930 16-11-2020 06:00:00 10.025 C 8.09 g/m*3 8.74 C 9.55 km/h
2931 16-11-2020 07:00:00 9.79167 C 8.06 g/m*3 8.39 C 9.95 km/h
2932 16-11-2020 08:00:00 10.15833 C 8.33 g/m*3 8.65 C 11.01667 km/h
2933 16-11-2020 09:00:00 10.60833 C 8.41 g/m*3 9.21 C 10.9 km/h
2934 16-11-2020 10:00:00 10.78333 C 8.36 g/m*3 8.94 C 14.5 km/h
2935 16-11-2020 11:00:00 11.78333 C 8.62 g/m*3 11.78 C 14.23333 km/h
2936 16-11-2020 12:00:00 12.25 C 9.01 g/m*3 12.25 C 15.3 km/h
2937 16-11-2020 13:00:00 12.525 C 9.28 g/m*3 12.53 C 17.56667 km/h
2938 16-11-2020 14:00:00 12.4 C 9.21 g/m*3 12.4 C 13.43333 km/h
2939 16-11-2020 15:00:00 12.30833 C 9.21 g/m*3 12.31 C 15.03333 km/h
2940 16-11-2020 16:00:00 11.63333 C 9 g/m*3 11.63 C 15.03333 km/h
2941 16-11-2020 17:00:00 11.1 C 8.88 g/m*3 11.1 C 11.01667 km/h
2942 16-11-2020 18:00:00 10.90833 C 8.83 g/m*3 9.33 C 12.63333 km/h
2943 16-11-2020 19:00:00 11.15 C 8.83 g/m*3 11.15 C 9.28333 km/h
2944 16-11-2020 20:00:00 10.78333 C 8.68 g/m*3 10.33 C 6.175 km/h
2945 16-11-2020 21:00:00 9.60833 C 8.15 g/m*3 9.61 C 3.88333 km/h
2946 16-11-2020 22:00:00 8.79167 C 7.88 g/m*3 8.36 C 5.075 km/h
2947 16-11-2020 23:00:00 9.14167 C 8.04 g/m*3 8.14 C 7.38333 km/h
2948 17-11-2020 00:00:00 9.375 C 8.11 g/m*3 8.41 C 7.39167 km/h
2949 17-11-2020 01:00:00 10.025 C 8.27 g/m*3 9.29 C 6.85 km/h
2950 17-11-2020 02:00:00 10.44167 C 8.41 g/m*3 9.1 C 10.35833 km/h
Sensor: Nr:Datum:Temp:Abs-Feuchte:Windchill:Wind:
Aussen-T/F 2951 17-11-2020 03:00:00 10.59167 C 8.42 g/m*3 9.18 C 11.025 km/h
2952 17-11-2020 04:00:00 10.68333 C 8.47 g/m*3 9.22 C 11.43333 km/h
2953 17-11-2020 05:00:00 10.73333 C 8.51 g/m*3 9.35 C 11.01667 km/h
2954 17-11-2020 06:00:00 10.45 C 8.49 g/m*3 9.16 C 10.08333 km/h
2955 17-11-2020 07:00:00 10.60833 C 8.4 g/m*3 10.23 C 5.76667 km/h
2956 17-11-2020 08:00:00 10.7 C 8.45 g/m*3 10.2 C 6.31667 km/h
2957 17-11-2020 09:00:00 11 C 8.59 g/m*3 9.9 C 9.54167 km/h
2958 17-11-2020 10:00:00 11.40833 C 8.71 g/m*3 11.41 C 16.9 km/h
2959 17-11-2020 11:00:00 11.99167 C 8.87 g/m*3 11.99 C 18.76667 km/h
2960 17-11-2020 12:00:00 12.64167 C 9.05 g/m*3 12.64 C 13.7 km/h
2961 17-11-2020 13:00:00 12.825 C 9.09 g/m*3 12.83 C 12.89167 km/h
2962 17-11-2020 14:00:00 13.04167 C 9.11 g/m*3 13.04 C 9.825 km/h
2963 17-11-2020 15:00:00 12.8 C 9.07 g/m*3 12.8 C 8.59167 km/h
2964 17-11-2020 16:00:00 12.65833 C 9.04 g/m*3 12.66 C 9.15 km/h
2965 17-11-2020 17:00:00 12.36667 C 9 g/m*3 12.37 C 5.48333 km/h
2966 17-11-2020 18:00:00 12.25 C 9.01 g/m*3 12.25 C 3.475 km/h
2967 17-11-2020 19:00:00 11.95 C 8.99 g/m*3 11.95 C 1.06667 km/h
2968 17-11-2020 20:00:00 11.85 C 9.08 g/m*3 11.85 C 5.21667 km/h
2969 17-11-2020 21:00:00 11.825 C 9.07 g/m*3 11.83 C 3.88333 km/h
2970 17-11-2020 22:00:00 11.66667 C 9.04 g/m*3 11.67 C 1.875 km/h
2971 17-11-2020 23:00:00 11.58333 C 8.89 g/m*3 11.58 C 3.86667 km/h
2972 18-11-2020 00:00:00 11.53333 C 8.8 g/m*3 11.53 C 2 km/h
2973 18-11-2020 01:00:00 11.35 C 8.78 g/m*3 11.35 C 0 km/h
2974 18-11-2020 02:00:00 11.3 C 8.77 g/m*3 11.3 C 2.66667 km/h
2975 18-11-2020 03:00:00 11.175 C 8.75 g/m*3 11.18 C 1.46667 km/h
Sensor: Nr:Datum:Temp:Abs-Feuchte:Windchill:Wind:
Aussen-T/F 2976 18-11-2020 04:00:00 10.95 C 8.68 g/m*3 10.95 C 0.4 km/h
2977 18-11-2020 05:00:00 10.8 C 8.63 g/m*3 10.8 C 0.26667 km/h
2978 18-11-2020 06:00:00 10.7 C 8.64 g/m*3 10.7 C 0.13333 km/h
2979 18-11-2020 07:00:00 10.7 C 8.67 g/m*3 10.7 C 0 km/h
2980 18-11-2020 08:00:00 10.775 C 8.63 g/m*3 10.78 C 2.66667 km/h
2981 18-11-2020 09:00:00 10.6 C 8.46 g/m*3 10.6 C 1.2 km/h
2982 18-11-2020 10:00:00 9.43333 C 8.13 g/m*3 9.43 C 2.13333 km/h
2983 18-11-2020 11:00:00 9.6 C 8.48 g/m*3 9.6 C 4 km/h
2984 18-11-2020 12:00:00 10.35 C 8.83 g/m*3 10.35 C 2.8 km/h
2985 18-11-2020 13:00:00 10.975 C 9.09 g/m*3 10.98 C 0 km/h
2986 18-11-2020 14:00:00 11.54167 C 9.3 g/m*3 11.54 C 2.13333 km/h
2987 18-11-2020 15:00:00 12.15 C 9.42 g/m*3 12.15 C 4.4 km/h
2988 18-11-2020 16:00:00 11.23333 C 8.95 g/m*3 11.23 C 5.06667 km/h
2989 18-11-2020 17:00:00 9.60833 C 8.25 g/m*3 9.61 C 3.86667 km/h
2990 18-11-2020 18:00:00 8.64167 C 7.93 g/m*3 8.64 C 4.66667 km/h
2991 18-11-2020 19:00:00 8.00833 C 7.69 g/m*3 8.01 C 2.8 km/h
2992 18-11-2020 20:00:00 7.3 C 7.37 g/m*3 7.3 C 0.4 km/h
2993 18-11-2020 21:00:00 6.66667 C 7.13 g/m*3 6.67 C 0.66667 km/h
2994 18-11-2020 22:00:00 6.35 C 7.02 g/m*3 6.35 C 0.4 km/h
2995 18-11-2020 23:00:00 6.00833 C 6.9 g/m*3 6.01 C 0.26667 km/h
2996 19-11-2020 00:00:00 6.94167 C 7.41 g/m*3 6.07 C 5.64167 km/h
2997 19-11-2020 01:00:00 11.14167 C 8.55 g/m*3 11.14 C 13.83333 km/h
2998 19-11-2020 02:00:00 11.925 C 8.76 g/m*3 11.93 C 12.75833 km/h
2999 19-11-2020 03:00:00 10.675 C 8.92 g/m*3 9.32 C 10.75833 km/h
3000 19-11-2020 04:00:00 10.7 C 8.96 g/m*3 9.82 C 8.05 km/h
Sensor: Nr:Datum:Temp:Abs-Feuchte:Windchill:Wind:
Aussen-T/F 3001 19-11-2020 05:00:00 10.61667 C 9 g/m*3 9.4 C 9.80833 km/h
3002 19-11-2020 06:00:00 8.975 C 8.28 g/m*3 8.04 C 6.99167 km/h
3003 19-11-2020 07:00:00 8.475 C 8.05 g/m*3 8.48 C 4.93333 km/h
3004 19-11-2020 08:00:00 7.95 C 7.75 g/m*3 6.92 C 6.69167 km/h
3005 19-11-2020 09:00:00 7.65833 C 7.43 g/m*3 6.21 C 8.19167 km/h
3006 19-11-2020 10:00:00 8.51667 C 7.66 g/m*3 7.38 C 7.51667 km/h
3007 19-11-2020 11:00:00 9.68333 C 7.96 g/m*3 8.49 C 8.73333 km/h
3008 19-11-2020 12:00:00 9.56667 C 8.24 g/m*3 8.7 C 7.10833 km/h
3009 19-11-2020 13:00:00 9.95 C 7.7 g/m*3 8 C 13.825 km/h
3010 19-11-2020 14:00:00 10.55833 C 7.33 g/m*3 8.61 C 14.9 km/h
3011 19-11-2020 15:00:00 10.89167 C 7.14 g/m*3 9.48 C 11.425 km/h
3012 19-11-2020 16:00:00 10.28333 C 7.34 g/m*3 8.76 C 11.3 km/h
3013 19-11-2020 17:00:00 9.43333 C 7.56 g/m*3 9.43 C 2.93333 km/h
3014 19-11-2020 18:00:00 8.63333 C 7.7 g/m*3 8.63 C 4.14167 km/h
3015 19-11-2020 19:00:00 8.01667 C 7.58 g/m*3 7.18 C 6.025 km/h
3016 19-11-2020 20:00:00 7.7 C 7.52 g/m*3 7.7 C 2.4 km/h
3017 19-11-2020 21:00:00 6.65 C 7.08 g/m*3 6.65 C 2.8 km/h
3018 19-11-2020 22:00:00 5.56667 C 6.62 g/m*3 5.57 C 3.73333 km/h
3019 19-11-2020 23:00:00 5.41667 C 6.64 g/m*3 5.42 C 1.33333 km/h
3020 20-11-2020 00:00:00 5.25833 C 6.56 g/m*3 5.26 C 4 km/h
3021 20-11-2020 01:00:00 5.01667 C 6.36 g/m*3 5.02 C 2.80833 km/h
3022 20-11-2020 02:00:00 4.475 C 6.15 g/m*3 4.47 C 2.93333 km/h
3023 20-11-2020 03:00:00 3.00833 C 5.56 g/m*3 3.01 C 0.93333 km/h
3024 20-11-2020 04:00:00 2.49167 C 5.42 g/m*3 2.49 C 0.53333 km/h
3025 20-11-2020 05:00:00 2.825 C 5.61 g/m*3 2.83 C 2.93333 km/h
Sensor: Nr:Datum:Temp:Abs-Feuchte:Windchill:Wind:
Aussen-T/F 3026 20-11-2020 06:00:00 3.21667 C 5.79 g/m*3 3.22 C 3.73333 km/h
3027 20-11-2020 07:00:00 3.65 C 5.96 g/m*3 3.65 C 3.46667 km/h
3028 20-11-2020 08:00:00 3.89167 C 6.06 g/m*3 3.89 C 4.4 km/h
3029 20-11-2020 09:00:00 4.34167 C 6.24 g/m*3 4.34 C 4.4 km/h
3030 20-11-2020 10:00:00 5.06667 C 6.49 g/m*3 3.83 C 5.9 km/h
3031 20-11-2020 11:00:00 5.875 C 6.69 g/m*3 4.68 C 6.14167 km/h
3032 20-11-2020 12:00:00 6.45833 C 6.81 g/m*3 6.46 C 4.26667 km/h
3033 20-11-2020 13:00:00 6.75833 C 6.86 g/m*3 6.76 C 3.60833 km/h
3034 20-11-2020 14:00:00 6.625 C 6.52 g/m*3 5.9 C 5.08333 km/h
3035 20-11-2020 15:00:00 6.78333 C 6.43 g/m*3 6.78 C 1.46667 km/h
3036 20-11-2020 16:00:00 6.825 C 6.56 g/m*3 6.83 C 0 km/h
3037 20-11-2020 17:00:00 5.68333 C 6.25 g/m*3 5.68 C 0.26667 km/h
3038 20-11-2020 18:00:00 3.74167 C 5.61 g/m*3 3.74 C 0.53333 km/h
3039 20-11-2020 19:00:00 2.35 C 5.25 g/m*3 2.35 C 0 km/h
3040 20-11-2020 20:00:00 1.31667 C 4.96 g/m*3 1.32 C 0 km/h
3041 20-11-2020 21:00:00 0.76667 C 4.82 g/m*3 0.77 C 0 km/h
3042 20-11-2020 22:00:00 0.3 C 4.7 g/m*3 0.3 C 0 km/h
3043 20-11-2020 23:00:00 0.275 C 4.7 g/m*3 0.28 C 0.26667 km/h
3044 21-11-2020 00:00:00 0.25 C 4.72 g/m*3 0.25 C 0.66667 km/h
3045 21-11-2020 01:00:00 0.25833 C 4.73 g/m*3 0.26 C 0.66667 km/h
3046 21-11-2020 02:00:00 0.2 C 4.72 g/m*3 0.2 C 0.26667 km/h
3047 21-11-2020 03:00:00 0.24167 C 4.73 g/m*3 0.24 C 0.93333 km/h
3048 21-11-2020 04:00:00 0.14167 C 4.7 g/m*3 0.14 C 1.6 km/h
3049 21-11-2020 05:00:00 0.175 C 4.71 g/m*3 0.18 C 1.2 km/h
3050 21-11-2020 06:00:00 0.24167 C 4.75 g/m*3 0.24 C 0.53333 km/h
Sensor: Nr:Datum:Temp:Abs-Feuchte:Windchill:Wind:
Aussen-T/F 3051 21-11-2020 07:00:00 0.31667 C 4.8 g/m*3 0.32 C 0 km/h
3052 21-11-2020 08:00:00 0.525 C 4.87 g/m*3 0.53 C 0.13333 km/h
3053 21-11-2020 09:00:00 1.14167 C 5.08 g/m*3 1.14 C 0 km/h
3054 21-11-2020 10:00:00 2.175 C 5.45 g/m*3 2.17 C 0.4 km/h
3055 21-11-2020 11:00:00 3.41667 C 5.93 g/m*3 3.42 C 0.4 km/h
3056 21-11-2020 12:00:00 5.40833 C 6.34 g/m*3 3.6 C 8.05833 km/h
3057 21-11-2020 13:00:00 7.15 C 6.14 g/m*3 5.58 C 8.34167 km/h
3058 21-11-2020 14:00:00 7.85 C 6.11 g/m*3 5.97 C 10.5 km/h
3059 21-11-2020 15:00:00 7.99167 C 6 g/m*3 6.35 C 9.39167 km/h
3060 21-11-2020 16:00:00 7.89167 C 6.08 g/m*3 7.89 C 2.94167 km/h
3061 21-11-2020 17:00:00 7.21667 C 6.29 g/m*3 7.22 C 0 km/h
3062 21-11-2020 18:00:00 5.65 C 5.98 g/m*3 5.65 C 2.8 km/h
3063 21-11-2020 19:00:00 4.89167 C 5.91 g/m*3 4.89 C 0.66667 km/h
3064 21-11-2020 20:00:00 4.14167 C 5.68 g/m*3 4.14 C 3.89167 km/h
3065 21-11-2020 21:00:00 4.10833 C 5.65 g/m*3 2.88 C 5.49167 km/h
3066 21-11-2020 22:00:00 4.60833 C 5.84 g/m*3 3.17 C 6.3 km/h
3067 21-11-2020 23:00:00 5.53333 C 6.04 g/m*3 2.72 C 13.03333 km/h
3068 22-11-2020 00:00:00 5.78333 C 6.08 g/m*3 3 C 13.16667 km/h
3069 22-11-2020 01:00:00 5.98333 C 6.16 g/m*3 3.5 C 11.7 km/h
3070 22-11-2020 02:00:00 6.3 C 6.22 g/m*3 3.93 C 11.43333 km/h
3071 22-11-2020 03:00:00 6.30833 C 6.22 g/m*3 3.76 C 12.5 km/h
3072 22-11-2020 04:00:00 6.50833 C 6.23 g/m*3 3.47 C 15.96667 km/h
3073 22-11-2020 05:00:00 6.6 C 6.3 g/m*3 3.85 C 14.1 km/h
3074 22-11-2020 06:00:00 6.80833 C 6.41 g/m*3 4.17 C 13.7 km/h
3075 22-11-2020 07:00:00 6.88333 C 6.44 g/m*3 4.2 C 14.1 km/h
Sensor: Nr:Datum:Temp:Abs-Feuchte:Windchill:Wind:
Aussen-T/F 3076 22-11-2020 08:00:00 6.875 C 6.51 g/m*3 4.15 C 14.36667 km/h
3077 22-11-2020 09:00:00 7.275 C 6.7 g/m*3 4.72 C 13.83333 km/h
3078 22-11-2020 10:00:00 7.625 C 6.81 g/m*3 4.82 C 16.23333 km/h
3079 22-11-2020 11:00:00 8.1 C 6.98 g/m*3 5.7 C 14.1 km/h
3080 22-11-2020 12:00:00 8.45 C 7.09 g/m*3 6.11 C 14.23333 km/h
3081 22-11-2020 13:00:00 8.78333 C 7.22 g/m*3 6.59 C 13.7 km/h
3082 22-11-2020 14:00:00 8.95 C 7.29 g/m*3 7.24 C 10.75833 km/h
3083 22-11-2020 15:00:00 8.975 C 7.32 g/m*3 7.04 C 12.225 km/h
3084 22-11-2020 16:00:00 8.875 C 7.38 g/m*3 7.58 C 8.48333 km/h
3085 22-11-2020 17:00:00 8.73333 C 7.37 g/m*3 7.36 C 8.75 km/h
3086 22-11-2020 18:00:00 8.53333 C 7.27 g/m*3 7.02 C 9.28333 km/h
3087 22-11-2020 19:00:00 8.41667 C 7.25 g/m*3 7.64 C 6.025 km/h
3088 22-11-2020 20:00:00 8.34167 C 7.24 g/m*3 7.48 C 6.29167 km/h
3089 22-11-2020 21:00:00 8.3 C 7.31 g/m*3 7.51 C 6.025 km/h
3090 22-11-2020 22:00:00 8.3 C 7.34 g/m*3 7 C 8.06667 km/h
3091 22-11-2020 23:00:00 8.3 C 7.42 g/m*3 7.55 C 5.9 km/h
3092 23-11-2020 00:00:00 8.21667 C 7.41 g/m*3 6.99 C 7.66667 km/h
3093 23-11-2020 01:00:00 8.1 C 7.43 g/m*3 7.44 C 5.49167 km/h
3094 23-11-2020 02:00:00 8.025 C 7.37 g/m*3 6.93 C 6.98333 km/h
3095 23-11-2020 03:00:00 7.99167 C 7.35 g/m*3 6.69 C 7.8 km/h
3096 23-11-2020 04:00:00 7.83333 C 7.4 g/m*3 6.98 C 6.01667 km/h
3097 23-11-2020 05:00:00 7.81667 C 7.39 g/m*3 7.82 C 4.01667 km/h
3098 23-11-2020 06:00:00 7.79167 C 7.42 g/m*3 6.85 C 6.29167 km/h
3099 23-11-2020 07:00:00 7.69167 C 7.38 g/m*3 6.19 C 8.475 km/h
3100 23-11-2020 08:00:00 7.75833 C 7.44 g/m*3 6.66 C 6.83333 km/h
Sensor: Nr:Datum:Temp:Abs-Feuchte:Windchill:Wind:
Aussen-T/F 3101 23-11-2020 09:00:00 7.875 C 7.61 g/m*3 6.87 C 6.55833 km/h
3102 23-11-2020 10:00:00 8.28333 C 7.74 g/m*3 7.57 C 5.76667 km/h
3103 23-11-2020 11:00:00 8.84167 C 7.86 g/m*3 8.84 C 4.8 km/h
3104 23-11-2020 12:00:00 9.20833 C 7.94 g/m*3 9.21 C 3.73333 km/h
3105 23-11-2020 13:00:00 9.46667 C 7.96 g/m*3 9.47 C 1.46667 km/h
3106 23-11-2020 14:00:00 9.75833 C 7.96 g/m*3 9.76 C 3.86667 km/h
3107 23-11-2020 15:00:00 9.76667 C 7.96 g/m*3 9.77 C 0.26667 km/h
3108 23-11-2020 16:00:00 9.23333 C 7.82 g/m*3 9.23 C 0.13333 km/h
3109 23-11-2020 17:00:00 7.48333 C 7.12 g/m*3 7.48 C 2.66667 km/h
3110 23-11-2020 18:00:00 5.45 C 6.45 g/m*3 5.45 C 0.13333 km/h
3111 23-11-2020 19:00:00 4.73333 C 6.28 g/m*3 4.73 C 0.53333 km/h
3112 23-11-2020 20:00:00 4.69167 C 6.35 g/m*3 4.69 C 0 km/h
3113 23-11-2020 21:00:00 6.075 C 7 g/m*3 6.08 C 0.4 km/h
3114 23-11-2020 22:00:00 6.75833 C 7.32 g/m*3 6.76 C 0.8 km/h
3115 23-11-2020 23:00:00 6.95833 C 7.42 g/m*3 6.96 C 0 km/h
3116 24-11-2020 00:00:00 6.93333 C 7.32 g/m*3 6.93 C 1.33333 km/h
3117 24-11-2020 01:00:00 6.65 C 7.12 g/m*3 6.65 C 0.4 km/h
3118 24-11-2020 02:00:00 6.45 C 6.98 g/m*3 6.45 C 2.40833 km/h
3119 24-11-2020 03:00:00 6.3 C 6.88 g/m*3 6.3 C 1.46667 km/h
3120 24-11-2020 04:00:00 6.05 C 6.81 g/m*3 6.05 C 1.73333 km/h
3121 24-11-2020 05:00:00 5.86667 C 6.76 g/m*3 5.87 C 0.66667 km/h
3122 24-11-2020 06:00:00 5.775 C 6.72 g/m*3 5.78 C 0.4 km/h
3123 24-11-2020 07:00:00 5.6 C 6.65 g/m*3 5.6 C 3.86667 km/h
3124 24-11-2020 08:00:00 5.30833 C 6.52 g/m*3 5.31 C 3.46667 km/h
3125 24-11-2020 09:00:00 5.24167 C 6.49 g/m*3 5.24 C 2.66667 km/h
Sensor: Nr:Datum:Temp:Abs-Feuchte:Windchill:Wind:
Aussen-T/F 3126 24-11-2020 10:00:00 5.99167 C 6.78 g/m*3 5.99 C 1.06667 km/h
3127 24-11-2020 11:00:00 6.675 C 6.93 g/m*3 6.68 C 2.675 km/h
3128 24-11-2020 12:00:00 7.19167 C 6.98 g/m*3 7.19 C 2.93333 km/h
3129 24-11-2020 13:00:00 7.275 C 6.97 g/m*3 7.28 C 4.81667 km/h
3130 24-11-2020 14:00:00 6.93333 C 6.86 g/m*3 6.93 C 4.275 km/h
3131 24-11-2020 15:00:00 6.525 C 6.75 g/m*3 6.53 C 4.00833 km/h
3132 24-11-2020 16:00:00 6.46667 C 6.74 g/m*3 6.47 C 1.06667 km/h
3133 24-11-2020 17:00:00 6.51667 C 6.76 g/m*3 6.52 C 1.06667 km/h
3134 24-11-2020 18:00:00 6.4 C 6.71 g/m*3 6.4 C 1.33333 km/h
3135 24-11-2020 19:00:00 6.4 C 6.73 g/m*3 6.4 C 0.53333 km/h
3136 24-11-2020 20:00:00 6.4 C 6.78 g/m*3 6.4 C